<?xml version="1.0" encoding="UTF-8" standalone="no" ?>
<gpx xmlns="http://www.topografix.com/GPX/1/1" xmlns:xsi="http://www.w3.org/2001/XMLSchema-instance" xsi:schemaLocation="http://www.topografix.com/GPX/1/1 http://www.topografix.com/GPX/1/1/gpx.xsd" version="1.1" creator="VisuGPX - https://www.visugpx.com">
  <metadata>
    <name>Pic de Courmettes-La Loubiere</name>
    <desc><![CDATA[Pic de Courmettes-La Loubiere VTT ASCVTT Hiver 2018]]></desc>
  </metadata>
  <trk>
    <name><![CDATA[20180120183928-Ghew9]]></name>
    <trkseg>
      <trkpt lat="43.7034" lon="7.01744">
        <ele>307</ele>
        <time>2018-01-20T08:02:09Z</time>
      </trkpt>
      <trkpt lat="43.70334" lon="7.01739">
        <ele>307</ele>
        <time>2018-01-20T08:02:46Z</time>
      </trkpt>
      <trkpt lat="43.7034" lon="7.01746">
        <ele>307</ele>
        <time>2018-01-20T08:07:54Z</time>
      </trkpt>
      <trkpt lat="43.70338" lon="7.01735">
        <ele>308</ele>
        <time>2018-01-20T08:08:15Z</time>
      </trkpt>
      <trkpt lat="43.70346" lon="7.01732">
        <ele>309</ele>
        <time>2018-01-20T08:08:21Z</time>
      </trkpt>
      <trkpt lat="43.7035" lon="7.01741">
        <ele>309</ele>
        <time>2018-01-20T08:08:28Z</time>
      </trkpt>
      <trkpt lat="43.70353" lon="7.01751">
        <ele>311</ele>
        <time>2018-01-20T08:08:35Z</time>
      </trkpt>
      <trkpt lat="43.70356" lon="7.01761">
        <ele>312</ele>
        <time>2018-01-20T08:08:41Z</time>
      </trkpt>
      <trkpt lat="43.70358" lon="7.01772">
        <ele>313</ele>
        <time>2018-01-20T08:08:48Z</time>
      </trkpt>
      <trkpt lat="43.70363" lon="7.01781">
        <ele>314</ele>
        <time>2018-01-20T08:08:54Z</time>
      </trkpt>
      <trkpt lat="43.7037" lon="7.01776">
        <ele>314</ele>
        <time>2018-01-20T08:09:02Z</time>
      </trkpt>
      <trkpt lat="43.70375" lon="7.01769">
        <ele>315</ele>
        <time>2018-01-20T08:09:08Z</time>
      </trkpt>
      <trkpt lat="43.70379" lon="7.01759">
        <ele>315</ele>
        <time>2018-01-20T08:09:15Z</time>
      </trkpt>
      <trkpt lat="43.70385" lon="7.01753">
        <ele>316</ele>
        <time>2018-01-20T08:09:20Z</time>
      </trkpt>
      <trkpt lat="43.70389" lon="7.01743">
        <ele>315</ele>
        <time>2018-01-20T08:09:28Z</time>
      </trkpt>
      <trkpt lat="43.70394" lon="7.01734">
        <ele>315</ele>
        <time>2018-01-20T08:09:34Z</time>
      </trkpt>
      <trkpt lat="43.70399" lon="7.01726">
        <ele>315</ele>
        <time>2018-01-20T08:09:40Z</time>
      </trkpt>
      <trkpt lat="43.70405" lon="7.01718">
        <ele>315</ele>
        <time>2018-01-20T08:09:46Z</time>
      </trkpt>
      <trkpt lat="43.70412" lon="7.01712">
        <ele>315</ele>
        <time>2018-01-20T08:09:53Z</time>
      </trkpt>
      <trkpt lat="43.7042" lon="7.01712">
        <ele>326</ele>
        <time>2018-01-20T08:09:58Z</time>
      </trkpt>
      <trkpt lat="43.70427" lon="7.01712">
        <ele>327</ele>
        <time>2018-01-20T08:10:03Z</time>
      </trkpt>
      <trkpt lat="43.70435" lon="7.01712">
        <ele>327</ele>
        <time>2018-01-20T08:10:08Z</time>
      </trkpt>
      <trkpt lat="43.70443" lon="7.01711">
        <ele>328</ele>
        <time>2018-01-20T08:10:14Z</time>
      </trkpt>
      <trkpt lat="43.70451" lon="7.01707">
        <ele>328</ele>
        <time>2018-01-20T08:10:19Z</time>
      </trkpt>
      <trkpt lat="43.70457" lon="7.01701">
        <ele>329</ele>
        <time>2018-01-20T08:10:24Z</time>
      </trkpt>
      <trkpt lat="43.70461" lon="7.01691">
        <ele>329</ele>
        <time>2018-01-20T08:10:30Z</time>
      </trkpt>
      <trkpt lat="43.70465" lon="7.01681">
        <ele>330</ele>
        <time>2018-01-20T08:10:37Z</time>
      </trkpt>
      <trkpt lat="43.70472" lon="7.01679">
        <ele>331</ele>
        <time>2018-01-20T08:10:43Z</time>
      </trkpt>
      <trkpt lat="43.70477" lon="7.01687">
        <ele>331</ele>
        <time>2018-01-20T08:10:49Z</time>
      </trkpt>
      <trkpt lat="43.70483" lon="7.01695">
        <ele>331</ele>
        <time>2018-01-20T08:10:55Z</time>
      </trkpt>
      <trkpt lat="43.70488" lon="7.01703">
        <ele>332</ele>
        <time>2018-01-20T08:11:00Z</time>
      </trkpt>
      <trkpt lat="43.70494" lon="7.0171">
        <ele>332</ele>
        <time>2018-01-20T08:11:05Z</time>
      </trkpt>
      <trkpt lat="43.705" lon="7.01719">
        <ele>332</ele>
        <time>2018-01-20T08:11:11Z</time>
      </trkpt>
      <trkpt lat="43.70506" lon="7.01726">
        <ele>342</ele>
        <time>2018-01-20T08:11:17Z</time>
      </trkpt>
      <trkpt lat="43.70511" lon="7.01734">
        <ele>342</ele>
        <time>2018-01-20T08:11:23Z</time>
      </trkpt>
      <trkpt lat="43.70517" lon="7.0174">
        <ele>342</ele>
        <time>2018-01-20T08:11:29Z</time>
      </trkpt>
      <trkpt lat="43.70523" lon="7.01746">
        <ele>343</ele>
        <time>2018-01-20T08:11:34Z</time>
      </trkpt>
      <trkpt lat="43.70528" lon="7.01754">
        <ele>345</ele>
        <time>2018-01-20T08:11:40Z</time>
      </trkpt>
      <trkpt lat="43.70534" lon="7.01762">
        <ele>346</ele>
        <time>2018-01-20T08:11:46Z</time>
      </trkpt>
      <trkpt lat="43.70539" lon="7.0177">
        <ele>347</ele>
        <time>2018-01-20T08:11:51Z</time>
      </trkpt>
      <trkpt lat="43.70546" lon="7.01776">
        <ele>348</ele>
        <time>2018-01-20T08:11:57Z</time>
      </trkpt>
      <trkpt lat="43.70553" lon="7.0178">
        <ele>348</ele>
        <time>2018-01-20T08:12:04Z</time>
      </trkpt>
      <trkpt lat="43.70558" lon="7.0179">
        <ele>349</ele>
        <time>2018-01-20T08:12:10Z</time>
      </trkpt>
      <trkpt lat="43.70563" lon="7.01799">
        <ele>350</ele>
        <time>2018-01-20T08:12:17Z</time>
      </trkpt>
      <trkpt lat="43.70568" lon="7.01808">
        <ele>351</ele>
        <time>2018-01-20T08:12:23Z</time>
      </trkpt>
      <trkpt lat="43.70571" lon="7.01817">
        <ele>352</ele>
        <time>2018-01-20T08:12:31Z</time>
      </trkpt>
      <trkpt lat="43.70575" lon="7.01828">
        <ele>355</ele>
        <time>2018-01-20T08:12:39Z</time>
      </trkpt>
      <trkpt lat="43.70576" lon="7.0184">
        <ele>355</ele>
        <time>2018-01-20T08:12:44Z</time>
      </trkpt>
      <trkpt lat="43.70578" lon="7.0185">
        <ele>354</ele>
        <time>2018-01-20T08:12:50Z</time>
      </trkpt>
      <trkpt lat="43.70577" lon="7.01861">
        <ele>353</ele>
        <time>2018-01-20T08:12:56Z</time>
      </trkpt>
      <trkpt lat="43.70579" lon="7.01871">
        <ele>353</ele>
        <time>2018-01-20T08:13:01Z</time>
      </trkpt>
      <trkpt lat="43.70582" lon="7.0188">
        <ele>353</ele>
        <time>2018-01-20T08:13:10Z</time>
      </trkpt>
      <trkpt lat="43.70586" lon="7.0189">
        <ele>363</ele>
        <time>2018-01-20T08:13:17Z</time>
      </trkpt>
      <trkpt lat="43.70594" lon="7.0189">
        <ele>364</ele>
        <time>2018-01-20T08:13:24Z</time>
      </trkpt>
      <trkpt lat="43.706" lon="7.01884">
        <ele>365</ele>
        <time>2018-01-20T08:13:30Z</time>
      </trkpt>
      <trkpt lat="43.70606" lon="7.01877">
        <ele>365</ele>
        <time>2018-01-20T08:13:36Z</time>
      </trkpt>
      <trkpt lat="43.7061" lon="7.01869">
        <ele>366</ele>
        <time>2018-01-20T08:13:41Z</time>
      </trkpt>
      <trkpt lat="43.70617" lon="7.01862">
        <ele>366</ele>
        <time>2018-01-20T08:13:46Z</time>
      </trkpt>
      <trkpt lat="43.70621" lon="7.01853">
        <ele>367</ele>
        <time>2018-01-20T08:13:53Z</time>
      </trkpt>
      <trkpt lat="43.70627" lon="7.01845">
        <ele>368</ele>
        <time>2018-01-20T08:14:00Z</time>
      </trkpt>
      <trkpt lat="43.70632" lon="7.01837">
        <ele>369</ele>
        <time>2018-01-20T08:14:08Z</time>
      </trkpt>
      <trkpt lat="43.70637" lon="7.01826">
        <ele>370</ele>
        <time>2018-01-20T08:14:15Z</time>
      </trkpt>
      <trkpt lat="43.70641" lon="7.01819">
        <ele>371</ele>
        <time>2018-01-20T08:14:20Z</time>
      </trkpt>
      <trkpt lat="43.70645" lon="7.0181">
        <ele>371</ele>
        <time>2018-01-20T08:14:26Z</time>
      </trkpt>
      <trkpt lat="43.70647" lon="7.01799">
        <ele>371</ele>
        <time>2018-01-20T08:14:33Z</time>
      </trkpt>
      <trkpt lat="43.70651" lon="7.01791">
        <ele>371</ele>
        <time>2018-01-20T08:14:38Z</time>
      </trkpt>
      <trkpt lat="43.70654" lon="7.01781">
        <ele>372</ele>
        <time>2018-01-20T08:14:44Z</time>
      </trkpt>
      <trkpt lat="43.70658" lon="7.01772">
        <ele>373</ele>
        <time>2018-01-20T08:14:51Z</time>
      </trkpt>
      <trkpt lat="43.70663" lon="7.01762">
        <ele>376</ele>
        <time>2018-01-20T08:14:58Z</time>
      </trkpt>
      <trkpt lat="43.70669" lon="7.01754">
        <ele>383</ele>
        <time>2018-01-20T08:15:03Z</time>
      </trkpt>
      <trkpt lat="43.70675" lon="7.01748">
        <ele>385</ele>
        <time>2018-01-20T08:15:09Z</time>
      </trkpt>
      <trkpt lat="43.70681" lon="7.0174">
        <ele>388</ele>
        <time>2018-01-20T08:15:16Z</time>
      </trkpt>
      <trkpt lat="43.70685" lon="7.01731">
        <ele>390</ele>
        <time>2018-01-20T08:15:21Z</time>
      </trkpt>
      <trkpt lat="43.70687" lon="7.01721">
        <ele>392</ele>
        <time>2018-01-20T08:15:27Z</time>
      </trkpt>
      <trkpt lat="43.70689" lon="7.01711">
        <ele>392</ele>
        <time>2018-01-20T08:15:33Z</time>
      </trkpt>
      <trkpt lat="43.70692" lon="7.017">
        <ele>392</ele>
        <time>2018-01-20T08:15:39Z</time>
      </trkpt>
      <trkpt lat="43.70694" lon="7.01688">
        <ele>392</ele>
        <time>2018-01-20T08:15:45Z</time>
      </trkpt>
      <trkpt lat="43.70699" lon="7.01679">
        <ele>393</ele>
        <time>2018-01-20T08:15:50Z</time>
      </trkpt>
      <trkpt lat="43.707" lon="7.01669">
        <ele>393</ele>
        <time>2018-01-20T08:15:55Z</time>
      </trkpt>
      <trkpt lat="43.70703" lon="7.0166">
        <ele>395</ele>
        <time>2018-01-20T08:16:01Z</time>
      </trkpt>
      <trkpt lat="43.70707" lon="7.0165">
        <ele>396</ele>
        <time>2018-01-20T08:16:07Z</time>
      </trkpt>
      <trkpt lat="43.7071" lon="7.01638">
        <ele>397</ele>
        <time>2018-01-20T08:16:14Z</time>
      </trkpt>
      <trkpt lat="43.70711" lon="7.01628">
        <ele>397</ele>
        <time>2018-01-20T08:16:21Z</time>
      </trkpt>
      <trkpt lat="43.7071" lon="7.01618">
        <ele>397</ele>
        <time>2018-01-20T08:16:27Z</time>
      </trkpt>
      <trkpt lat="43.70714" lon="7.01607">
        <ele>398</ele>
        <time>2018-01-20T08:16:33Z</time>
      </trkpt>
      <trkpt lat="43.70716" lon="7.01596">
        <ele>399</ele>
        <time>2018-01-20T08:16:39Z</time>
      </trkpt>
      <trkpt lat="43.70717" lon="7.01584">
        <ele>400</ele>
        <time>2018-01-20T08:16:46Z</time>
      </trkpt>
      <trkpt lat="43.7072" lon="7.01575">
        <ele>402</ele>
        <time>2018-01-20T08:16:52Z</time>
      </trkpt>
      <trkpt lat="43.70725" lon="7.01566">
        <ele>403</ele>
        <time>2018-01-20T08:16:58Z</time>
      </trkpt>
      <trkpt lat="43.70728" lon="7.01556">
        <ele>403</ele>
        <time>2018-01-20T08:17:06Z</time>
      </trkpt>
      <trkpt lat="43.70732" lon="7.01545">
        <ele>404</ele>
        <time>2018-01-20T08:17:14Z</time>
      </trkpt>
      <trkpt lat="43.70734" lon="7.01535">
        <ele>404</ele>
        <time>2018-01-20T08:17:22Z</time>
      </trkpt>
      <trkpt lat="43.70738" lon="7.01526">
        <ele>406</ele>
        <time>2018-01-20T08:17:29Z</time>
      </trkpt>
      <trkpt lat="43.70741" lon="7.01516">
        <ele>408</ele>
        <time>2018-01-20T08:17:36Z</time>
      </trkpt>
      <trkpt lat="43.70744" lon="7.01506">
        <ele>411</ele>
        <time>2018-01-20T08:17:44Z</time>
      </trkpt>
      <trkpt lat="43.70743" lon="7.01495">
        <ele>412</ele>
        <time>2018-01-20T08:17:51Z</time>
      </trkpt>
      <trkpt lat="43.70747" lon="7.01486">
        <ele>410</ele>
        <time>2018-01-20T08:17:57Z</time>
      </trkpt>
      <trkpt lat="43.70751" lon="7.01478">
        <ele>424</ele>
        <time>2018-01-20T08:18:03Z</time>
      </trkpt>
      <trkpt lat="43.70755" lon="7.01467">
        <ele>426</ele>
        <time>2018-01-20T08:18:10Z</time>
      </trkpt>
      <trkpt lat="43.70759" lon="7.01457">
        <ele>427</ele>
        <time>2018-01-20T08:18:16Z</time>
      </trkpt>
      <trkpt lat="43.70764" lon="7.0145">
        <ele>427</ele>
        <time>2018-01-20T08:18:23Z</time>
      </trkpt>
      <trkpt lat="43.70768" lon="7.01441">
        <ele>427</ele>
        <time>2018-01-20T08:18:29Z</time>
      </trkpt>
      <trkpt lat="43.70772" lon="7.01432">
        <ele>427</ele>
        <time>2018-01-20T08:18:35Z</time>
      </trkpt>
      <trkpt lat="43.70778" lon="7.01425">
        <ele>428</ele>
        <time>2018-01-20T08:18:41Z</time>
      </trkpt>
      <trkpt lat="43.70783" lon="7.01416">
        <ele>426</ele>
        <time>2018-01-20T08:18:47Z</time>
      </trkpt>
      <trkpt lat="43.70789" lon="7.01409">
        <ele>427</ele>
        <time>2018-01-20T08:18:53Z</time>
      </trkpt>
      <trkpt lat="43.70794" lon="7.01401">
        <ele>428</ele>
        <time>2018-01-20T08:18:59Z</time>
      </trkpt>
      <trkpt lat="43.70802" lon="7.01398">
        <ele>430</ele>
        <time>2018-01-20T08:19:08Z</time>
      </trkpt>
      <trkpt lat="43.70803" lon="7.01409">
        <ele>431</ele>
        <time>2018-01-20T08:19:16Z</time>
      </trkpt>
      <trkpt lat="43.70802" lon="7.01419">
        <ele>435</ele>
        <time>2018-01-20T08:19:22Z</time>
      </trkpt>
      <trkpt lat="43.708" lon="7.0143">
        <ele>434</ele>
        <time>2018-01-20T08:19:30Z</time>
      </trkpt>
      <trkpt lat="43.70801" lon="7.01441">
        <ele>434</ele>
        <time>2018-01-20T08:19:35Z</time>
      </trkpt>
      <trkpt lat="43.70802" lon="7.01452">
        <ele>434</ele>
        <time>2018-01-20T08:19:41Z</time>
      </trkpt>
      <trkpt lat="43.70804" lon="7.01473">
        <ele>435</ele>
        <time>2018-01-20T08:19:50Z</time>
      </trkpt>
      <trkpt lat="43.70807" lon="7.01483">
        <ele>436</ele>
        <time>2018-01-20T08:19:57Z</time>
      </trkpt>
      <trkpt lat="43.7081" lon="7.01494">
        <ele>438</ele>
        <time>2018-01-20T08:20:02Z</time>
      </trkpt>
      <trkpt lat="43.70813" lon="7.01504">
        <ele>439</ele>
        <time>2018-01-20T08:20:08Z</time>
      </trkpt>
      <trkpt lat="43.70815" lon="7.01516">
        <ele>438</ele>
        <time>2018-01-20T08:20:14Z</time>
      </trkpt>
      <trkpt lat="43.70816" lon="7.01527">
        <ele>437</ele>
        <time>2018-01-20T08:20:19Z</time>
      </trkpt>
      <trkpt lat="43.70819" lon="7.01539">
        <ele>437</ele>
        <time>2018-01-20T08:20:29Z</time>
      </trkpt>
      <trkpt lat="43.7082" lon="7.0155">
        <ele>438</ele>
        <time>2018-01-20T08:20:35Z</time>
      </trkpt>
      <trkpt lat="43.70821" lon="7.01562">
        <ele>439</ele>
        <time>2018-01-20T08:20:42Z</time>
      </trkpt>
      <trkpt lat="43.70821" lon="7.01572">
        <ele>441</ele>
        <time>2018-01-20T08:20:47Z</time>
      </trkpt>
      <trkpt lat="43.70824" lon="7.01582">
        <ele>444</ele>
        <time>2018-01-20T08:20:53Z</time>
      </trkpt>
      <trkpt lat="43.70827" lon="7.01594">
        <ele>442</ele>
        <time>2018-01-20T08:20:58Z</time>
      </trkpt>
      <trkpt lat="43.70833" lon="7.01603">
        <ele>439</ele>
        <time>2018-01-20T08:21:03Z</time>
      </trkpt>
      <trkpt lat="43.70843" lon="7.01619">
        <ele>458</ele>
        <time>2018-01-20T08:21:12Z</time>
      </trkpt>
      <trkpt lat="43.70856" lon="7.01633">
        <ele>459</ele>
        <time>2018-01-20T08:21:21Z</time>
      </trkpt>
      <trkpt lat="43.70862" lon="7.01641">
        <ele>459</ele>
        <time>2018-01-20T08:21:26Z</time>
      </trkpt>
      <trkpt lat="43.70873" lon="7.01655">
        <ele>461</ele>
        <time>2018-01-20T08:21:35Z</time>
      </trkpt>
      <trkpt lat="43.70878" lon="7.01664">
        <ele>462</ele>
        <time>2018-01-20T08:21:40Z</time>
      </trkpt>
      <trkpt lat="43.70883" lon="7.01672">
        <ele>458</ele>
        <time>2018-01-20T08:21:45Z</time>
      </trkpt>
      <trkpt lat="43.70887" lon="7.01681">
        <ele>458</ele>
        <time>2018-01-20T08:21:51Z</time>
      </trkpt>
      <trkpt lat="43.70892" lon="7.01691">
        <ele>459</ele>
        <time>2018-01-20T08:21:57Z</time>
      </trkpt>
      <trkpt lat="43.70896" lon="7.01701">
        <ele>458</ele>
        <time>2018-01-20T08:22:03Z</time>
      </trkpt>
      <trkpt lat="43.70901" lon="7.0171">
        <ele>458</ele>
        <time>2018-01-20T08:22:08Z</time>
      </trkpt>
      <trkpt lat="43.70904" lon="7.01719">
        <ele>459</ele>
        <time>2018-01-20T08:22:13Z</time>
      </trkpt>
      <trkpt lat="43.70908" lon="7.0173">
        <ele>460</ele>
        <time>2018-01-20T08:22:20Z</time>
      </trkpt>
      <trkpt lat="43.70915" lon="7.01733">
        <ele>461</ele>
        <time>2018-01-20T08:22:26Z</time>
      </trkpt>
      <trkpt lat="43.70917" lon="7.01722">
        <ele>483</ele>
        <time>2018-01-20T08:22:31Z</time>
      </trkpt>
      <trkpt lat="43.70917" lon="7.01711">
        <ele>485</ele>
        <time>2018-01-20T08:22:36Z</time>
      </trkpt>
      <trkpt lat="43.70916" lon="7.01701">
        <ele>461</ele>
        <time>2018-01-20T08:22:41Z</time>
      </trkpt>
      <trkpt lat="43.70915" lon="7.0169">
        <ele>463</ele>
        <time>2018-01-20T08:22:46Z</time>
      </trkpt>
      <trkpt lat="43.70916" lon="7.0168">
        <ele>466</ele>
        <time>2018-01-20T08:22:51Z</time>
      </trkpt>
      <trkpt lat="43.70918" lon="7.0167">
        <ele>476</ele>
        <time>2018-01-20T08:22:57Z</time>
      </trkpt>
      <trkpt lat="43.70918" lon="7.01658">
        <ele>483</ele>
        <time>2018-01-20T08:23:04Z</time>
      </trkpt>
      <trkpt lat="43.70919" lon="7.01648">
        <ele>490</ele>
        <time>2018-01-20T08:23:10Z</time>
      </trkpt>
      <trkpt lat="43.7092" lon="7.01638">
        <ele>494</ele>
        <time>2018-01-20T08:23:16Z</time>
      </trkpt>
      <trkpt lat="43.70918" lon="7.01627">
        <ele>496</ele>
        <time>2018-01-20T08:23:22Z</time>
      </trkpt>
      <trkpt lat="43.70916" lon="7.01617">
        <ele>472</ele>
        <time>2018-01-20T08:23:28Z</time>
      </trkpt>
      <trkpt lat="43.70914" lon="7.01606">
        <ele>474</ele>
        <time>2018-01-20T08:23:35Z</time>
      </trkpt>
      <trkpt lat="43.70907" lon="7.01599">
        <ele>476</ele>
        <time>2018-01-20T08:23:41Z</time>
      </trkpt>
      <trkpt lat="43.70911" lon="7.01589">
        <ele>482</ele>
        <time>2018-01-20T08:23:48Z</time>
      </trkpt>
      <trkpt lat="43.70919" lon="7.01595">
        <ele>495</ele>
        <time>2018-01-20T08:23:56Z</time>
      </trkpt>
      <trkpt lat="43.70922" lon="7.01604">
        <ele>497</ele>
        <time>2018-01-20T08:24:01Z</time>
      </trkpt>
      <trkpt lat="43.70927" lon="7.01612">
        <ele>498</ele>
        <time>2018-01-20T08:24:07Z</time>
      </trkpt>
      <trkpt lat="43.70929" lon="7.01622">
        <ele>499</ele>
        <time>2018-01-20T08:24:14Z</time>
      </trkpt>
      <trkpt lat="43.70934" lon="7.01632">
        <ele>498</ele>
        <time>2018-01-20T08:24:20Z</time>
      </trkpt>
      <trkpt lat="43.70939" lon="7.0164">
        <ele>498</ele>
        <time>2018-01-20T08:24:27Z</time>
      </trkpt>
      <trkpt lat="43.70943" lon="7.01649">
        <ele>498</ele>
        <time>2018-01-20T08:24:34Z</time>
      </trkpt>
      <trkpt lat="43.70945" lon="7.01659">
        <ele>497</ele>
        <time>2018-01-20T08:24:41Z</time>
      </trkpt>
      <trkpt lat="43.7095" lon="7.01669">
        <ele>492</ele>
        <time>2018-01-20T08:24:46Z</time>
      </trkpt>
      <trkpt lat="43.70955" lon="7.01677">
        <ele>494</ele>
        <time>2018-01-20T08:24:52Z</time>
      </trkpt>
      <trkpt lat="43.70962" lon="7.01696">
        <ele>496</ele>
        <time>2018-01-20T08:25:04Z</time>
      </trkpt>
      <trkpt lat="43.70966" lon="7.01705">
        <ele>496</ele>
        <time>2018-01-20T08:25:11Z</time>
      </trkpt>
      <trkpt lat="43.70969" lon="7.01715">
        <ele>497</ele>
        <time>2018-01-20T08:25:17Z</time>
      </trkpt>
      <trkpt lat="43.70973" lon="7.01725">
        <ele>498</ele>
        <time>2018-01-20T08:25:24Z</time>
      </trkpt>
      <trkpt lat="43.70977" lon="7.01736">
        <ele>499</ele>
        <time>2018-01-20T08:25:30Z</time>
      </trkpt>
      <trkpt lat="43.70984" lon="7.0174">
        <ele>502</ele>
        <time>2018-01-20T08:25:36Z</time>
      </trkpt>
      <trkpt lat="43.70985" lon="7.01729">
        <ele>501</ele>
        <time>2018-01-20T08:28:44Z</time>
      </trkpt>
      <trkpt lat="43.70983" lon="7.0172">
        <ele>500</ele>
        <time>2018-01-20T08:28:49Z</time>
      </trkpt>
      <trkpt lat="43.70981" lon="7.01708">
        <ele>500</ele>
        <time>2018-01-20T08:28:54Z</time>
      </trkpt>
      <trkpt lat="43.70979" lon="7.01696">
        <ele>501</ele>
        <time>2018-01-20T08:28:59Z</time>
      </trkpt>
      <trkpt lat="43.70978" lon="7.01686">
        <ele>503</ele>
        <time>2018-01-20T08:29:04Z</time>
      </trkpt>
      <trkpt lat="43.70977" lon="7.01674">
        <ele>505</ele>
        <time>2018-01-20T08:29:10Z</time>
      </trkpt>
      <trkpt lat="43.70977" lon="7.01664">
        <ele>511</ele>
        <time>2018-01-20T08:29:16Z</time>
      </trkpt>
      <trkpt lat="43.70976" lon="7.01653">
        <ele>510</ele>
        <time>2018-01-20T08:29:21Z</time>
      </trkpt>
      <trkpt lat="43.70975" lon="7.01643">
        <ele>510</ele>
        <time>2018-01-20T08:29:26Z</time>
      </trkpt>
      <trkpt lat="43.70973" lon="7.01632">
        <ele>510</ele>
        <time>2018-01-20T08:29:32Z</time>
      </trkpt>
      <trkpt lat="43.70972" lon="7.01621">
        <ele>510</ele>
        <time>2018-01-20T08:29:38Z</time>
      </trkpt>
      <trkpt lat="43.70971" lon="7.0161">
        <ele>511</ele>
        <time>2018-01-20T08:29:43Z</time>
      </trkpt>
      <trkpt lat="43.7097" lon="7.016">
        <ele>512</ele>
        <time>2018-01-20T08:29:48Z</time>
      </trkpt>
      <trkpt lat="43.70967" lon="7.01589">
        <ele>512</ele>
        <time>2018-01-20T08:29:54Z</time>
      </trkpt>
      <trkpt lat="43.70967" lon="7.01579">
        <ele>518</ele>
        <time>2018-01-20T08:29:59Z</time>
      </trkpt>
      <trkpt lat="43.70967" lon="7.01568">
        <ele>518</ele>
        <time>2018-01-20T08:30:04Z</time>
      </trkpt>
      <trkpt lat="43.70969" lon="7.01558">
        <ele>519</ele>
        <time>2018-01-20T08:30:09Z</time>
      </trkpt>
      <trkpt lat="43.70971" lon="7.01548">
        <ele>519</ele>
        <time>2018-01-20T08:30:14Z</time>
      </trkpt>
      <trkpt lat="43.70969" lon="7.01537">
        <ele>519</ele>
        <time>2018-01-20T08:30:20Z</time>
      </trkpt>
      <trkpt lat="43.70968" lon="7.01527">
        <ele>520</ele>
        <time>2018-01-20T08:30:26Z</time>
      </trkpt>
      <trkpt lat="43.70969" lon="7.01516">
        <ele>521</ele>
        <time>2018-01-20T08:30:32Z</time>
      </trkpt>
      <trkpt lat="43.70971" lon="7.01505">
        <ele>523</ele>
        <time>2018-01-20T08:30:38Z</time>
      </trkpt>
      <trkpt lat="43.70971" lon="7.01495">
        <ele>524</ele>
        <time>2018-01-20T08:30:46Z</time>
      </trkpt>
      <trkpt lat="43.70973" lon="7.01484">
        <ele>524</ele>
        <time>2018-01-20T08:30:52Z</time>
      </trkpt>
      <trkpt lat="43.7098" lon="7.01489">
        <ele>528</ele>
        <time>2018-01-20T08:31:00Z</time>
      </trkpt>
      <trkpt lat="43.70981" lon="7.01499">
        <ele>529</ele>
        <time>2018-01-20T08:31:08Z</time>
      </trkpt>
      <trkpt lat="43.70983" lon="7.0151">
        <ele>529</ele>
        <time>2018-01-20T08:31:14Z</time>
      </trkpt>
      <trkpt lat="43.70986" lon="7.01519">
        <ele>527</ele>
        <time>2018-01-20T08:31:20Z</time>
      </trkpt>
      <trkpt lat="43.70988" lon="7.0153">
        <ele>525</ele>
        <time>2018-01-20T08:31:26Z</time>
      </trkpt>
      <trkpt lat="43.70992" lon="7.0154">
        <ele>524</ele>
        <time>2018-01-20T08:31:33Z</time>
      </trkpt>
      <trkpt lat="43.70995" lon="7.0155">
        <ele>524</ele>
        <time>2018-01-20T08:31:40Z</time>
      </trkpt>
      <trkpt lat="43.70997" lon="7.0156">
        <ele>526</ele>
        <time>2018-01-20T08:31:49Z</time>
      </trkpt>
      <trkpt lat="43.71006" lon="7.01578">
        <ele>545</ele>
        <time>2018-01-20T08:31:58Z</time>
      </trkpt>
      <trkpt lat="43.71012" lon="7.01584">
        <ele>545</ele>
        <time>2018-01-20T08:32:03Z</time>
      </trkpt>
      <trkpt lat="43.71018" lon="7.01592">
        <ele>549</ele>
        <time>2018-01-20T08:32:09Z</time>
      </trkpt>
      <trkpt lat="43.71024" lon="7.016">
        <ele>552</ele>
        <time>2018-01-20T08:32:14Z</time>
      </trkpt>
      <trkpt lat="43.71029" lon="7.01608">
        <ele>554</ele>
        <time>2018-01-20T08:32:20Z</time>
      </trkpt>
      <trkpt lat="43.71033" lon="7.01616">
        <ele>555</ele>
        <time>2018-01-20T08:32:26Z</time>
      </trkpt>
      <trkpt lat="43.71037" lon="7.01625">
        <ele>555</ele>
        <time>2018-01-20T08:32:32Z</time>
      </trkpt>
      <trkpt lat="43.71041" lon="7.01636">
        <ele>556</ele>
        <time>2018-01-20T08:32:38Z</time>
      </trkpt>
      <trkpt lat="43.71044" lon="7.01646">
        <ele>556</ele>
        <time>2018-01-20T08:32:45Z</time>
      </trkpt>
      <trkpt lat="43.71047" lon="7.01656">
        <ele>557</ele>
        <time>2018-01-20T08:32:51Z</time>
      </trkpt>
      <trkpt lat="43.71049" lon="7.01666">
        <ele>558</ele>
        <time>2018-01-20T08:32:57Z</time>
      </trkpt>
      <trkpt lat="43.71051" lon="7.01676">
        <ele>549</ele>
        <time>2018-01-20T08:33:05Z</time>
      </trkpt>
      <trkpt lat="43.71053" lon="7.01688">
        <ele>549</ele>
        <time>2018-01-20T08:33:12Z</time>
      </trkpt>
      <trkpt lat="43.71055" lon="7.01697">
        <ele>548</ele>
        <time>2018-01-20T08:33:17Z</time>
      </trkpt>
      <trkpt lat="43.71056" lon="7.01709">
        <ele>547</ele>
        <time>2018-01-20T08:33:23Z</time>
      </trkpt>
      <trkpt lat="43.71062" lon="7.01716">
        <ele>548</ele>
        <time>2018-01-20T08:33:30Z</time>
      </trkpt>
      <trkpt lat="43.71067" lon="7.01709">
        <ele>550</ele>
        <time>2018-01-20T08:33:37Z</time>
      </trkpt>
      <trkpt lat="43.71066" lon="7.01698">
        <ele>551</ele>
        <time>2018-01-20T08:33:43Z</time>
      </trkpt>
      <trkpt lat="43.71066" lon="7.01688">
        <ele>554</ele>
        <time>2018-01-20T08:33:48Z</time>
      </trkpt>
      <trkpt lat="43.71064" lon="7.01678">
        <ele>556</ele>
        <time>2018-01-20T08:33:54Z</time>
      </trkpt>
      <trkpt lat="43.71063" lon="7.01667">
        <ele>556</ele>
        <time>2018-01-20T08:34:00Z</time>
      </trkpt>
      <trkpt lat="43.71065" lon="7.01656">
        <ele>564</ele>
        <time>2018-01-20T08:34:06Z</time>
      </trkpt>
      <trkpt lat="43.71065" lon="7.01645">
        <ele>563</ele>
        <time>2018-01-20T08:34:13Z</time>
      </trkpt>
      <trkpt lat="43.71064" lon="7.01634">
        <ele>563</ele>
        <time>2018-01-20T08:34:20Z</time>
      </trkpt>
      <trkpt lat="43.71064" lon="7.01622">
        <ele>564</ele>
        <time>2018-01-20T08:34:26Z</time>
      </trkpt>
      <trkpt lat="43.71065" lon="7.01611">
        <ele>567</ele>
        <time>2018-01-20T08:34:32Z</time>
      </trkpt>
      <trkpt lat="43.71062" lon="7.01601">
        <ele>568</ele>
        <time>2018-01-20T08:34:38Z</time>
      </trkpt>
      <trkpt lat="43.71062" lon="7.01591">
        <ele>570</ele>
        <time>2018-01-20T08:34:44Z</time>
      </trkpt>
      <trkpt lat="43.7106" lon="7.01581">
        <ele>576</ele>
        <time>2018-01-20T08:34:52Z</time>
      </trkpt>
      <trkpt lat="43.71057" lon="7.0157">
        <ele>574</ele>
        <time>2018-01-20T08:35:00Z</time>
      </trkpt>
      <trkpt lat="43.71057" lon="7.01559">
        <ele>573</ele>
        <time>2018-01-20T08:35:06Z</time>
      </trkpt>
      <trkpt lat="43.71056" lon="7.01549">
        <ele>573</ele>
        <time>2018-01-20T08:35:12Z</time>
      </trkpt>
      <trkpt lat="43.71056" lon="7.01537">
        <ele>573</ele>
        <time>2018-01-20T08:35:18Z</time>
      </trkpt>
      <trkpt lat="43.71057" lon="7.01526">
        <ele>575</ele>
        <time>2018-01-20T08:35:26Z</time>
      </trkpt>
      <trkpt lat="43.71059" lon="7.01514">
        <ele>578</ele>
        <time>2018-01-20T08:35:32Z</time>
      </trkpt>
      <trkpt lat="43.71061" lon="7.01503">
        <ele>580</ele>
        <time>2018-01-20T08:35:38Z</time>
      </trkpt>
      <trkpt lat="43.71059" lon="7.01492">
        <ele>580</ele>
        <time>2018-01-20T08:35:45Z</time>
      </trkpt>
      <trkpt lat="43.7106" lon="7.01482">
        <ele>579</ele>
        <time>2018-01-20T08:35:51Z</time>
      </trkpt>
      <trkpt lat="43.71062" lon="7.01472">
        <ele>578</ele>
        <time>2018-01-20T08:35:56Z</time>
      </trkpt>
      <trkpt lat="43.71064" lon="7.01461">
        <ele>577</ele>
        <time>2018-01-20T08:36:03Z</time>
      </trkpt>
      <trkpt lat="43.71067" lon="7.01451">
        <ele>578</ele>
        <time>2018-01-20T08:36:09Z</time>
      </trkpt>
      <trkpt lat="43.7107" lon="7.01441">
        <ele>580</ele>
        <time>2018-01-20T08:36:16Z</time>
      </trkpt>
      <trkpt lat="43.71073" lon="7.01431">
        <ele>583</ele>
        <time>2018-01-20T08:36:23Z</time>
      </trkpt>
      <trkpt lat="43.71076" lon="7.01421">
        <ele>588</ele>
        <time>2018-01-20T08:36:30Z</time>
      </trkpt>
      <trkpt lat="43.71079" lon="7.01412">
        <ele>588</ele>
        <time>2018-01-20T08:36:35Z</time>
      </trkpt>
      <trkpt lat="43.71081" lon="7.01402">
        <ele>582</ele>
        <time>2018-01-20T08:36:42Z</time>
      </trkpt>
      <trkpt lat="43.71086" lon="7.01393">
        <ele>606</ele>
        <time>2018-01-20T08:36:48Z</time>
      </trkpt>
      <trkpt lat="43.7109" lon="7.01385">
        <ele>607</ele>
        <time>2018-01-20T08:36:53Z</time>
      </trkpt>
      <trkpt lat="43.71095" lon="7.01375">
        <ele>608</ele>
        <time>2018-01-20T08:37:01Z</time>
      </trkpt>
      <trkpt lat="43.71098" lon="7.01366">
        <ele>607</ele>
        <time>2018-01-20T08:37:08Z</time>
      </trkpt>
      <trkpt lat="43.71101" lon="7.01355">
        <ele>605</ele>
        <time>2018-01-20T08:37:14Z</time>
      </trkpt>
      <trkpt lat="43.71106" lon="7.01347">
        <ele>605</ele>
        <time>2018-01-20T08:37:20Z</time>
      </trkpt>
      <trkpt lat="43.71108" lon="7.01338">
        <ele>605</ele>
        <time>2018-01-20T08:37:25Z</time>
      </trkpt>
      <trkpt lat="43.71113" lon="7.01327">
        <ele>600</ele>
        <time>2018-01-20T08:37:32Z</time>
      </trkpt>
      <trkpt lat="43.71116" lon="7.01318">
        <ele>601</ele>
        <time>2018-01-20T08:37:40Z</time>
      </trkpt>
      <trkpt lat="43.71119" lon="7.01307">
        <ele>602</ele>
        <time>2018-01-20T08:37:48Z</time>
      </trkpt>
      <trkpt lat="43.71121" lon="7.01298">
        <ele>602</ele>
        <time>2018-01-20T08:37:57Z</time>
      </trkpt>
      <trkpt lat="43.71124" lon="7.01286">
        <ele>602</ele>
        <time>2018-01-20T08:38:05Z</time>
      </trkpt>
      <trkpt lat="43.7113" lon="7.0128">
        <ele>603</ele>
        <time>2018-01-20T08:38:11Z</time>
      </trkpt>
      <trkpt lat="43.71135" lon="7.01272">
        <ele>604</ele>
        <time>2018-01-20T08:38:20Z</time>
      </trkpt>
      <trkpt lat="43.71142" lon="7.01265">
        <ele>607</ele>
        <time>2018-01-20T08:38:27Z</time>
      </trkpt>
      <trkpt lat="43.71148" lon="7.01259">
        <ele>609</ele>
        <time>2018-01-20T08:38:36Z</time>
      </trkpt>
      <trkpt lat="43.71156" lon="7.01255">
        <ele>613</ele>
        <time>2018-01-20T08:38:43Z</time>
      </trkpt>
      <trkpt lat="43.71161" lon="7.01248">
        <ele>615</ele>
        <time>2018-01-20T08:38:49Z</time>
      </trkpt>
      <trkpt lat="43.71167" lon="7.01239">
        <ele>626</ele>
        <time>2018-01-20T08:38:55Z</time>
      </trkpt>
      <trkpt lat="43.71171" lon="7.0123">
        <ele>630</ele>
        <time>2018-01-20T08:39:00Z</time>
      </trkpt>
      <trkpt lat="43.71172" lon="7.01219">
        <ele>631</ele>
        <time>2018-01-20T08:39:06Z</time>
      </trkpt>
      <trkpt lat="43.71172" lon="7.01208">
        <ele>632</ele>
        <time>2018-01-20T08:39:11Z</time>
      </trkpt>
      <trkpt lat="43.71171" lon="7.01197">
        <ele>630</ele>
        <time>2018-01-20T08:39:17Z</time>
      </trkpt>
      <trkpt lat="43.71168" lon="7.01186">
        <ele>627</ele>
        <time>2018-01-20T08:39:22Z</time>
      </trkpt>
      <trkpt lat="43.71162" lon="7.01176">
        <ele>610</ele>
        <time>2018-01-20T08:39:27Z</time>
      </trkpt>
      <trkpt lat="43.71158" lon="7.01166">
        <ele>608</ele>
        <time>2018-01-20T08:39:33Z</time>
      </trkpt>
      <trkpt lat="43.7116" lon="7.01156">
        <ele>604</ele>
        <time>2018-01-20T08:39:37Z</time>
      </trkpt>
      <trkpt lat="43.7116" lon="7.01146">
        <ele>598</ele>
        <time>2018-01-20T08:39:43Z</time>
      </trkpt>
      <trkpt lat="43.71163" lon="7.01135">
        <ele>595</ele>
        <time>2018-01-20T08:39:50Z</time>
      </trkpt>
      <trkpt lat="43.71171" lon="7.01138">
        <ele>620</ele>
        <time>2018-01-20T08:39:55Z</time>
      </trkpt>
      <trkpt lat="43.71172" lon="7.01148">
        <ele>620</ele>
        <time>2018-01-20T08:40:02Z</time>
      </trkpt>
      <trkpt lat="43.71177" lon="7.01158">
        <ele>620</ele>
        <time>2018-01-20T08:40:09Z</time>
      </trkpt>
      <trkpt lat="43.71181" lon="7.01166">
        <ele>621</ele>
        <time>2018-01-20T08:40:14Z</time>
      </trkpt>
      <trkpt lat="43.71186" lon="7.01173">
        <ele>630</ele>
        <time>2018-01-20T08:40:20Z</time>
      </trkpt>
      <trkpt lat="43.71194" lon="7.01179">
        <ele>633</ele>
        <time>2018-01-20T08:40:29Z</time>
      </trkpt>
      <trkpt lat="43.71202" lon="7.01182">
        <ele>636</ele>
        <time>2018-01-20T08:40:37Z</time>
      </trkpt>
      <trkpt lat="43.71208" lon="7.01187">
        <ele>638</ele>
        <time>2018-01-20T08:40:43Z</time>
      </trkpt>
      <trkpt lat="43.71212" lon="7.01197">
        <ele>639</ele>
        <time>2018-01-20T08:40:50Z</time>
      </trkpt>
      <trkpt lat="43.71211" lon="7.01209">
        <ele>639</ele>
        <time>2018-01-20T08:40:56Z</time>
      </trkpt>
      <trkpt lat="43.71209" lon="7.01219">
        <ele>639</ele>
        <time>2018-01-20T08:41:03Z</time>
      </trkpt>
      <trkpt lat="43.71208" lon="7.01229">
        <ele>639</ele>
        <time>2018-01-20T08:41:09Z</time>
      </trkpt>
      <trkpt lat="43.71206" lon="7.0124">
        <ele>639</ele>
        <time>2018-01-20T08:41:15Z</time>
      </trkpt>
      <trkpt lat="43.71204" lon="7.0125">
        <ele>638</ele>
        <time>2018-01-20T08:41:22Z</time>
      </trkpt>
      <trkpt lat="43.71204" lon="7.01261">
        <ele>644</ele>
        <time>2018-01-20T08:41:28Z</time>
      </trkpt>
      <trkpt lat="43.712" lon="7.0127">
        <ele>644</ele>
        <time>2018-01-20T08:41:34Z</time>
      </trkpt>
      <trkpt lat="43.71198" lon="7.0128">
        <ele>644</ele>
        <time>2018-01-20T08:41:40Z</time>
      </trkpt>
      <trkpt lat="43.71198" lon="7.01292">
        <ele>646</ele>
        <time>2018-01-20T08:41:45Z</time>
      </trkpt>
      <trkpt lat="43.71198" lon="7.01303">
        <ele>646</ele>
        <time>2018-01-20T08:41:53Z</time>
      </trkpt>
      <trkpt lat="43.71197" lon="7.01316">
        <ele>646</ele>
        <time>2018-01-20T08:42:00Z</time>
      </trkpt>
      <trkpt lat="43.71197" lon="7.01328">
        <ele>646</ele>
        <time>2018-01-20T08:42:06Z</time>
      </trkpt>
      <trkpt lat="43.71196" lon="7.01338">
        <ele>655</ele>
        <time>2018-01-20T08:42:13Z</time>
      </trkpt>
      <trkpt lat="43.71193" lon="7.01348">
        <ele>654</ele>
        <time>2018-01-20T08:42:19Z</time>
      </trkpt>
      <trkpt lat="43.71191" lon="7.01358">
        <ele>656</ele>
        <time>2018-01-20T08:42:24Z</time>
      </trkpt>
      <trkpt lat="43.71192" lon="7.01368">
        <ele>658</ele>
        <time>2018-01-20T08:42:30Z</time>
      </trkpt>
      <trkpt lat="43.712" lon="7.01364">
        <ele>659</ele>
        <time>2018-01-20T08:42:35Z</time>
      </trkpt>
      <trkpt lat="43.71203" lon="7.01354">
        <ele>659</ele>
        <time>2018-01-20T08:42:41Z</time>
      </trkpt>
      <trkpt lat="43.71207" lon="7.01346">
        <ele>660</ele>
        <time>2018-01-20T08:42:46Z</time>
      </trkpt>
      <trkpt lat="43.71209" lon="7.01335">
        <ele>660</ele>
        <time>2018-01-20T08:42:53Z</time>
      </trkpt>
      <trkpt lat="43.71213" lon="7.01325">
        <ele>653</ele>
        <time>2018-01-20T08:43:00Z</time>
      </trkpt>
      <trkpt lat="43.71217" lon="7.01315">
        <ele>653</ele>
        <time>2018-01-20T08:43:06Z</time>
      </trkpt>
      <trkpt lat="43.71221" lon="7.01306">
        <ele>654</ele>
        <time>2018-01-20T08:43:12Z</time>
      </trkpt>
      <trkpt lat="43.71225" lon="7.01297">
        <ele>653</ele>
        <time>2018-01-20T08:43:18Z</time>
      </trkpt>
      <trkpt lat="43.71228" lon="7.01288">
        <ele>653</ele>
        <time>2018-01-20T08:43:24Z</time>
      </trkpt>
      <trkpt lat="43.71232" lon="7.01278">
        <ele>653</ele>
        <time>2018-01-20T08:43:30Z</time>
      </trkpt>
      <trkpt lat="43.71239" lon="7.01274">
        <ele>655</ele>
        <time>2018-01-20T08:43:36Z</time>
      </trkpt>
      <trkpt lat="43.71246" lon="7.01271">
        <ele>656</ele>
        <time>2018-01-20T08:43:43Z</time>
      </trkpt>
      <trkpt lat="43.71253" lon="7.0127">
        <ele>678</ele>
        <time>2018-01-20T08:43:48Z</time>
      </trkpt>
      <trkpt lat="43.71262" lon="7.01267">
        <ele>679</ele>
        <time>2018-01-20T08:43:55Z</time>
      </trkpt>
      <trkpt lat="43.7127" lon="7.01267">
        <ele>682</ele>
        <time>2018-01-20T08:44:00Z</time>
      </trkpt>
      <trkpt lat="43.71278" lon="7.01265">
        <ele>684</ele>
        <time>2018-01-20T08:44:05Z</time>
      </trkpt>
      <trkpt lat="43.71285" lon="7.0126">
        <ele>686</ele>
        <time>2018-01-20T08:44:12Z</time>
      </trkpt>
      <trkpt lat="43.71291" lon="7.01253">
        <ele>688</ele>
        <time>2018-01-20T08:44:17Z</time>
      </trkpt>
      <trkpt lat="43.71295" lon="7.01243">
        <ele>682</ele>
        <time>2018-01-20T08:44:24Z</time>
      </trkpt>
      <trkpt lat="43.713" lon="7.01236">
        <ele>683</ele>
        <time>2018-01-20T08:44:30Z</time>
      </trkpt>
      <trkpt lat="43.71303" lon="7.01226">
        <ele>683</ele>
        <time>2018-01-20T08:44:38Z</time>
      </trkpt>
      <trkpt lat="43.71304" lon="7.01214">
        <ele>682</ele>
        <time>2018-01-20T08:44:45Z</time>
      </trkpt>
      <trkpt lat="43.71304" lon="7.01204">
        <ele>682</ele>
        <time>2018-01-20T08:44:52Z</time>
      </trkpt>
      <trkpt lat="43.71304" lon="7.01193">
        <ele>681</ele>
        <time>2018-01-20T08:44:57Z</time>
      </trkpt>
      <trkpt lat="43.71301" lon="7.01184">
        <ele>681</ele>
        <time>2018-01-20T08:45:03Z</time>
      </trkpt>
      <trkpt lat="43.71296" lon="7.01176">
        <ele>679</ele>
        <time>2018-01-20T08:45:09Z</time>
      </trkpt>
      <trkpt lat="43.71297" lon="7.01166">
        <ele>670</ele>
        <time>2018-01-20T08:45:14Z</time>
      </trkpt>
      <trkpt lat="43.71299" lon="7.01156">
        <ele>670</ele>
        <time>2018-01-20T08:45:21Z</time>
      </trkpt>
      <trkpt lat="43.71306" lon="7.01161">
        <ele>673</ele>
        <time>2018-01-20T08:49:51Z</time>
      </trkpt>
      <trkpt lat="43.71311" lon="7.0117">
        <ele>684</ele>
        <time>2018-01-20T08:49:56Z</time>
      </trkpt>
      <trkpt lat="43.71316" lon="7.0118">
        <ele>685</ele>
        <time>2018-01-20T08:50:02Z</time>
      </trkpt>
      <trkpt lat="43.71318" lon="7.01189">
        <ele>685</ele>
        <time>2018-01-20T08:50:07Z</time>
      </trkpt>
      <trkpt lat="43.71322" lon="7.01199">
        <ele>685</ele>
        <time>2018-01-20T08:50:12Z</time>
      </trkpt>
      <trkpt lat="43.71325" lon="7.01209">
        <ele>686</ele>
        <time>2018-01-20T08:50:18Z</time>
      </trkpt>
      <trkpt lat="43.71328" lon="7.01218">
        <ele>687</ele>
        <time>2018-01-20T08:50:24Z</time>
      </trkpt>
      <trkpt lat="43.7133" lon="7.01229">
        <ele>690</ele>
        <time>2018-01-20T08:50:30Z</time>
      </trkpt>
      <trkpt lat="43.7133" lon="7.0124">
        <ele>695</ele>
        <time>2018-01-20T08:50:38Z</time>
      </trkpt>
      <trkpt lat="43.71332" lon="7.0125">
        <ele>702</ele>
        <time>2018-01-20T08:50:43Z</time>
      </trkpt>
      <trkpt lat="43.71333" lon="7.0126">
        <ele>700</ele>
        <time>2018-01-20T08:50:48Z</time>
      </trkpt>
      <trkpt lat="43.71332" lon="7.0127">
        <ele>698</ele>
        <time>2018-01-20T08:50:53Z</time>
      </trkpt>
      <trkpt lat="43.7133" lon="7.0128">
        <ele>698</ele>
        <time>2018-01-20T08:50:58Z</time>
      </trkpt>
      <trkpt lat="43.71325" lon="7.01289">
        <ele>698</ele>
        <time>2018-01-20T08:51:04Z</time>
      </trkpt>
      <trkpt lat="43.7132" lon="7.01297">
        <ele>698</ele>
        <time>2018-01-20T08:51:10Z</time>
      </trkpt>
      <trkpt lat="43.71313" lon="7.013">
        <ele>697</ele>
        <time>2018-01-20T08:51:17Z</time>
      </trkpt>
      <trkpt lat="43.71307" lon="7.01306">
        <ele>697</ele>
        <time>2018-01-20T08:51:23Z</time>
      </trkpt>
      <trkpt lat="43.71302" lon="7.01315">
        <ele>697</ele>
        <time>2018-01-20T08:51:29Z</time>
      </trkpt>
      <trkpt lat="43.71295" lon="7.0132">
        <ele>695</ele>
        <time>2018-01-20T08:51:35Z</time>
      </trkpt>
      <trkpt lat="43.71293" lon="7.01342">
        <ele>704</ele>
        <time>2018-01-20T08:51:45Z</time>
      </trkpt>
      <trkpt lat="43.71295" lon="7.01352">
        <ele>705</ele>
        <time>2018-01-20T08:51:51Z</time>
      </trkpt>
      <trkpt lat="43.71295" lon="7.01362">
        <ele>705</ele>
        <time>2018-01-20T08:51:57Z</time>
      </trkpt>
      <trkpt lat="43.71293" lon="7.01373">
        <ele>705</ele>
        <time>2018-01-20T08:52:02Z</time>
      </trkpt>
      <trkpt lat="43.71291" lon="7.01384">
        <ele>705</ele>
        <time>2018-01-20T08:52:08Z</time>
      </trkpt>
      <trkpt lat="43.7129" lon="7.01394">
        <ele>706</ele>
        <time>2018-01-20T08:52:14Z</time>
      </trkpt>
      <trkpt lat="43.71294" lon="7.01404">
        <ele>707</ele>
        <time>2018-01-20T08:52:19Z</time>
      </trkpt>
      <trkpt lat="43.713" lon="7.01397">
        <ele>709</ele>
        <time>2018-01-20T08:52:25Z</time>
      </trkpt>
      <trkpt lat="43.71304" lon="7.01388">
        <ele>709</ele>
        <time>2018-01-20T08:52:32Z</time>
      </trkpt>
      <trkpt lat="43.71308" lon="7.01378">
        <ele>709</ele>
        <time>2018-01-20T08:52:38Z</time>
      </trkpt>
      <trkpt lat="43.71312" lon="7.01369">
        <ele>709</ele>
        <time>2018-01-20T08:52:44Z</time>
      </trkpt>
      <trkpt lat="43.71316" lon="7.0136">
        <ele>710</ele>
        <time>2018-01-20T08:52:50Z</time>
      </trkpt>
      <trkpt lat="43.7132" lon="7.0135">
        <ele>711</ele>
        <time>2018-01-20T08:52:56Z</time>
      </trkpt>
      <trkpt lat="43.71324" lon="7.0134">
        <ele>714</ele>
        <time>2018-01-20T08:53:02Z</time>
      </trkpt>
      <trkpt lat="43.7133" lon="7.01333">
        <ele>716</ele>
        <time>2018-01-20T08:53:09Z</time>
      </trkpt>
      <trkpt lat="43.71336" lon="7.01328">
        <ele>722</ele>
        <time>2018-01-20T08:53:15Z</time>
      </trkpt>
      <trkpt lat="43.71343" lon="7.01323">
        <ele>725</ele>
        <time>2018-01-20T08:53:22Z</time>
      </trkpt>
      <trkpt lat="43.71349" lon="7.01316">
        <ele>726</ele>
        <time>2018-01-20T08:53:28Z</time>
      </trkpt>
      <trkpt lat="43.71355" lon="7.01308">
        <ele>728</ele>
        <time>2018-01-20T08:53:35Z</time>
      </trkpt>
      <trkpt lat="43.7136" lon="7.013">
        <ele>728</ele>
        <time>2018-01-20T08:53:41Z</time>
      </trkpt>
      <trkpt lat="43.71364" lon="7.01293">
        <ele>729</ele>
        <time>2018-01-20T08:53:47Z</time>
      </trkpt>
      <trkpt lat="43.71368" lon="7.01283">
        <ele>729</ele>
        <time>2018-01-20T08:53:54Z</time>
      </trkpt>
      <trkpt lat="43.71369" lon="7.01273">
        <ele>728</ele>
        <time>2018-01-20T08:54:01Z</time>
      </trkpt>
      <trkpt lat="43.71371" lon="7.01262">
        <ele>728</ele>
        <time>2018-01-20T08:54:08Z</time>
      </trkpt>
      <trkpt lat="43.71373" lon="7.01252">
        <ele>728</ele>
        <time>2018-01-20T08:54:14Z</time>
      </trkpt>
      <trkpt lat="43.71376" lon="7.01242">
        <ele>722</ele>
        <time>2018-01-20T08:54:20Z</time>
      </trkpt>
      <trkpt lat="43.71379" lon="7.01232">
        <ele>723</ele>
        <time>2018-01-20T08:54:27Z</time>
      </trkpt>
      <trkpt lat="43.71382" lon="7.01222">
        <ele>723</ele>
        <time>2018-01-20T08:54:35Z</time>
      </trkpt>
      <trkpt lat="43.71385" lon="7.01212">
        <ele>723</ele>
        <time>2018-01-20T08:54:42Z</time>
      </trkpt>
      <trkpt lat="43.71387" lon="7.01201">
        <ele>723</ele>
        <time>2018-01-20T08:54:50Z</time>
      </trkpt>
      <trkpt lat="43.71392" lon="7.01192">
        <ele>724</ele>
        <time>2018-01-20T08:54:57Z</time>
      </trkpt>
      <trkpt lat="43.71396" lon="7.01184">
        <ele>725</ele>
        <time>2018-01-20T08:55:03Z</time>
      </trkpt>
      <trkpt lat="43.71403" lon="7.01179">
        <ele>727</ele>
        <time>2018-01-20T08:55:10Z</time>
      </trkpt>
      <trkpt lat="43.7141" lon="7.01175">
        <ele>730</ele>
        <time>2018-01-20T08:55:17Z</time>
      </trkpt>
      <trkpt lat="43.71419" lon="7.01177">
        <ele>740</ele>
        <time>2018-01-20T08:55:24Z</time>
      </trkpt>
      <trkpt lat="43.71426" lon="7.0118">
        <ele>743</ele>
        <time>2018-01-20T08:55:29Z</time>
      </trkpt>
      <trkpt lat="43.71433" lon="7.01184">
        <ele>745</ele>
        <time>2018-01-20T08:55:35Z</time>
      </trkpt>
      <trkpt lat="43.7144" lon="7.01186">
        <ele>747</ele>
        <time>2018-01-20T08:55:41Z</time>
      </trkpt>
      <trkpt lat="43.71448" lon="7.01187">
        <ele>748</ele>
        <time>2018-01-20T08:55:50Z</time>
      </trkpt>
      <trkpt lat="43.71456" lon="7.01186">
        <ele>749</ele>
        <time>2018-01-20T08:55:57Z</time>
      </trkpt>
      <trkpt lat="43.71463" lon="7.01181">
        <ele>750</ele>
        <time>2018-01-20T08:57:09Z</time>
      </trkpt>
      <trkpt lat="43.71471" lon="7.01177">
        <ele>751</ele>
        <time>2018-01-20T08:57:15Z</time>
      </trkpt>
      <trkpt lat="43.71479" lon="7.01174">
        <ele>752</ele>
        <time>2018-01-20T08:57:21Z</time>
      </trkpt>
      <trkpt lat="43.71487" lon="7.01171">
        <ele>753</ele>
        <time>2018-01-20T08:57:27Z</time>
      </trkpt>
      <trkpt lat="43.71496" lon="7.01171">
        <ele>754</ele>
        <time>2018-01-20T08:57:35Z</time>
      </trkpt>
      <trkpt lat="43.71503" lon="7.01168">
        <ele>757</ele>
        <time>2018-01-20T08:57:42Z</time>
      </trkpt>
      <trkpt lat="43.71512" lon="7.01165">
        <ele>753</ele>
        <time>2018-01-20T08:57:50Z</time>
      </trkpt>
      <trkpt lat="43.71519" lon="7.01164">
        <ele>752</ele>
        <time>2018-01-20T08:57:57Z</time>
      </trkpt>
      <trkpt lat="43.71526" lon="7.01168">
        <ele>763</ele>
        <time>2018-01-20T08:58:03Z</time>
      </trkpt>
      <trkpt lat="43.71533" lon="7.01175">
        <ele>765</ele>
        <time>2018-01-20T08:58:09Z</time>
      </trkpt>
      <trkpt lat="43.7154" lon="7.01181">
        <ele>766</ele>
        <time>2018-01-20T08:58:16Z</time>
      </trkpt>
      <trkpt lat="43.71546" lon="7.0119">
        <ele>767</ele>
        <time>2018-01-20T08:58:22Z</time>
      </trkpt>
      <trkpt lat="43.71552" lon="7.01197">
        <ele>768</ele>
        <time>2018-01-20T08:58:30Z</time>
      </trkpt>
      <trkpt lat="43.71559" lon="7.01201">
        <ele>769</ele>
        <time>2018-01-20T08:58:36Z</time>
      </trkpt>
      <trkpt lat="43.71567" lon="7.01202">
        <ele>769</ele>
        <time>2018-01-20T08:58:43Z</time>
      </trkpt>
      <trkpt lat="43.71575" lon="7.01203">
        <ele>770</ele>
        <time>2018-01-20T08:58:50Z</time>
      </trkpt>
      <trkpt lat="43.71582" lon="7.01203">
        <ele>770</ele>
        <time>2018-01-20T08:58:57Z</time>
      </trkpt>
      <trkpt lat="43.71589" lon="7.01201">
        <ele>785</ele>
        <time>2018-01-20T08:59:03Z</time>
      </trkpt>
      <trkpt lat="43.71597" lon="7.01197">
        <ele>786</ele>
        <time>2018-01-20T08:59:10Z</time>
      </trkpt>
      <trkpt lat="43.71605" lon="7.012">
        <ele>787</ele>
        <time>2018-01-20T08:59:17Z</time>
      </trkpt>
      <trkpt lat="43.71609" lon="7.01208">
        <ele>789</ele>
        <time>2018-01-20T08:59:22Z</time>
      </trkpt>
      <trkpt lat="43.71611" lon="7.01219">
        <ele>790</ele>
        <time>2018-01-20T08:59:29Z</time>
      </trkpt>
      <trkpt lat="43.71613" lon="7.01229">
        <ele>790</ele>
        <time>2018-01-20T08:59:36Z</time>
      </trkpt>
      <trkpt lat="43.71616" lon="7.01239">
        <ele>791</ele>
        <time>2018-01-20T08:59:43Z</time>
      </trkpt>
      <trkpt lat="43.71617" lon="7.01249">
        <ele>792</ele>
        <time>2018-01-20T08:59:50Z</time>
      </trkpt>
      <trkpt lat="43.71618" lon="7.0126">
        <ele>796</ele>
        <time>2018-01-20T08:59:56Z</time>
      </trkpt>
      <trkpt lat="43.7162" lon="7.01271">
        <ele>797</ele>
        <time>2018-01-20T09:00:02Z</time>
      </trkpt>
      <trkpt lat="43.71621" lon="7.01282">
        <ele>798</ele>
        <time>2018-01-20T09:00:09Z</time>
      </trkpt>
      <trkpt lat="43.71622" lon="7.01292">
        <ele>798</ele>
        <time>2018-01-20T09:00:14Z</time>
      </trkpt>
      <trkpt lat="43.71626" lon="7.01319">
        <ele>800</ele>
        <time>2018-01-20T09:00:30Z</time>
      </trkpt>
      <trkpt lat="43.71629" lon="7.01331">
        <ele>801</ele>
        <time>2018-01-20T09:00:35Z</time>
      </trkpt>
      <trkpt lat="43.7163" lon="7.0134">
        <ele>802</ele>
        <time>2018-01-20T09:00:40Z</time>
      </trkpt>
      <trkpt lat="43.7163" lon="7.01352">
        <ele>802</ele>
        <time>2018-01-20T09:00:46Z</time>
      </trkpt>
      <trkpt lat="43.7163" lon="7.01362">
        <ele>802</ele>
        <time>2018-01-20T09:00:52Z</time>
      </trkpt>
      <trkpt lat="43.71632" lon="7.01372">
        <ele>802</ele>
        <time>2018-01-20T09:00:58Z</time>
      </trkpt>
      <trkpt lat="43.7163" lon="7.01383">
        <ele>802</ele>
        <time>2018-01-20T09:01:04Z</time>
      </trkpt>
      <trkpt lat="43.7163" lon="7.01393">
        <ele>802</ele>
        <time>2018-01-20T09:01:10Z</time>
      </trkpt>
      <trkpt lat="43.71632" lon="7.01403">
        <ele>802</ele>
        <time>2018-01-20T09:01:16Z</time>
      </trkpt>
      <trkpt lat="43.71636" lon="7.01413">
        <ele>803</ele>
        <time>2018-01-20T09:01:22Z</time>
      </trkpt>
      <trkpt lat="43.71641" lon="7.01422">
        <ele>803</ele>
        <time>2018-01-20T09:01:28Z</time>
      </trkpt>
      <trkpt lat="43.71644" lon="7.01432">
        <ele>803</ele>
        <time>2018-01-20T09:01:33Z</time>
      </trkpt>
      <trkpt lat="43.71648" lon="7.0144">
        <ele>803</ele>
        <time>2018-01-20T09:01:38Z</time>
      </trkpt>
      <trkpt lat="43.71654" lon="7.01449">
        <ele>803</ele>
        <time>2018-01-20T09:01:43Z</time>
      </trkpt>
      <trkpt lat="43.71658" lon="7.01459">
        <ele>802</ele>
        <time>2018-01-20T09:01:49Z</time>
      </trkpt>
      <trkpt lat="43.71665" lon="7.01465">
        <ele>803</ele>
        <time>2018-01-20T09:01:54Z</time>
      </trkpt>
      <trkpt lat="43.71669" lon="7.01474">
        <ele>820</ele>
        <time>2018-01-20T09:01:59Z</time>
      </trkpt>
      <trkpt lat="43.71675" lon="7.01483">
        <ele>818</ele>
        <time>2018-01-20T09:02:05Z</time>
      </trkpt>
      <trkpt lat="43.71678" lon="7.01493">
        <ele>816</ele>
        <time>2018-01-20T09:02:10Z</time>
      </trkpt>
      <trkpt lat="43.71682" lon="7.01504">
        <ele>814</ele>
        <time>2018-01-20T09:02:16Z</time>
      </trkpt>
      <trkpt lat="43.7168" lon="7.01515">
        <ele>815</ele>
        <time>2018-01-20T09:02:21Z</time>
      </trkpt>
      <trkpt lat="43.71685" lon="7.01524">
        <ele>816</ele>
        <time>2018-01-20T09:03:38Z</time>
      </trkpt>
      <trkpt lat="43.71691" lon="7.01528">
        <ele>817</ele>
        <time>2018-01-20T09:03:44Z</time>
      </trkpt>
      <trkpt lat="43.71696" lon="7.01538">
        <ele>818</ele>
        <time>2018-01-20T09:03:52Z</time>
      </trkpt>
      <trkpt lat="43.71704" lon="7.01542">
        <ele>819</ele>
        <time>2018-01-20T09:03:58Z</time>
      </trkpt>
      <trkpt lat="43.71711" lon="7.01548">
        <ele>820</ele>
        <time>2018-01-20T09:04:04Z</time>
      </trkpt>
      <trkpt lat="43.71717" lon="7.01554">
        <ele>820</ele>
        <time>2018-01-20T09:04:11Z</time>
      </trkpt>
      <trkpt lat="43.71723" lon="7.01558">
        <ele>821</ele>
        <time>2018-01-20T09:04:20Z</time>
      </trkpt>
      <trkpt lat="43.71732" lon="7.01559">
        <ele>822</ele>
        <time>2018-01-20T09:04:26Z</time>
      </trkpt>
      <trkpt lat="43.71738" lon="7.01565">
        <ele>823</ele>
        <time>2018-01-20T09:04:33Z</time>
      </trkpt>
      <trkpt lat="43.71745" lon="7.01567">
        <ele>824</ele>
        <time>2018-01-20T09:04:39Z</time>
      </trkpt>
      <trkpt lat="43.71752" lon="7.01574">
        <ele>831</ele>
        <time>2018-01-20T09:04:49Z</time>
      </trkpt>
      <trkpt lat="43.71759" lon="7.01577">
        <ele>831</ele>
        <time>2018-01-20T09:04:56Z</time>
      </trkpt>
      <trkpt lat="43.71767" lon="7.01576">
        <ele>833</ele>
        <time>2018-01-20T09:05:01Z</time>
      </trkpt>
      <trkpt lat="43.71775" lon="7.01578">
        <ele>835</ele>
        <time>2018-01-20T09:05:08Z</time>
      </trkpt>
      <trkpt lat="43.71782" lon="7.01583">
        <ele>836</ele>
        <time>2018-01-20T09:05:15Z</time>
      </trkpt>
      <trkpt lat="43.71789" lon="7.01588">
        <ele>832</ele>
        <time>2018-01-20T09:05:23Z</time>
      </trkpt>
      <trkpt lat="43.71797" lon="7.01588">
        <ele>833</ele>
        <time>2018-01-20T09:05:30Z</time>
      </trkpt>
      <trkpt lat="43.71805" lon="7.01588">
        <ele>834</ele>
        <time>2018-01-20T09:05:37Z</time>
      </trkpt>
      <trkpt lat="43.71812" lon="7.01594">
        <ele>835</ele>
        <time>2018-01-20T09:05:44Z</time>
      </trkpt>
      <trkpt lat="43.71819" lon="7.01596">
        <ele>836</ele>
        <time>2018-01-20T09:05:51Z</time>
      </trkpt>
      <trkpt lat="43.71825" lon="7.01602">
        <ele>836</ele>
        <time>2018-01-20T09:05:59Z</time>
      </trkpt>
      <trkpt lat="43.71832" lon="7.01606">
        <ele>836</ele>
        <time>2018-01-20T09:06:06Z</time>
      </trkpt>
      <trkpt lat="43.7184" lon="7.0161">
        <ele>843</ele>
        <time>2018-01-20T09:06:13Z</time>
      </trkpt>
      <trkpt lat="43.71846" lon="7.01617">
        <ele>843</ele>
        <time>2018-01-20T09:06:20Z</time>
      </trkpt>
      <trkpt lat="43.71853" lon="7.01622">
        <ele>843</ele>
        <time>2018-01-20T09:06:26Z</time>
      </trkpt>
      <trkpt lat="43.7186" lon="7.01627">
        <ele>843</ele>
        <time>2018-01-20T09:06:32Z</time>
      </trkpt>
      <trkpt lat="43.71867" lon="7.01632">
        <ele>844</ele>
        <time>2018-01-20T09:06:40Z</time>
      </trkpt>
      <trkpt lat="43.71874" lon="7.01637">
        <ele>844</ele>
        <time>2018-01-20T09:06:47Z</time>
      </trkpt>
      <trkpt lat="43.71881" lon="7.01643">
        <ele>844</ele>
        <time>2018-01-20T09:06:53Z</time>
      </trkpt>
      <trkpt lat="43.71888" lon="7.01649">
        <ele>845</ele>
        <time>2018-01-20T09:06:59Z</time>
      </trkpt>
      <trkpt lat="43.71896" lon="7.01653">
        <ele>845</ele>
        <time>2018-01-20T09:07:05Z</time>
      </trkpt>
      <trkpt lat="43.71903" lon="7.01658">
        <ele>846</ele>
        <time>2018-01-20T09:07:12Z</time>
      </trkpt>
      <trkpt lat="43.71908" lon="7.01667">
        <ele>845</ele>
        <time>2018-01-20T09:07:18Z</time>
      </trkpt>
      <trkpt lat="43.71907" lon="7.01679">
        <ele>844</ele>
        <time>2018-01-20T09:07:23Z</time>
      </trkpt>
      <trkpt lat="43.7191" lon="7.01701">
        <ele>842</ele>
        <time>2018-01-20T09:07:30Z</time>
      </trkpt>
      <trkpt lat="43.71911" lon="7.01711">
        <ele>842</ele>
        <time>2018-01-20T09:07:36Z</time>
      </trkpt>
      <trkpt lat="43.71913" lon="7.01721">
        <ele>842</ele>
        <time>2018-01-20T09:08:22Z</time>
      </trkpt>
      <trkpt lat="43.71908" lon="7.01714">
        <ele>842</ele>
        <time>2018-01-20T09:09:28Z</time>
      </trkpt>
      <trkpt lat="43.71907" lon="7.01704">
        <ele>842</ele>
        <time>2018-01-20T09:09:39Z</time>
      </trkpt>
      <trkpt lat="43.71907" lon="7.01694">
        <ele>842</ele>
        <time>2018-01-20T09:09:52Z</time>
      </trkpt>
      <trkpt lat="43.71907" lon="7.01683">
        <ele>843</ele>
        <time>2018-01-20T09:09:57Z</time>
      </trkpt>
      <trkpt lat="43.71915" lon="7.01677">
        <ele>845</ele>
        <time>2018-01-20T09:10:03Z</time>
      </trkpt>
      <trkpt lat="43.71922" lon="7.01674">
        <ele>849</ele>
        <time>2018-01-20T09:10:09Z</time>
      </trkpt>
      <trkpt lat="43.7193" lon="7.0167">
        <ele>850</ele>
        <time>2018-01-20T09:10:15Z</time>
      </trkpt>
      <trkpt lat="43.7193" lon="7.01658">
        <ele>853</ele>
        <time>2018-01-20T09:10:21Z</time>
      </trkpt>
      <trkpt lat="43.71932" lon="7.01648">
        <ele>854</ele>
        <time>2018-01-20T09:10:26Z</time>
      </trkpt>
      <trkpt lat="43.71935" lon="7.01626">
        <ele>856</ele>
        <time>2018-01-20T09:10:34Z</time>
      </trkpt>
      <trkpt lat="43.71934" lon="7.01614">
        <ele>857</ele>
        <time>2018-01-20T09:10:39Z</time>
      </trkpt>
      <trkpt lat="43.71931" lon="7.01603">
        <ele>857</ele>
        <time>2018-01-20T09:10:44Z</time>
      </trkpt>
      <trkpt lat="43.71929" lon="7.01593">
        <ele>857</ele>
        <time>2018-01-20T09:10:50Z</time>
      </trkpt>
      <trkpt lat="43.71928" lon="7.01581">
        <ele>858</ele>
        <time>2018-01-20T09:10:55Z</time>
      </trkpt>
      <trkpt lat="43.71926" lon="7.01569">
        <ele>859</ele>
        <time>2018-01-20T09:11:00Z</time>
      </trkpt>
      <trkpt lat="43.71923" lon="7.01557">
        <ele>860</ele>
        <time>2018-01-20T09:11:04Z</time>
      </trkpt>
      <trkpt lat="43.71923" lon="7.01545">
        <ele>861</ele>
        <time>2018-01-20T09:11:09Z</time>
      </trkpt>
      <trkpt lat="43.71924" lon="7.01524">
        <ele>862</ele>
        <time>2018-01-20T09:11:19Z</time>
      </trkpt>
      <trkpt lat="43.7193" lon="7.01519">
        <ele>862</ele>
        <time>2018-01-20T09:11:25Z</time>
      </trkpt>
      <trkpt lat="43.71946" lon="7.01517">
        <ele>863</ele>
        <time>2018-01-20T09:11:34Z</time>
      </trkpt>
      <trkpt lat="43.71954" lon="7.01517">
        <ele>863</ele>
        <time>2018-01-20T09:11:40Z</time>
      </trkpt>
      <trkpt lat="43.7196" lon="7.01512">
        <ele>863</ele>
        <time>2018-01-20T09:11:45Z</time>
      </trkpt>
      <trkpt lat="43.71968" lon="7.01495">
        <ele>865</ele>
        <time>2018-01-20T09:11:54Z</time>
      </trkpt>
      <trkpt lat="43.71971" lon="7.01482">
        <ele>865</ele>
        <time>2018-01-20T09:11:59Z</time>
      </trkpt>
      <trkpt lat="43.71978" lon="7.01464">
        <ele>866</ele>
        <time>2018-01-20T09:12:07Z</time>
      </trkpt>
      <trkpt lat="43.71984" lon="7.01441">
        <ele>866</ele>
        <time>2018-01-20T09:12:15Z</time>
      </trkpt>
      <trkpt lat="43.7199" lon="7.01416">
        <ele>867</ele>
        <time>2018-01-20T09:12:23Z</time>
      </trkpt>
      <trkpt lat="43.71992" lon="7.01394">
        <ele>866</ele>
        <time>2018-01-20T09:12:30Z</time>
      </trkpt>
      <trkpt lat="43.71989" lon="7.01373">
        <ele>866</ele>
        <time>2018-01-20T09:12:36Z</time>
      </trkpt>
      <trkpt lat="43.71984" lon="7.01351">
        <ele>866</ele>
        <time>2018-01-20T09:12:43Z</time>
      </trkpt>
      <trkpt lat="43.71981" lon="7.01329">
        <ele>867</ele>
        <time>2018-01-20T09:12:49Z</time>
      </trkpt>
      <trkpt lat="43.71971" lon="7.01293">
        <ele>868</ele>
        <time>2018-01-20T09:13:01Z</time>
      </trkpt>
      <trkpt lat="43.7197" lon="7.01282">
        <ele>868</ele>
        <time>2018-01-20T09:13:04Z</time>
      </trkpt>
      <trkpt lat="43.7197" lon="7.01272">
        <ele>868</ele>
        <time>2018-01-20T09:13:07Z</time>
      </trkpt>
      <trkpt lat="43.71975" lon="7.01253">
        <ele>869</ele>
        <time>2018-01-20T09:13:13Z</time>
      </trkpt>
      <trkpt lat="43.71984" lon="7.01234">
        <ele>871</ele>
        <time>2018-01-20T09:13:20Z</time>
      </trkpt>
      <trkpt lat="43.71991" lon="7.01216">
        <ele>872</ele>
        <time>2018-01-20T09:13:26Z</time>
      </trkpt>
      <trkpt lat="43.71998" lon="7.01193">
        <ele>873</ele>
        <time>2018-01-20T09:13:33Z</time>
      </trkpt>
      <trkpt lat="43.72003" lon="7.01172">
        <ele>874</ele>
        <time>2018-01-20T09:13:40Z</time>
      </trkpt>
      <trkpt lat="43.72005" lon="7.01148">
        <ele>873</ele>
        <time>2018-01-20T09:13:47Z</time>
      </trkpt>
      <trkpt lat="43.72012" lon="7.01125">
        <ele>873</ele>
        <time>2018-01-20T09:13:53Z</time>
      </trkpt>
      <trkpt lat="43.72018" lon="7.01105">
        <ele>872</ele>
        <time>2018-01-20T09:13:59Z</time>
      </trkpt>
      <trkpt lat="43.72024" lon="7.01082">
        <ele>868</ele>
        <time>2018-01-20T09:14:06Z</time>
      </trkpt>
      <trkpt lat="43.72039" lon="7.01074">
        <ele>867</ele>
        <time>2018-01-20T09:14:14Z</time>
      </trkpt>
      <trkpt lat="43.72049" lon="7.01087">
        <ele>872</ele>
        <time>2018-01-20T09:14:22Z</time>
      </trkpt>
      <trkpt lat="43.72055" lon="7.01111">
        <ele>872</ele>
        <time>2018-01-20T09:14:30Z</time>
      </trkpt>
      <trkpt lat="43.7206" lon="7.01132">
        <ele>873</ele>
        <time>2018-01-20T09:14:38Z</time>
      </trkpt>
      <trkpt lat="43.72068" lon="7.01151">
        <ele>874</ele>
        <time>2018-01-20T09:14:47Z</time>
      </trkpt>
      <trkpt lat="43.72079" lon="7.01167">
        <ele>875</ele>
        <time>2018-01-20T09:14:55Z</time>
      </trkpt>
      <trkpt lat="43.72089" lon="7.01182">
        <ele>877</ele>
        <time>2018-01-20T09:15:03Z</time>
      </trkpt>
      <trkpt lat="43.72102" lon="7.01196">
        <ele>878</ele>
        <time>2018-01-20T09:15:11Z</time>
      </trkpt>
      <trkpt lat="43.72113" lon="7.01208">
        <ele>879</ele>
        <time>2018-01-20T09:15:20Z</time>
      </trkpt>
      <trkpt lat="43.72126" lon="7.0122">
        <ele>880</ele>
        <time>2018-01-20T09:15:29Z</time>
      </trkpt>
      <trkpt lat="43.72134" lon="7.01224">
        <ele>880</ele>
        <time>2018-01-20T09:15:35Z</time>
      </trkpt>
      <trkpt lat="43.72142" lon="7.01224">
        <ele>881</ele>
        <time>2018-01-20T09:15:40Z</time>
      </trkpt>
      <trkpt lat="43.7215" lon="7.01222">
        <ele>881</ele>
        <time>2018-01-20T09:15:45Z</time>
      </trkpt>
      <trkpt lat="43.72168" lon="7.01218">
        <ele>883</ele>
        <time>2018-01-20T09:15:53Z</time>
      </trkpt>
      <trkpt lat="43.72183" lon="7.01216">
        <ele>883</ele>
        <time>2018-01-20T09:15:59Z</time>
      </trkpt>
      <trkpt lat="43.72201" lon="7.01212">
        <ele>882</ele>
        <time>2018-01-20T09:16:07Z</time>
      </trkpt>
      <trkpt lat="43.72217" lon="7.01219">
        <ele>883</ele>
        <time>2018-01-20T09:16:14Z</time>
      </trkpt>
      <trkpt lat="43.72224" lon="7.01229">
        <ele>883</ele>
        <time>2018-01-20T09:16:18Z</time>
      </trkpt>
      <trkpt lat="43.72223" lon="7.01252">
        <ele>889</ele>
        <time>2018-01-20T09:16:25Z</time>
      </trkpt>
      <trkpt lat="43.7222" lon="7.01276">
        <ele>890</ele>
        <time>2018-01-20T09:16:34Z</time>
      </trkpt>
      <trkpt lat="43.7222" lon="7.01288">
        <ele>890</ele>
        <time>2018-01-20T09:16:39Z</time>
      </trkpt>
      <trkpt lat="43.72218" lon="7.013">
        <ele>891</ele>
        <time>2018-01-20T09:16:44Z</time>
      </trkpt>
      <trkpt lat="43.72216" lon="7.01321">
        <ele>892</ele>
        <time>2018-01-20T09:16:52Z</time>
      </trkpt>
      <trkpt lat="43.72213" lon="7.01344">
        <ele>896</ele>
        <time>2018-01-20T09:17:01Z</time>
      </trkpt>
      <trkpt lat="43.72213" lon="7.01355">
        <ele>896</ele>
        <time>2018-01-20T09:17:06Z</time>
      </trkpt>
      <trkpt lat="43.72213" lon="7.01378">
        <ele>897</ele>
        <time>2018-01-20T09:17:14Z</time>
      </trkpt>
      <trkpt lat="43.72213" lon="7.0139">
        <ele>897</ele>
        <time>2018-01-20T09:17:19Z</time>
      </trkpt>
      <trkpt lat="43.72213" lon="7.0141">
        <ele>898</ele>
        <time>2018-01-20T09:17:27Z</time>
      </trkpt>
      <trkpt lat="43.72215" lon="7.01422">
        <ele>902</ele>
        <time>2018-01-20T09:17:32Z</time>
      </trkpt>
      <trkpt lat="43.72218" lon="7.01443">
        <ele>903</ele>
        <time>2018-01-20T09:17:41Z</time>
      </trkpt>
      <trkpt lat="43.72219" lon="7.01454">
        <ele>903</ele>
        <time>2018-01-20T09:17:46Z</time>
      </trkpt>
      <trkpt lat="43.72221" lon="7.01465">
        <ele>904</ele>
        <time>2018-01-20T09:17:51Z</time>
      </trkpt>
      <trkpt lat="43.72228" lon="7.01467">
        <ele>905</ele>
        <time>2018-01-20T09:17:58Z</time>
      </trkpt>
      <trkpt lat="43.72234" lon="7.01458">
        <ele>904</ele>
        <time>2018-01-20T09:18:04Z</time>
      </trkpt>
      <trkpt lat="43.72237" lon="7.01448">
        <ele>904</ele>
        <time>2018-01-20T09:18:10Z</time>
      </trkpt>
      <trkpt lat="43.72241" lon="7.01439">
        <ele>905</ele>
        <time>2018-01-20T09:18:16Z</time>
      </trkpt>
      <trkpt lat="43.72247" lon="7.01431">
        <ele>906</ele>
        <time>2018-01-20T09:18:23Z</time>
      </trkpt>
      <trkpt lat="43.72253" lon="7.01425">
        <ele>911</ele>
        <time>2018-01-20T09:18:28Z</time>
      </trkpt>
      <trkpt lat="43.72261" lon="7.0142">
        <ele>912</ele>
        <time>2018-01-20T09:18:34Z</time>
      </trkpt>
      <trkpt lat="43.72275" lon="7.01412">
        <ele>909</ele>
        <time>2018-01-20T09:18:43Z</time>
      </trkpt>
      <trkpt lat="43.72284" lon="7.01409">
        <ele>909</ele>
        <time>2018-01-20T09:18:48Z</time>
      </trkpt>
      <trkpt lat="43.72292" lon="7.01406">
        <ele>910</ele>
        <time>2018-01-20T09:18:53Z</time>
      </trkpt>
      <trkpt lat="43.723" lon="7.01404">
        <ele>911</ele>
        <time>2018-01-20T09:18:58Z</time>
      </trkpt>
      <trkpt lat="43.72307" lon="7.01404">
        <ele>912</ele>
        <time>2018-01-20T09:19:03Z</time>
      </trkpt>
      <trkpt lat="43.72316" lon="7.01403">
        <ele>913</ele>
        <time>2018-01-20T09:19:08Z</time>
      </trkpt>
      <trkpt lat="43.72323" lon="7.01404">
        <ele>914</ele>
        <time>2018-01-20T09:20:38Z</time>
      </trkpt>
      <trkpt lat="43.72329" lon="7.01412">
        <ele>917</ele>
        <time>2018-01-20T09:20:44Z</time>
      </trkpt>
      <trkpt lat="43.72335" lon="7.0142">
        <ele>920</ele>
        <time>2018-01-20T09:20:51Z</time>
      </trkpt>
      <trkpt lat="43.72341" lon="7.01426">
        <ele>923</ele>
        <time>2018-01-20T09:20:56Z</time>
      </trkpt>
      <trkpt lat="43.72346" lon="7.01434">
        <ele>925</ele>
        <time>2018-01-20T09:21:01Z</time>
      </trkpt>
      <trkpt lat="43.7235" lon="7.01442">
        <ele>927</ele>
        <time>2018-01-20T09:21:08Z</time>
      </trkpt>
      <trkpt lat="43.72355" lon="7.01451">
        <ele>928</ele>
        <time>2018-01-20T09:21:18Z</time>
      </trkpt>
      <trkpt lat="43.72357" lon="7.01461">
        <ele>929</ele>
        <time>2018-01-20T09:21:23Z</time>
      </trkpt>
      <trkpt lat="43.72356" lon="7.01471">
        <ele>930</ele>
        <time>2018-01-20T09:21:29Z</time>
      </trkpt>
      <trkpt lat="43.72351" lon="7.01479">
        <ele>930</ele>
        <time>2018-01-20T09:21:35Z</time>
      </trkpt>
      <trkpt lat="43.72353" lon="7.01489">
        <ele>930</ele>
        <time>2018-01-20T09:21:42Z</time>
      </trkpt>
      <trkpt lat="43.72354" lon="7.01499">
        <ele>930</ele>
        <time>2018-01-20T09:21:49Z</time>
      </trkpt>
      <trkpt lat="43.72356" lon="7.01509">
        <ele>937</ele>
        <time>2018-01-20T09:21:56Z</time>
      </trkpt>
      <trkpt lat="43.72359" lon="7.01519">
        <ele>938</ele>
        <time>2018-01-20T09:22:07Z</time>
      </trkpt>
      <trkpt lat="43.72361" lon="7.01529">
        <ele>939</ele>
        <time>2018-01-20T09:22:16Z</time>
      </trkpt>
      <trkpt lat="43.7236" lon="7.01539">
        <ele>940</ele>
        <time>2018-01-20T09:22:21Z</time>
      </trkpt>
      <trkpt lat="43.72359" lon="7.01549">
        <ele>940</ele>
        <time>2018-01-20T09:22:28Z</time>
      </trkpt>
      <trkpt lat="43.72356" lon="7.0156">
        <ele>941</ele>
        <time>2018-01-20T09:22:33Z</time>
      </trkpt>
      <trkpt lat="43.72356" lon="7.0157">
        <ele>941</ele>
        <time>2018-01-20T09:22:38Z</time>
      </trkpt>
      <trkpt lat="43.72353" lon="7.0158">
        <ele>941</ele>
        <time>2018-01-20T09:22:46Z</time>
      </trkpt>
      <trkpt lat="43.72353" lon="7.0159">
        <ele>947</ele>
        <time>2018-01-20T09:22:54Z</time>
      </trkpt>
      <trkpt lat="43.72353" lon="7.01602">
        <ele>948</ele>
        <time>2018-01-20T09:23:00Z</time>
      </trkpt>
      <trkpt lat="43.72353" lon="7.01612">
        <ele>949</ele>
        <time>2018-01-20T09:23:06Z</time>
      </trkpt>
      <trkpt lat="43.72353" lon="7.01622">
        <ele>950</ele>
        <time>2018-01-20T09:23:13Z</time>
      </trkpt>
      <trkpt lat="43.72354" lon="7.01633">
        <ele>951</ele>
        <time>2018-01-20T09:23:20Z</time>
      </trkpt>
      <trkpt lat="43.72351" lon="7.01644">
        <ele>951</ele>
        <time>2018-01-20T09:23:26Z</time>
      </trkpt>
      <trkpt lat="43.72348" lon="7.01654">
        <ele>951</ele>
        <time>2018-01-20T09:23:31Z</time>
      </trkpt>
      <trkpt lat="43.72344" lon="7.01665">
        <ele>950</ele>
        <time>2018-01-20T09:23:36Z</time>
      </trkpt>
      <trkpt lat="43.72344" lon="7.01677">
        <ele>955</ele>
        <time>2018-01-20T09:23:41Z</time>
      </trkpt>
      <trkpt lat="43.72338" lon="7.01696">
        <ele>958</ele>
        <time>2018-01-20T09:23:48Z</time>
      </trkpt>
      <trkpt lat="43.72336" lon="7.01707">
        <ele>959</ele>
        <time>2018-01-20T09:23:54Z</time>
      </trkpt>
      <trkpt lat="43.72337" lon="7.01717">
        <ele>960</ele>
        <time>2018-01-20T09:23:59Z</time>
      </trkpt>
      <trkpt lat="43.72334" lon="7.01728">
        <ele>960</ele>
        <time>2018-01-20T09:24:05Z</time>
      </trkpt>
      <trkpt lat="43.72332" lon="7.01738">
        <ele>952</ele>
        <time>2018-01-20T09:24:10Z</time>
      </trkpt>
      <trkpt lat="43.72332" lon="7.01748">
        <ele>957</ele>
        <time>2018-01-20T09:24:16Z</time>
      </trkpt>
      <trkpt lat="43.72333" lon="7.01761">
        <ele>955</ele>
        <time>2018-01-20T09:24:26Z</time>
      </trkpt>
      <trkpt lat="43.72332" lon="7.01774">
        <ele>953</ele>
        <time>2018-01-20T09:24:32Z</time>
      </trkpt>
      <trkpt lat="43.72331" lon="7.01786">
        <ele>953</ele>
        <time>2018-01-20T09:24:39Z</time>
      </trkpt>
      <trkpt lat="43.7233" lon="7.01799">
        <ele>953</ele>
        <time>2018-01-20T09:24:45Z</time>
      </trkpt>
      <trkpt lat="43.72329" lon="7.0181">
        <ele>955</ele>
        <time>2018-01-20T09:24:53Z</time>
      </trkpt>
      <trkpt lat="43.72328" lon="7.01823">
        <ele>958</ele>
        <time>2018-01-20T09:24:58Z</time>
      </trkpt>
      <trkpt lat="43.72328" lon="7.01833">
        <ele>962</ele>
        <time>2018-01-20T09:25:03Z</time>
      </trkpt>
      <trkpt lat="43.7233" lon="7.01843">
        <ele>960</ele>
        <time>2018-01-20T09:25:10Z</time>
      </trkpt>
      <trkpt lat="43.72331" lon="7.01854">
        <ele>958</ele>
        <time>2018-01-20T09:25:17Z</time>
      </trkpt>
      <trkpt lat="43.72334" lon="7.01864">
        <ele>976</ele>
        <time>2018-01-20T09:25:23Z</time>
      </trkpt>
      <trkpt lat="43.72334" lon="7.01874">
        <ele>977</ele>
        <time>2018-01-20T09:25:30Z</time>
      </trkpt>
      <trkpt lat="43.72332" lon="7.01884">
        <ele>958</ele>
        <time>2018-01-20T09:25:37Z</time>
      </trkpt>
      <trkpt lat="43.7233" lon="7.01895">
        <ele>959</ele>
        <time>2018-01-20T09:25:43Z</time>
      </trkpt>
      <trkpt lat="43.72329" lon="7.01906">
        <ele>962</ele>
        <time>2018-01-20T09:25:49Z</time>
      </trkpt>
      <trkpt lat="43.72332" lon="7.01917">
        <ele>968</ele>
        <time>2018-01-20T09:25:55Z</time>
      </trkpt>
      <trkpt lat="43.72336" lon="7.01928">
        <ele>976</ele>
        <time>2018-01-20T09:26:03Z</time>
      </trkpt>
      <trkpt lat="43.72338" lon="7.01938">
        <ele>980</ele>
        <time>2018-01-20T09:26:08Z</time>
      </trkpt>
      <trkpt lat="43.72342" lon="7.01949">
        <ele>982</ele>
        <time>2018-01-20T09:26:15Z</time>
      </trkpt>
      <trkpt lat="43.72348" lon="7.01956">
        <ele>983</ele>
        <time>2018-01-20T09:26:20Z</time>
      </trkpt>
      <trkpt lat="43.72352" lon="7.01966">
        <ele>984</ele>
        <time>2018-01-20T09:26:26Z</time>
      </trkpt>
      <trkpt lat="43.72356" lon="7.01975">
        <ele>984</ele>
        <time>2018-01-20T09:26:31Z</time>
      </trkpt>
      <trkpt lat="43.72358" lon="7.01986">
        <ele>984</ele>
        <time>2018-01-20T09:26:38Z</time>
      </trkpt>
      <trkpt lat="43.7236" lon="7.01997">
        <ele>984</ele>
        <time>2018-01-20T09:26:46Z</time>
      </trkpt>
      <trkpt lat="43.72362" lon="7.02008">
        <ele>988</ele>
        <time>2018-01-20T09:26:54Z</time>
      </trkpt>
      <trkpt lat="43.72362" lon="7.02018">
        <ele>989</ele>
        <time>2018-01-20T09:27:01Z</time>
      </trkpt>
      <trkpt lat="43.72365" lon="7.02028">
        <ele>991</ele>
        <time>2018-01-20T09:27:07Z</time>
      </trkpt>
      <trkpt lat="43.72366" lon="7.02038">
        <ele>992</ele>
        <time>2018-01-20T09:27:13Z</time>
      </trkpt>
      <trkpt lat="43.72365" lon="7.02047">
        <ele>992</ele>
        <time>2018-01-20T09:27:20Z</time>
      </trkpt>
      <trkpt lat="43.72365" lon="7.02058">
        <ele>991</ele>
        <time>2018-01-20T09:27:27Z</time>
      </trkpt>
      <trkpt lat="43.72361" lon="7.0207">
        <ele>990</ele>
        <time>2018-01-20T09:27:36Z</time>
      </trkpt>
      <trkpt lat="43.72362" lon="7.0208">
        <ele>990</ele>
        <time>2018-01-20T09:30:52Z</time>
      </trkpt>
      <trkpt lat="43.72351" lon="7.02099">
        <ele>989</ele>
        <time>2018-01-20T09:30:58Z</time>
      </trkpt>
      <trkpt lat="43.72348" lon="7.02121">
        <ele>992</ele>
        <time>2018-01-20T09:31:03Z</time>
      </trkpt>
      <trkpt lat="43.72348" lon="7.02142">
        <ele>991</ele>
        <time>2018-01-20T09:31:10Z</time>
      </trkpt>
      <trkpt lat="43.72347" lon="7.02164">
        <ele>987</ele>
        <time>2018-01-20T09:31:20Z</time>
      </trkpt>
      <trkpt lat="43.72344" lon="7.02187">
        <ele>993</ele>
        <time>2018-01-20T09:31:28Z</time>
      </trkpt>
      <trkpt lat="43.72338" lon="7.02209">
        <ele>996</ele>
        <time>2018-01-20T09:31:38Z</time>
      </trkpt>
      <trkpt lat="43.72332" lon="7.02219">
        <ele>971</ele>
        <time>2018-01-20T09:31:41Z</time>
      </trkpt>
      <trkpt lat="43.72328" lon="7.02228">
        <ele>973</ele>
        <time>2018-01-20T09:31:46Z</time>
      </trkpt>
      <trkpt lat="43.72328" lon="7.02239">
        <ele>977</ele>
        <time>2018-01-20T09:31:52Z</time>
      </trkpt>
      <trkpt lat="43.72326" lon="7.02261">
        <ele>979</ele>
        <time>2018-01-20T09:31:57Z</time>
      </trkpt>
      <trkpt lat="43.7232" lon="7.02291">
        <ele>976</ele>
        <time>2018-01-20T09:32:05Z</time>
      </trkpt>
      <trkpt lat="43.72309" lon="7.02324">
        <ele>977</ele>
        <time>2018-01-20T09:32:12Z</time>
      </trkpt>
      <trkpt lat="43.72305" lon="7.02335">
        <ele>980</ele>
        <time>2018-01-20T09:32:14Z</time>
      </trkpt>
      <trkpt lat="43.72291" lon="7.02365">
        <ele>975</ele>
        <time>2018-01-20T09:32:21Z</time>
      </trkpt>
      <trkpt lat="43.72288" lon="7.02375">
        <ele>975</ele>
        <time>2018-01-20T09:32:33Z</time>
      </trkpt>
      <trkpt lat="43.72287" lon="7.02385">
        <ele>975</ele>
        <time>2018-01-20T09:33:07Z</time>
      </trkpt>
      <trkpt lat="43.7229" lon="7.02395">
        <ele>976</ele>
        <time>2018-01-20T09:33:43Z</time>
      </trkpt>
      <trkpt lat="43.72285" lon="7.02402">
        <ele>974</ele>
        <time>2018-01-20T09:33:49Z</time>
      </trkpt>
      <trkpt lat="43.72281" lon="7.02424">
        <ele>975</ele>
        <time>2018-01-20T09:33:55Z</time>
      </trkpt>
      <trkpt lat="43.72276" lon="7.02433">
        <ele>974</ele>
        <time>2018-01-20T09:34:00Z</time>
      </trkpt>
      <trkpt lat="43.7227" lon="7.0244">
        <ele>973</ele>
        <time>2018-01-20T09:34:15Z</time>
      </trkpt>
      <trkpt lat="43.72265" lon="7.02449">
        <ele>973</ele>
        <time>2018-01-20T09:34:24Z</time>
      </trkpt>
      <trkpt lat="43.72255" lon="7.02464">
        <ele>972</ele>
        <time>2018-01-20T09:34:34Z</time>
      </trkpt>
      <trkpt lat="43.72256" lon="7.02474">
        <ele>971</ele>
        <time>2018-01-20T09:34:48Z</time>
      </trkpt>
      <trkpt lat="43.72258" lon="7.02485">
        <ele>968</ele>
        <time>2018-01-20T09:34:55Z</time>
      </trkpt>
      <trkpt lat="43.72258" lon="7.02495">
        <ele>964</ele>
        <time>2018-01-20T09:35:05Z</time>
      </trkpt>
      <trkpt lat="43.72254" lon="7.02504">
        <ele>963</ele>
        <time>2018-01-20T09:35:50Z</time>
      </trkpt>
      <trkpt lat="43.72255" lon="7.02515">
        <ele>969</ele>
        <time>2018-01-20T09:35:55Z</time>
      </trkpt>
      <trkpt lat="43.72252" lon="7.02525">
        <ele>972</ele>
        <time>2018-01-20T09:36:00Z</time>
      </trkpt>
      <trkpt lat="43.72249" lon="7.02535">
        <ele>949</ele>
        <time>2018-01-20T09:36:10Z</time>
      </trkpt>
      <trkpt lat="43.72247" lon="7.0256">
        <ele>951</ele>
        <time>2018-01-20T09:36:17Z</time>
      </trkpt>
      <trkpt lat="43.72238" lon="7.02571">
        <ele>952</ele>
        <time>2018-01-20T09:36:24Z</time>
      </trkpt>
      <trkpt lat="43.72223" lon="7.02579">
        <ele>948</ele>
        <time>2018-01-20T09:36:43Z</time>
      </trkpt>
      <trkpt lat="43.72214" lon="7.02585">
        <ele>950</ele>
        <time>2018-01-20T09:36:48Z</time>
      </trkpt>
      <trkpt lat="43.72207" lon="7.02591">
        <ele>949</ele>
        <time>2018-01-20T09:37:34Z</time>
      </trkpt>
      <trkpt lat="43.72202" lon="7.026">
        <ele>948</ele>
        <time>2018-01-20T09:37:52Z</time>
      </trkpt>
      <trkpt lat="43.7219" lon="7.02615">
        <ele>947</ele>
        <time>2018-01-20T09:38:00Z</time>
      </trkpt>
      <trkpt lat="43.72175" lon="7.02608">
        <ele>943</ele>
        <time>2018-01-20T09:38:07Z</time>
      </trkpt>
      <trkpt lat="43.72167" lon="7.02607">
        <ele>942</ele>
        <time>2018-01-20T09:39:06Z</time>
      </trkpt>
      <trkpt lat="43.72155" lon="7.02623">
        <ele>926</ele>
        <time>2018-01-20T09:39:15Z</time>
      </trkpt>
      <trkpt lat="43.72156" lon="7.02634">
        <ele>926</ele>
        <time>2018-01-20T09:39:20Z</time>
      </trkpt>
      <trkpt lat="43.72149" lon="7.02657">
        <ele>928</ele>
        <time>2018-01-20T09:39:27Z</time>
      </trkpt>
      <trkpt lat="43.72136" lon="7.02674">
        <ele>929</ele>
        <time>2018-01-20T09:39:32Z</time>
      </trkpt>
      <trkpt lat="43.72119" lon="7.02698">
        <ele>927</ele>
        <time>2018-01-20T09:39:38Z</time>
      </trkpt>
      <trkpt lat="43.72103" lon="7.02713">
        <ele>925</ele>
        <time>2018-01-20T09:39:44Z</time>
      </trkpt>
      <trkpt lat="43.72087" lon="7.02729">
        <ele>923</ele>
        <time>2018-01-20T09:39:49Z</time>
      </trkpt>
      <trkpt lat="43.72075" lon="7.02742">
        <ele>912</ele>
        <time>2018-01-20T09:40:13Z</time>
      </trkpt>
      <trkpt lat="43.72056" lon="7.02761">
        <ele>910</ele>
        <time>2018-01-20T09:40:18Z</time>
      </trkpt>
      <trkpt lat="43.72041" lon="7.02774">
        <ele>907</ele>
        <time>2018-01-20T09:40:33Z</time>
      </trkpt>
      <trkpt lat="43.72037" lon="7.02782">
        <ele>907</ele>
        <time>2018-01-20T09:42:03Z</time>
      </trkpt>
      <trkpt lat="43.72041" lon="7.02791">
        <ele>907</ele>
        <time>2018-01-20T09:42:53Z</time>
      </trkpt>
      <trkpt lat="43.72047" lon="7.02797">
        <ele>908</ele>
        <time>2018-01-20T09:42:59Z</time>
      </trkpt>
      <trkpt lat="43.72053" lon="7.02805">
        <ele>910</ele>
        <time>2018-01-20T09:43:06Z</time>
      </trkpt>
      <trkpt lat="43.72058" lon="7.02814">
        <ele>911</ele>
        <time>2018-01-20T09:43:11Z</time>
      </trkpt>
      <trkpt lat="43.72065" lon="7.02818">
        <ele>913</ele>
        <time>2018-01-20T09:43:30Z</time>
      </trkpt>
      <trkpt lat="43.72072" lon="7.0282">
        <ele>915</ele>
        <time>2018-01-20T09:43:43Z</time>
      </trkpt>
      <trkpt lat="43.72076" lon="7.0283">
        <ele>918</ele>
        <time>2018-01-20T09:43:55Z</time>
      </trkpt>
      <trkpt lat="43.72081" lon="7.02839">
        <ele>919</ele>
        <time>2018-01-20T09:44:03Z</time>
      </trkpt>
      <trkpt lat="43.72089" lon="7.02839">
        <ele>928</ele>
        <time>2018-01-20T09:44:24Z</time>
      </trkpt>
      <trkpt lat="43.72096" lon="7.02839">
        <ele>931</ele>
        <time>2018-01-20T09:44:39Z</time>
      </trkpt>
      <trkpt lat="43.72104" lon="7.0284">
        <ele>934</ele>
        <time>2018-01-20T09:44:54Z</time>
      </trkpt>
      <trkpt lat="43.72108" lon="7.02848">
        <ele>937</ele>
        <time>2018-01-20T09:45:05Z</time>
      </trkpt>
      <trkpt lat="43.72113" lon="7.02856">
        <ele>939</ele>
        <time>2018-01-20T09:45:15Z</time>
      </trkpt>
      <trkpt lat="43.72117" lon="7.02864">
        <ele>940</ele>
        <time>2018-01-20T09:45:24Z</time>
      </trkpt>
      <trkpt lat="43.72119" lon="7.02874">
        <ele>941</ele>
        <time>2018-01-20T09:45:38Z</time>
      </trkpt>
      <trkpt lat="43.72123" lon="7.02865">
        <ele>942</ele>
        <time>2018-01-20T09:45:52Z</time>
      </trkpt>
      <trkpt lat="43.72128" lon="7.02858">
        <ele>943</ele>
        <time>2018-01-20T09:46:07Z</time>
      </trkpt>
      <trkpt lat="43.72128" lon="7.02847">
        <ele>943</ele>
        <time>2018-01-20T09:46:20Z</time>
      </trkpt>
      <trkpt lat="43.72136" lon="7.02845">
        <ele>945</ele>
        <time>2018-01-20T09:46:42Z</time>
      </trkpt>
      <trkpt lat="43.72141" lon="7.02853">
        <ele>946</ele>
        <time>2018-01-20T09:47:03Z</time>
      </trkpt>
      <trkpt lat="43.72145" lon="7.02861">
        <ele>947</ele>
        <time>2018-01-20T09:47:17Z</time>
      </trkpt>
      <trkpt lat="43.72148" lon="7.02852">
        <ele>948</ele>
        <time>2018-01-20T09:47:36Z</time>
      </trkpt>
      <trkpt lat="43.72151" lon="7.02841">
        <ele>951</ele>
        <time>2018-01-20T09:47:48Z</time>
      </trkpt>
      <trkpt lat="43.72153" lon="7.02831">
        <ele>950</ele>
        <time>2018-01-20T09:48:03Z</time>
      </trkpt>
      <trkpt lat="43.72154" lon="7.02821">
        <ele>948</ele>
        <time>2018-01-20T09:48:11Z</time>
      </trkpt>
      <trkpt lat="43.72161" lon="7.02815">
        <ele>948</ele>
        <time>2018-01-20T09:48:22Z</time>
      </trkpt>
      <trkpt lat="43.72169" lon="7.02815">
        <ele>967</ele>
        <time>2018-01-20T09:48:52Z</time>
      </trkpt>
      <trkpt lat="43.72175" lon="7.0281">
        <ele>969</ele>
        <time>2018-01-20T09:49:13Z</time>
      </trkpt>
      <trkpt lat="43.72178" lon="7.028">
        <ele>969</ele>
        <time>2018-01-20T09:50:10Z</time>
      </trkpt>
      <trkpt lat="43.72185" lon="7.02796">
        <ele>971</ele>
        <time>2018-01-20T09:50:26Z</time>
      </trkpt>
      <trkpt lat="43.72192" lon="7.02791">
        <ele>972</ele>
        <time>2018-01-20T09:50:36Z</time>
      </trkpt>
      <trkpt lat="43.72199" lon="7.02787">
        <ele>973</ele>
        <time>2018-01-20T09:51:00Z</time>
      </trkpt>
      <trkpt lat="43.72203" lon="7.02796">
        <ele>975</ele>
        <time>2018-01-20T09:51:55Z</time>
      </trkpt>
      <trkpt lat="43.7221" lon="7.02792">
        <ele>976</ele>
        <time>2018-01-20T09:52:12Z</time>
      </trkpt>
      <trkpt lat="43.72215" lon="7.028">
        <ele>978</ele>
        <time>2018-01-20T09:52:25Z</time>
      </trkpt>
      <trkpt lat="43.72221" lon="7.02806">
        <ele>980</ele>
        <time>2018-01-20T09:53:16Z</time>
      </trkpt>
      <trkpt lat="43.72227" lon="7.02799">
        <ele>981</ele>
        <time>2018-01-20T09:53:34Z</time>
      </trkpt>
      <trkpt lat="43.72231" lon="7.02807">
        <ele>983</ele>
        <time>2018-01-20T09:53:49Z</time>
      </trkpt>
      <trkpt lat="43.72232" lon="7.02817">
        <ele>986</ele>
        <time>2018-01-20T09:54:02Z</time>
      </trkpt>
      <trkpt lat="43.72238" lon="7.02823">
        <ele>990</ele>
        <time>2018-01-20T09:54:27Z</time>
      </trkpt>
      <trkpt lat="43.72244" lon="7.02818">
        <ele>990</ele>
        <time>2018-01-20T09:54:44Z</time>
      </trkpt>
      <trkpt lat="43.7225" lon="7.02813">
        <ele>1012</ele>
        <time>2018-01-20T09:54:55Z</time>
      </trkpt>
      <trkpt lat="43.72253" lon="7.02822">
        <ele>1009</ele>
        <time>2018-01-20T09:55:38Z</time>
      </trkpt>
      <trkpt lat="43.7226" lon="7.02827">
        <ele>1010</ele>
        <time>2018-01-20T09:56:10Z</time>
      </trkpt>
      <trkpt lat="43.72266" lon="7.02832">
        <ele>1012</ele>
        <time>2018-01-20T09:56:55Z</time>
      </trkpt>
      <trkpt lat="43.72274" lon="7.02833">
        <ele>1016</ele>
        <time>2018-01-20T09:57:34Z</time>
      </trkpt>
      <trkpt lat="43.72281" lon="7.02831">
        <ele>1019</ele>
        <time>2018-01-20T09:57:55Z</time>
      </trkpt>
      <trkpt lat="43.72289" lon="7.0283">
        <ele>1022</ele>
        <time>2018-01-20T09:58:21Z</time>
      </trkpt>
      <trkpt lat="43.72295" lon="7.02826">
        <ele>1024</ele>
        <time>2018-01-20T10:00:46Z</time>
      </trkpt>
      <trkpt lat="43.72301" lon="7.02831">
        <ele>1027</ele>
        <time>2018-01-20T10:01:51Z</time>
      </trkpt>
      <trkpt lat="43.723" lon="7.02842">
        <ele>1031</ele>
        <time>2018-01-20T10:02:12Z</time>
      </trkpt>
      <trkpt lat="43.72308" lon="7.02842">
        <ele>1034</ele>
        <time>2018-01-20T10:02:31Z</time>
      </trkpt>
      <trkpt lat="43.72314" lon="7.02836">
        <ele>1036</ele>
        <time>2018-01-20T10:02:45Z</time>
      </trkpt>
      <trkpt lat="43.72316" lon="7.02847">
        <ele>1036</ele>
        <time>2018-01-20T10:03:13Z</time>
      </trkpt>
      <trkpt lat="43.72322" lon="7.02853">
        <ele>1037</ele>
        <time>2018-01-20T10:03:33Z</time>
      </trkpt>
      <trkpt lat="43.72323" lon="7.02864">
        <ele>1035</ele>
        <time>2018-01-20T10:03:48Z</time>
      </trkpt>
      <trkpt lat="43.72323" lon="7.02875">
        <ele>1035</ele>
        <time>2018-01-20T10:03:57Z</time>
      </trkpt>
      <trkpt lat="43.72332" lon="7.02878">
        <ele>1036</ele>
        <time>2018-01-20T10:06:08Z</time>
      </trkpt>
      <trkpt lat="43.72339" lon="7.02879">
        <ele>1060</ele>
        <time>2018-01-20T10:06:32Z</time>
      </trkpt>
      <trkpt lat="43.72347" lon="7.02879">
        <ele>1061</ele>
        <time>2018-01-20T10:06:47Z</time>
      </trkpt>
      <trkpt lat="43.72351" lon="7.02888">
        <ele>1061</ele>
        <time>2018-01-20T10:06:57Z</time>
      </trkpt>
      <trkpt lat="43.72356" lon="7.02896">
        <ele>1061</ele>
        <time>2018-01-20T10:07:12Z</time>
      </trkpt>
      <trkpt lat="43.72364" lon="7.02898">
        <ele>1063</ele>
        <time>2018-01-20T10:07:23Z</time>
      </trkpt>
      <trkpt lat="43.72369" lon="7.0289">
        <ele>1064</ele>
        <time>2018-01-20T10:07:42Z</time>
      </trkpt>
      <trkpt lat="43.72375" lon="7.02883">
        <ele>1065</ele>
        <time>2018-01-20T10:07:52Z</time>
      </trkpt>
      <trkpt lat="43.72378" lon="7.02874">
        <ele>1066</ele>
        <time>2018-01-20T10:08:01Z</time>
      </trkpt>
      <trkpt lat="43.72385" lon="7.02879">
        <ele>1067</ele>
        <time>2018-01-20T10:08:13Z</time>
      </trkpt>
      <trkpt lat="43.72389" lon="7.02888">
        <ele>1068</ele>
        <time>2018-01-20T10:08:23Z</time>
      </trkpt>
      <trkpt lat="43.72393" lon="7.02897">
        <ele>1070</ele>
        <time>2018-01-20T10:08:34Z</time>
      </trkpt>
      <trkpt lat="43.72399" lon="7.02903">
        <ele>1072</ele>
        <time>2018-01-20T10:09:01Z</time>
      </trkpt>
      <trkpt lat="43.72404" lon="7.0291">
        <ele>1074</ele>
        <time>2018-01-20T10:09:11Z</time>
      </trkpt>
      <trkpt lat="43.7241" lon="7.02916">
        <ele>1077</ele>
        <time>2018-01-20T10:09:24Z</time>
      </trkpt>
      <trkpt lat="43.72417" lon="7.02911">
        <ele>1078</ele>
        <time>2018-01-20T10:09:48Z</time>
      </trkpt>
      <trkpt lat="43.72421" lon="7.02902">
        <ele>1088</ele>
        <time>2018-01-20T10:09:59Z</time>
      </trkpt>
      <trkpt lat="43.72425" lon="7.02894">
        <ele>1090</ele>
        <time>2018-01-20T10:10:13Z</time>
      </trkpt>
      <trkpt lat="43.7243" lon="7.02887">
        <ele>1092</ele>
        <time>2018-01-20T10:10:47Z</time>
      </trkpt>
      <trkpt lat="43.72435" lon="7.02879">
        <ele>1093</ele>
        <time>2018-01-20T10:11:03Z</time>
      </trkpt>
      <trkpt lat="43.72442" lon="7.02876">
        <ele>1094</ele>
        <time>2018-01-20T10:11:43Z</time>
      </trkpt>
      <trkpt lat="43.7245" lon="7.02872">
        <ele>1095</ele>
        <time>2018-01-20T10:12:03Z</time>
      </trkpt>
      <trkpt lat="43.72457" lon="7.0287">
        <ele>1097</ele>
        <time>2018-01-20T10:12:21Z</time>
      </trkpt>
      <trkpt lat="43.72463" lon="7.02865">
        <ele>1098</ele>
        <time>2018-01-20T10:12:52Z</time>
      </trkpt>
      <trkpt lat="43.7247" lon="7.02861">
        <ele>1099</ele>
        <time>2018-01-20T10:13:04Z</time>
      </trkpt>
      <trkpt lat="43.72477" lon="7.02865">
        <ele>1101</ele>
        <time>2018-01-20T10:13:17Z</time>
      </trkpt>
      <trkpt lat="43.72483" lon="7.02871">
        <ele>1101</ele>
        <time>2018-01-20T10:13:26Z</time>
      </trkpt>
      <trkpt lat="43.72489" lon="7.02877">
        <ele>1101</ele>
        <time>2018-01-20T10:13:35Z</time>
      </trkpt>
      <trkpt lat="43.72496" lon="7.02874">
        <ele>1102</ele>
        <time>2018-01-20T10:13:50Z</time>
      </trkpt>
      <trkpt lat="43.72501" lon="7.02866">
        <ele>1119</ele>
        <time>2018-01-20T10:14:10Z</time>
      </trkpt>
      <trkpt lat="43.72509" lon="7.02862">
        <ele>1120</ele>
        <time>2018-01-20T10:14:24Z</time>
      </trkpt>
      <trkpt lat="43.72514" lon="7.02854">
        <ele>1120</ele>
        <time>2018-01-20T10:14:35Z</time>
      </trkpt>
      <trkpt lat="43.72521" lon="7.02849">
        <ele>1121</ele>
        <time>2018-01-20T10:14:49Z</time>
      </trkpt>
      <trkpt lat="43.72528" lon="7.02848">
        <ele>1122</ele>
        <time>2018-01-20T10:15:08Z</time>
      </trkpt>
      <trkpt lat="43.72536" lon="7.02845">
        <ele>1124</ele>
        <time>2018-01-20T10:15:28Z</time>
      </trkpt>
      <trkpt lat="43.72544" lon="7.02845">
        <ele>1125</ele>
        <time>2018-01-20T10:15:43Z</time>
      </trkpt>
      <trkpt lat="43.72551" lon="7.02843">
        <ele>1127</ele>
        <time>2018-01-20T10:15:58Z</time>
      </trkpt>
      <trkpt lat="43.72559" lon="7.02841">
        <ele>1129</ele>
        <time>2018-01-20T10:16:15Z</time>
      </trkpt>
      <trkpt lat="43.72565" lon="7.02834">
        <ele>1132</ele>
        <time>2018-01-20T10:16:41Z</time>
      </trkpt>
      <trkpt lat="43.72572" lon="7.0283">
        <ele>1138</ele>
        <time>2018-01-20T10:16:53Z</time>
      </trkpt>
      <trkpt lat="43.72579" lon="7.02827">
        <ele>1139</ele>
        <time>2018-01-20T10:17:11Z</time>
      </trkpt>
      <trkpt lat="43.72584" lon="7.02817">
        <ele>1147</ele>
        <time>2018-01-20T10:17:24Z</time>
      </trkpt>
      <trkpt lat="43.72585" lon="7.02806">
        <ele>1149</ele>
        <time>2018-01-20T10:17:32Z</time>
      </trkpt>
      <trkpt lat="43.72588" lon="7.02796">
        <ele>1151</ele>
        <time>2018-01-20T10:17:47Z</time>
      </trkpt>
      <trkpt lat="43.72588" lon="7.02785">
        <ele>1152</ele>
        <time>2018-01-20T10:17:56Z</time>
      </trkpt>
      <trkpt lat="43.7259" lon="7.02776">
        <ele>1152</ele>
        <time>2018-01-20T10:18:39Z</time>
      </trkpt>
      <trkpt lat="43.72597" lon="7.02777">
        <ele>1153</ele>
        <time>2018-01-20T10:19:31Z</time>
      </trkpt>
      <trkpt lat="43.72601" lon="7.02767">
        <ele>1153</ele>
        <time>2018-01-20T10:19:56Z</time>
      </trkpt>
      <trkpt lat="43.72605" lon="7.02759">
        <ele>1154</ele>
        <time>2018-01-20T10:20:28Z</time>
      </trkpt>
      <trkpt lat="43.72607" lon="7.0275">
        <ele>1162</ele>
        <time>2018-01-20T10:20:38Z</time>
      </trkpt>
      <trkpt lat="43.72611" lon="7.0274">
        <ele>1163</ele>
        <time>2018-01-20T10:20:56Z</time>
      </trkpt>
      <trkpt lat="43.72613" lon="7.02731">
        <ele>1164</ele>
        <time>2018-01-20T10:21:05Z</time>
      </trkpt>
      <trkpt lat="43.7262" lon="7.02726">
        <ele>1165</ele>
        <time>2018-01-20T10:21:49Z</time>
      </trkpt>
      <trkpt lat="43.72626" lon="7.02718">
        <ele>1167</ele>
        <time>2018-01-20T10:24:17Z</time>
      </trkpt>
      <trkpt lat="43.72633" lon="7.02714">
        <ele>1168</ele>
        <time>2018-01-20T10:24:27Z</time>
      </trkpt>
      <trkpt lat="43.7264" lon="7.0271">
        <ele>1169</ele>
        <time>2018-01-20T10:24:38Z</time>
      </trkpt>
      <trkpt lat="43.72641" lon="7.027">
        <ele>1170</ele>
        <time>2018-01-20T10:24:46Z</time>
      </trkpt>
      <trkpt lat="43.72645" lon="7.02692">
        <ele>1172</ele>
        <time>2018-01-20T10:25:20Z</time>
      </trkpt>
      <trkpt lat="43.7265" lon="7.02683">
        <ele>1174</ele>
        <time>2018-01-20T10:25:30Z</time>
      </trkpt>
      <trkpt lat="43.72653" lon="7.02674">
        <ele>1177</ele>
        <time>2018-01-20T10:25:38Z</time>
      </trkpt>
      <trkpt lat="43.72654" lon="7.02663">
        <ele>1182</ele>
        <time>2018-01-20T10:25:46Z</time>
      </trkpt>
      <trkpt lat="43.72657" lon="7.02653">
        <ele>1181</ele>
        <time>2018-01-20T10:25:56Z</time>
      </trkpt>
      <trkpt lat="43.72662" lon="7.02645">
        <ele>1181</ele>
        <time>2018-01-20T10:26:05Z</time>
      </trkpt>
      <trkpt lat="43.72666" lon="7.02636">
        <ele>1181</ele>
        <time>2018-01-20T10:26:28Z</time>
      </trkpt>
      <trkpt lat="43.72668" lon="7.02625">
        <ele>1190</ele>
        <time>2018-01-20T10:26:38Z</time>
      </trkpt>
      <trkpt lat="43.7267" lon="7.02615">
        <ele>1191</ele>
        <time>2018-01-20T10:26:52Z</time>
      </trkpt>
      <trkpt lat="43.72674" lon="7.02606">
        <ele>1192</ele>
        <time>2018-01-20T10:27:05Z</time>
      </trkpt>
      <trkpt lat="43.72679" lon="7.02598">
        <ele>1193</ele>
        <time>2018-01-20T10:27:16Z</time>
      </trkpt>
      <trkpt lat="43.72684" lon="7.0259">
        <ele>1193</ele>
        <time>2018-01-20T10:27:48Z</time>
      </trkpt>
      <trkpt lat="43.72688" lon="7.02582">
        <ele>1198</ele>
        <time>2018-01-20T10:27:56Z</time>
      </trkpt>
      <trkpt lat="43.72694" lon="7.02574">
        <ele>1199</ele>
        <time>2018-01-20T10:28:06Z</time>
      </trkpt>
      <trkpt lat="43.727" lon="7.02568">
        <ele>1200</ele>
        <time>2018-01-20T10:28:44Z</time>
      </trkpt>
      <trkpt lat="43.72708" lon="7.02564">
        <ele>1200</ele>
        <time>2018-01-20T10:29:22Z</time>
      </trkpt>
      <trkpt lat="43.72716" lon="7.0256">
        <ele>1201</ele>
        <time>2018-01-20T10:29:27Z</time>
      </trkpt>
      <trkpt lat="43.7273" lon="7.02554">
        <ele>1202</ele>
        <time>2018-01-20T10:29:36Z</time>
      </trkpt>
      <trkpt lat="43.72737" lon="7.0255">
        <ele>1202</ele>
        <time>2018-01-20T10:29:41Z</time>
      </trkpt>
      <trkpt lat="43.72744" lon="7.02545">
        <ele>1203</ele>
        <time>2018-01-20T10:29:47Z</time>
      </trkpt>
      <trkpt lat="43.72752" lon="7.02541">
        <ele>1206</ele>
        <time>2018-01-20T10:29:53Z</time>
      </trkpt>
      <trkpt lat="43.7276" lon="7.02537">
        <ele>1206</ele>
        <time>2018-01-20T10:29:59Z</time>
      </trkpt>
      <trkpt lat="43.72765" lon="7.0253">
        <ele>1207</ele>
        <time>2018-01-20T10:30:11Z</time>
      </trkpt>
      <trkpt lat="43.72771" lon="7.02522">
        <ele>1208</ele>
        <time>2018-01-20T10:30:19Z</time>
      </trkpt>
      <trkpt lat="43.72776" lon="7.02514">
        <ele>1208</ele>
        <time>2018-01-20T10:31:15Z</time>
      </trkpt>
      <trkpt lat="43.72781" lon="7.02507">
        <ele>1208</ele>
        <time>2018-01-20T10:31:27Z</time>
      </trkpt>
      <trkpt lat="43.72787" lon="7.02497">
        <ele>1217</ele>
        <time>2018-01-20T10:31:36Z</time>
      </trkpt>
      <trkpt lat="43.72793" lon="7.02491">
        <ele>1217</ele>
        <time>2018-01-20T10:31:45Z</time>
      </trkpt>
      <trkpt lat="43.728" lon="7.02488">
        <ele>1217</ele>
        <time>2018-01-20T10:31:57Z</time>
      </trkpt>
      <trkpt lat="43.72804" lon="7.02477">
        <ele>1218</ele>
        <time>2018-01-20T10:32:10Z</time>
      </trkpt>
      <trkpt lat="43.7281" lon="7.02469">
        <ele>1218</ele>
        <time>2018-01-20T10:32:24Z</time>
      </trkpt>
      <trkpt lat="43.72815" lon="7.02462">
        <ele>1219</ele>
        <time>2018-01-20T10:32:32Z</time>
      </trkpt>
      <trkpt lat="43.72821" lon="7.02454">
        <ele>1220</ele>
        <time>2018-01-20T10:32:43Z</time>
      </trkpt>
      <trkpt lat="43.72825" lon="7.02446">
        <ele>1221</ele>
        <time>2018-01-20T10:32:53Z</time>
      </trkpt>
      <trkpt lat="43.72826" lon="7.02436">
        <ele>1223</ele>
        <time>2018-01-20T10:33:07Z</time>
      </trkpt>
      <trkpt lat="43.72819" lon="7.02435">
        <ele>1222</ele>
        <time>2018-01-20T10:33:14Z</time>
      </trkpt>
      <trkpt lat="43.72811" lon="7.02433">
        <ele>1222</ele>
        <time>2018-01-20T10:33:29Z</time>
      </trkpt>
      <trkpt lat="43.72803" lon="7.02429">
        <ele>1221</ele>
        <time>2018-01-20T10:33:34Z</time>
      </trkpt>
      <trkpt lat="43.72787" lon="7.02421">
        <ele>1221</ele>
        <time>2018-01-20T10:33:42Z</time>
      </trkpt>
      <trkpt lat="43.72781" lon="7.02413">
        <ele>1226</ele>
        <time>2018-01-20T10:33:47Z</time>
      </trkpt>
      <trkpt lat="43.72779" lon="7.02403">
        <ele>1226</ele>
        <time>2018-01-20T10:33:52Z</time>
      </trkpt>
      <trkpt lat="43.72779" lon="7.02392">
        <ele>1226</ele>
        <time>2018-01-20T10:33:57Z</time>
      </trkpt>
      <trkpt lat="43.7278" lon="7.02381">
        <ele>1226</ele>
        <time>2018-01-20T10:34:26Z</time>
      </trkpt>
      <trkpt lat="43.72778" lon="7.0237">
        <ele>1227</ele>
        <time>2018-01-20T10:34:33Z</time>
      </trkpt>
      <trkpt lat="43.72772" lon="7.02364">
        <ele>1227</ele>
        <time>2018-01-20T10:35:02Z</time>
      </trkpt>
      <trkpt lat="43.7277" lon="7.02354">
        <ele>1227</ele>
        <time>2018-01-20T10:35:11Z</time>
      </trkpt>
      <trkpt lat="43.72768" lon="7.02344">
        <ele>1228</ele>
        <time>2018-01-20T10:35:18Z</time>
      </trkpt>
      <trkpt lat="43.72766" lon="7.02334">
        <ele>1228</ele>
        <time>2018-01-20T10:35:30Z</time>
      </trkpt>
      <trkpt lat="43.72773" lon="7.02327">
        <ele>1226</ele>
        <time>2018-01-20T10:35:43Z</time>
      </trkpt>
      <trkpt lat="43.72777" lon="7.02319">
        <ele>1226</ele>
        <time>2018-01-20T10:36:00Z</time>
      </trkpt>
      <trkpt lat="43.72783" lon="7.02312">
        <ele>1225</ele>
        <time>2018-01-20T10:36:14Z</time>
      </trkpt>
      <trkpt lat="43.72784" lon="7.02302">
        <ele>1225</ele>
        <time>2018-01-20T10:36:33Z</time>
      </trkpt>
      <trkpt lat="43.72787" lon="7.02293">
        <ele>1224</ele>
        <time>2018-01-20T10:36:49Z</time>
      </trkpt>
      <trkpt lat="43.7279" lon="7.02283">
        <ele>1224</ele>
        <time>2018-01-20T10:36:59Z</time>
      </trkpt>
      <trkpt lat="43.72793" lon="7.02273">
        <ele>1223</ele>
        <time>2018-01-20T10:37:07Z</time>
      </trkpt>
      <trkpt lat="43.72797" lon="7.02265">
        <ele>1222</ele>
        <time>2018-01-20T10:37:19Z</time>
      </trkpt>
      <trkpt lat="43.72798" lon="7.02254">
        <ele>1221</ele>
        <time>2018-01-20T10:37:26Z</time>
      </trkpt>
      <trkpt lat="43.72791" lon="7.02249">
        <ele>1205</ele>
        <time>2018-01-20T10:39:15Z</time>
      </trkpt>
      <trkpt lat="43.72794" lon="7.0226">
        <ele>1222</ele>
        <time>2018-01-20T11:19:24Z</time>
      </trkpt>
      <trkpt lat="43.72789" lon="7.02283">
        <ele>1224</ele>
        <time>2018-01-20T11:19:32Z</time>
      </trkpt>
      <trkpt lat="43.72783" lon="7.02307">
        <ele>1225</ele>
        <time>2018-01-20T11:19:39Z</time>
      </trkpt>
      <trkpt lat="43.72772" lon="7.02327">
        <ele>1226</ele>
        <time>2018-01-20T11:19:48Z</time>
      </trkpt>
      <trkpt lat="43.72768" lon="7.02348">
        <ele>1228</ele>
        <time>2018-01-20T11:19:55Z</time>
      </trkpt>
      <trkpt lat="43.72777" lon="7.02367">
        <ele>1227</ele>
        <time>2018-01-20T11:20:02Z</time>
      </trkpt>
      <trkpt lat="43.72781" lon="7.02377">
        <ele>1227</ele>
        <time>2018-01-20T11:20:07Z</time>
      </trkpt>
      <trkpt lat="43.72779" lon="7.02396">
        <ele>1226</ele>
        <time>2018-01-20T11:20:21Z</time>
      </trkpt>
      <trkpt lat="43.72779" lon="7.02407">
        <ele>1226</ele>
        <time>2018-01-20T11:20:42Z</time>
      </trkpt>
      <trkpt lat="43.72783" lon="7.02418">
        <ele>1221</ele>
        <time>2018-01-20T11:21:39Z</time>
      </trkpt>
      <trkpt lat="43.72798" lon="7.02431">
        <ele>1221</ele>
        <time>2018-01-20T11:21:45Z</time>
      </trkpt>
      <trkpt lat="43.72824" lon="7.02435">
        <ele>1223</ele>
        <time>2018-01-20T11:21:52Z</time>
      </trkpt>
      <trkpt lat="43.72823" lon="7.02454">
        <ele>1220</ele>
        <time>2018-01-20T11:21:59Z</time>
      </trkpt>
      <trkpt lat="43.72805" lon="7.02479">
        <ele>1217</ele>
        <time>2018-01-20T11:22:06Z</time>
      </trkpt>
      <trkpt lat="43.728" lon="7.02486">
        <ele>1217</ele>
        <time>2018-01-20T11:22:14Z</time>
      </trkpt>
      <trkpt lat="43.72793" lon="7.02492">
        <ele>1217</ele>
        <time>2018-01-20T11:22:27Z</time>
      </trkpt>
      <trkpt lat="43.72787" lon="7.02501">
        <ele>1208</ele>
        <time>2018-01-20T11:22:34Z</time>
      </trkpt>
      <trkpt lat="43.72776" lon="7.02515">
        <ele>1208</ele>
        <time>2018-01-20T11:22:43Z</time>
      </trkpt>
      <trkpt lat="43.72765" lon="7.02531">
        <ele>1207</ele>
        <time>2018-01-20T11:22:49Z</time>
      </trkpt>
      <trkpt lat="43.7275" lon="7.02541">
        <ele>1203</ele>
        <time>2018-01-20T11:22:56Z</time>
      </trkpt>
      <trkpt lat="43.72734" lon="7.0255">
        <ele>1202</ele>
        <time>2018-01-20T11:23:01Z</time>
      </trkpt>
      <trkpt lat="43.7271" lon="7.02564">
        <ele>1200</ele>
        <time>2018-01-20T11:23:07Z</time>
      </trkpt>
      <trkpt lat="43.72696" lon="7.02576">
        <ele>1199</ele>
        <time>2018-01-20T11:23:17Z</time>
      </trkpt>
      <trkpt lat="43.72683" lon="7.02595">
        <ele>1193</ele>
        <time>2018-01-20T11:23:23Z</time>
      </trkpt>
      <trkpt lat="43.72671" lon="7.02615">
        <ele>1191</ele>
        <time>2018-01-20T11:23:28Z</time>
      </trkpt>
      <trkpt lat="43.72666" lon="7.02639">
        <ele>1181</ele>
        <time>2018-01-20T11:23:34Z</time>
      </trkpt>
      <trkpt lat="43.72655" lon="7.02658">
        <ele>1182</ele>
        <time>2018-01-20T11:23:42Z</time>
      </trkpt>
      <trkpt lat="43.72649" lon="7.02681">
        <ele>1174</ele>
        <time>2018-01-20T11:23:49Z</time>
      </trkpt>
      <trkpt lat="43.72645" lon="7.02689">
        <ele>1172</ele>
        <time>2018-01-20T11:23:58Z</time>
      </trkpt>
      <trkpt lat="43.72639" lon="7.02699">
        <ele>1170</ele>
        <time>2018-01-20T11:24:10Z</time>
      </trkpt>
      <trkpt lat="43.7263" lon="7.02716">
        <ele>1167</ele>
        <time>2018-01-20T11:24:15Z</time>
      </trkpt>
      <trkpt lat="43.72623" lon="7.02719">
        <ele>1166</ele>
        <time>2018-01-20T11:24:37Z</time>
      </trkpt>
      <trkpt lat="43.72617" lon="7.02726">
        <ele>1165</ele>
        <time>2018-01-20T11:24:42Z</time>
      </trkpt>
      <trkpt lat="43.72609" lon="7.02732">
        <ele>1163</ele>
        <time>2018-01-20T11:24:48Z</time>
      </trkpt>
      <trkpt lat="43.72607" lon="7.02744">
        <ele>1162</ele>
        <time>2018-01-20T11:24:54Z</time>
      </trkpt>
      <trkpt lat="43.72601" lon="7.02764">
        <ele>1153</ele>
        <time>2018-01-20T11:25:02Z</time>
      </trkpt>
      <trkpt lat="43.72594" lon="7.02774">
        <ele>1153</ele>
        <time>2018-01-20T11:25:56Z</time>
      </trkpt>
      <trkpt lat="43.72588" lon="7.02784">
        <ele>1152</ele>
        <time>2018-01-20T11:26:09Z</time>
      </trkpt>
      <trkpt lat="43.72585" lon="7.02806">
        <ele>1149</ele>
        <time>2018-01-20T11:26:16Z</time>
      </trkpt>
      <trkpt lat="43.72582" lon="7.02827">
        <ele>1140</ele>
        <time>2018-01-20T11:26:23Z</time>
      </trkpt>
      <trkpt lat="43.72574" lon="7.02828">
        <ele>1139</ele>
        <time>2018-01-20T11:26:44Z</time>
      </trkpt>
      <trkpt lat="43.72567" lon="7.02834">
        <ele>1133</ele>
        <time>2018-01-20T11:26:52Z</time>
      </trkpt>
      <trkpt lat="43.7256" lon="7.02841">
        <ele>1130</ele>
        <time>2018-01-20T11:27:23Z</time>
      </trkpt>
      <trkpt lat="43.72545" lon="7.02843">
        <ele>1126</ele>
        <time>2018-01-20T11:27:31Z</time>
      </trkpt>
      <trkpt lat="43.7253" lon="7.02846">
        <ele>1122</ele>
        <time>2018-01-20T11:27:38Z</time>
      </trkpt>
      <trkpt lat="43.72522" lon="7.02848">
        <ele>1121</ele>
        <time>2018-01-20T11:27:44Z</time>
      </trkpt>
      <trkpt lat="43.72515" lon="7.02846">
        <ele>1120</ele>
        <time>2018-01-20T11:27:54Z</time>
      </trkpt>
      <trkpt lat="43.72504" lon="7.02863">
        <ele>1119</ele>
        <time>2018-01-20T11:28:02Z</time>
      </trkpt>
      <trkpt lat="43.72499" lon="7.02872">
        <ele>1102</ele>
        <time>2018-01-20T11:28:07Z</time>
      </trkpt>
      <trkpt lat="43.72483" lon="7.02876">
        <ele>1101</ele>
        <time>2018-01-20T11:28:13Z</time>
      </trkpt>
      <trkpt lat="43.72468" lon="7.02862">
        <ele>1099</ele>
        <time>2018-01-20T11:28:20Z</time>
      </trkpt>
      <trkpt lat="43.72453" lon="7.02871">
        <ele>1096</ele>
        <time>2018-01-20T11:28:28Z</time>
      </trkpt>
      <trkpt lat="43.72437" lon="7.02878">
        <ele>1093</ele>
        <time>2018-01-20T11:28:37Z</time>
      </trkpt>
      <trkpt lat="43.7243" lon="7.02885">
        <ele>1092</ele>
        <time>2018-01-20T11:28:43Z</time>
      </trkpt>
      <trkpt lat="43.7243" lon="7.02895">
        <ele>1090</ele>
        <time>2018-01-20T11:35:09Z</time>
      </trkpt>
      <trkpt lat="43.72424" lon="7.02903">
        <ele>1088</ele>
        <time>2018-01-20T11:35:14Z</time>
      </trkpt>
      <trkpt lat="43.72414" lon="7.02917">
        <ele>1079</ele>
        <time>2018-01-20T11:35:21Z</time>
      </trkpt>
      <trkpt lat="43.72399" lon="7.02904">
        <ele>1072</ele>
        <time>2018-01-20T11:35:27Z</time>
      </trkpt>
      <trkpt lat="43.72394" lon="7.02897">
        <ele>1070</ele>
        <time>2018-01-20T11:35:47Z</time>
      </trkpt>
      <trkpt lat="43.72384" lon="7.0288">
        <ele>1067</ele>
        <time>2018-01-20T11:35:53Z</time>
      </trkpt>
      <trkpt lat="43.72373" lon="7.0288">
        <ele>1065</ele>
        <time>2018-01-20T11:35:59Z</time>
      </trkpt>
      <trkpt lat="43.72361" lon="7.02899">
        <ele>1062</ele>
        <time>2018-01-20T11:36:06Z</time>
      </trkpt>
      <trkpt lat="43.72347" lon="7.02888">
        <ele>1060</ele>
        <time>2018-01-20T11:36:11Z</time>
      </trkpt>
      <trkpt lat="43.72339" lon="7.02889">
        <ele>1059</ele>
        <time>2018-01-20T11:36:18Z</time>
      </trkpt>
      <trkpt lat="43.72332" lon="7.0288">
        <ele>1036</ele>
        <time>2018-01-20T11:37:20Z</time>
      </trkpt>
      <trkpt lat="43.72323" lon="7.02863">
        <ele>1035</ele>
        <time>2018-01-20T11:37:27Z</time>
      </trkpt>
      <trkpt lat="43.72314" lon="7.02848">
        <ele>1035</ele>
        <time>2018-01-20T11:37:36Z</time>
      </trkpt>
      <trkpt lat="43.72309" lon="7.0284">
        <ele>1034</ele>
        <time>2018-01-20T11:37:46Z</time>
      </trkpt>
      <trkpt lat="43.72299" lon="7.02832">
        <ele>1026</ele>
        <time>2018-01-20T11:38:06Z</time>
      </trkpt>
      <trkpt lat="43.72294" lon="7.02825">
        <ele>1023</ele>
        <time>2018-01-20T11:38:18Z</time>
      </trkpt>
      <trkpt lat="43.72286" lon="7.02831">
        <ele>1021</ele>
        <time>2018-01-20T11:38:23Z</time>
      </trkpt>
      <trkpt lat="43.72279" lon="7.02828">
        <ele>1018</ele>
        <time>2018-01-20T11:38:35Z</time>
      </trkpt>
      <trkpt lat="43.72266" lon="7.02827">
        <ele>1012</ele>
        <time>2018-01-20T11:38:55Z</time>
      </trkpt>
      <trkpt lat="43.72257" lon="7.02829">
        <ele>1008</ele>
        <time>2018-01-20T11:39:02Z</time>
      </trkpt>
      <trkpt lat="43.72254" lon="7.02821">
        <ele>1010</ele>
        <time>2018-01-20T11:39:11Z</time>
      </trkpt>
      <trkpt lat="43.72251" lon="7.02811">
        <ele>1012</ele>
        <time>2018-01-20T11:40:04Z</time>
      </trkpt>
      <trkpt lat="43.72245" lon="7.02816">
        <ele>990</ele>
        <time>2018-01-20T11:40:55Z</time>
      </trkpt>
      <trkpt lat="43.72238" lon="7.02824">
        <ele>990</ele>
        <time>2018-01-20T11:41:00Z</time>
      </trkpt>
      <trkpt lat="43.72233" lon="7.02815">
        <ele>985</ele>
        <time>2018-01-20T11:41:07Z</time>
      </trkpt>
      <trkpt lat="43.72227" lon="7.02808">
        <ele>982</ele>
        <time>2018-01-20T11:41:18Z</time>
      </trkpt>
      <trkpt lat="43.72219" lon="7.02807">
        <ele>980</ele>
        <time>2018-01-20T11:41:28Z</time>
      </trkpt>
      <trkpt lat="43.72215" lon="7.02798">
        <ele>978</ele>
        <time>2018-01-20T11:41:38Z</time>
      </trkpt>
      <trkpt lat="43.72208" lon="7.02803">
        <ele>977</ele>
        <time>2018-01-20T11:41:54Z</time>
      </trkpt>
      <trkpt lat="43.72202" lon="7.02799">
        <ele>974</ele>
        <time>2018-01-20T11:42:13Z</time>
      </trkpt>
      <trkpt lat="43.72206" lon="7.02789">
        <ele>975</ele>
        <time>2018-01-20T11:42:24Z</time>
      </trkpt>
      <trkpt lat="43.72197" lon="7.02791">
        <ele>973</ele>
        <time>2018-01-20T11:42:32Z</time>
      </trkpt>
      <trkpt lat="43.72185" lon="7.02804">
        <ele>971</ele>
        <time>2018-01-20T11:42:38Z</time>
      </trkpt>
      <trkpt lat="43.72178" lon="7.02808">
        <ele>969</ele>
        <time>2018-01-20T11:43:17Z</time>
      </trkpt>
      <trkpt lat="43.72174" lon="7.02816">
        <ele>968</ele>
        <time>2018-01-20T11:43:23Z</time>
      </trkpt>
      <trkpt lat="43.72162" lon="7.02818">
        <ele>949</ele>
        <time>2018-01-20T11:43:31Z</time>
      </trkpt>
      <trkpt lat="43.72158" lon="7.02828">
        <ele>952</ele>
        <time>2018-01-20T11:43:39Z</time>
      </trkpt>
      <trkpt lat="43.72152" lon="7.02849">
        <ele>950</ele>
        <time>2018-01-20T11:43:53Z</time>
      </trkpt>
      <trkpt lat="43.72148" lon="7.02859">
        <ele>948</ele>
        <time>2018-01-20T11:44:00Z</time>
      </trkpt>
      <trkpt lat="43.72143" lon="7.02851">
        <ele>947</ele>
        <time>2018-01-20T11:44:12Z</time>
      </trkpt>
      <trkpt lat="43.72137" lon="7.02845">
        <ele>946</ele>
        <time>2018-01-20T11:44:19Z</time>
      </trkpt>
      <trkpt lat="43.72131" lon="7.02853">
        <ele>944</ele>
        <time>2018-01-20T11:44:28Z</time>
      </trkpt>
      <trkpt lat="43.72122" lon="7.0287">
        <ele>941</ele>
        <time>2018-01-20T11:44:35Z</time>
      </trkpt>
      <trkpt lat="43.72116" lon="7.02862">
        <ele>940</ele>
        <time>2018-01-20T11:44:42Z</time>
      </trkpt>
      <trkpt lat="43.72111" lon="7.02854">
        <ele>938</ele>
        <time>2018-01-20T11:46:10Z</time>
      </trkpt>
      <trkpt lat="43.72097" lon="7.02839">
        <ele>931</ele>
        <time>2018-01-20T11:46:18Z</time>
      </trkpt>
      <trkpt lat="43.72084" lon="7.0285">
        <ele>931</ele>
        <time>2018-01-20T11:47:13Z</time>
      </trkpt>
      <trkpt lat="43.72079" lon="7.02839">
        <ele>918</ele>
        <time>2018-01-20T11:48:49Z</time>
      </trkpt>
      <trkpt lat="43.72069" lon="7.02827">
        <ele>915</ele>
        <time>2018-01-20T11:48:55Z</time>
      </trkpt>
      <trkpt lat="43.72054" lon="7.02808">
        <ele>910</ele>
        <time>2018-01-20T11:49:00Z</time>
      </trkpt>
      <trkpt lat="43.7204" lon="7.02789">
        <ele>907</ele>
        <time>2018-01-20T11:49:06Z</time>
      </trkpt>
      <trkpt lat="43.72041" lon="7.02779">
        <ele>907</ele>
        <time>2018-01-20T11:49:35Z</time>
      </trkpt>
      <trkpt lat="43.72032" lon="7.0278">
        <ele>906</ele>
        <time>2018-01-20T11:55:02Z</time>
      </trkpt>
      <trkpt lat="43.72006" lon="7.02785">
        <ele>903</ele>
        <time>2018-01-20T11:55:08Z</time>
      </trkpt>
      <trkpt lat="43.71986" lon="7.02791">
        <ele>888</ele>
        <time>2018-01-20T11:55:14Z</time>
      </trkpt>
      <trkpt lat="43.71961" lon="7.02787">
        <ele>886</ele>
        <time>2018-01-20T11:55:20Z</time>
      </trkpt>
      <trkpt lat="43.71938" lon="7.02792">
        <ele>883</ele>
        <time>2018-01-20T11:55:27Z</time>
      </trkpt>
      <trkpt lat="43.71922" lon="7.0281">
        <ele>882</ele>
        <time>2018-01-20T11:58:54Z</time>
      </trkpt>
      <trkpt lat="43.71912" lon="7.02829">
        <ele>875</ele>
        <time>2018-01-20T11:59:01Z</time>
      </trkpt>
      <trkpt lat="43.71895" lon="7.02835">
        <ele>870</ele>
        <time>2018-01-20T11:59:06Z</time>
      </trkpt>
      <trkpt lat="43.71881" lon="7.02845">
        <ele>867</ele>
        <time>2018-01-20T11:59:11Z</time>
      </trkpt>
      <trkpt lat="43.71879" lon="7.02855">
        <ele>866</ele>
        <time>2018-01-20T11:59:24Z</time>
      </trkpt>
      <trkpt lat="43.71871" lon="7.02834">
        <ele>866</ele>
        <time>2018-01-20T11:59:31Z</time>
      </trkpt>
      <trkpt lat="43.7186" lon="7.02815">
        <ele>868</ele>
        <time>2018-01-20T11:59:37Z</time>
      </trkpt>
      <trkpt lat="43.71854" lon="7.02808">
        <ele>867</ele>
        <time>2018-01-20T11:59:39Z</time>
      </trkpt>
      <trkpt lat="43.71842" lon="7.02789">
        <ele>867</ele>
        <time>2018-01-20T11:59:44Z</time>
      </trkpt>
      <trkpt lat="43.71838" lon="7.02766">
        <ele>866</ele>
        <time>2018-01-20T11:59:50Z</time>
      </trkpt>
      <trkpt lat="43.71837" lon="7.02755">
        <ele>864</ele>
        <time>2018-01-20T11:59:56Z</time>
      </trkpt>
      <trkpt lat="43.7183" lon="7.02745">
        <ele>861</ele>
        <time>2018-01-20T12:00:25Z</time>
      </trkpt>
      <trkpt lat="43.71798" lon="7.02744">
        <ele>857</ele>
        <time>2018-01-20T12:00:31Z</time>
      </trkpt>
      <trkpt lat="43.71761" lon="7.02742">
        <ele>855</ele>
        <time>2018-01-20T12:00:37Z</time>
      </trkpt>
      <trkpt lat="43.7173" lon="7.02738">
        <ele>851</ele>
        <time>2018-01-20T12:00:43Z</time>
      </trkpt>
      <trkpt lat="43.71705" lon="7.0274">
        <ele>849</ele>
        <time>2018-01-20T12:00:49Z</time>
      </trkpt>
      <trkpt lat="43.71689" lon="7.02734">
        <ele>848</ele>
        <time>2018-01-20T12:00:55Z</time>
      </trkpt>
      <trkpt lat="43.71673" lon="7.02727">
        <ele>847</ele>
        <time>2018-01-20T12:01:27Z</time>
      </trkpt>
      <trkpt lat="43.71678" lon="7.02738">
        <ele>847</ele>
        <time>2018-01-20T12:03:07Z</time>
      </trkpt>
      <trkpt lat="43.7169" lon="7.02757">
        <ele>846</ele>
        <time>2018-01-20T12:03:12Z</time>
      </trkpt>
      <trkpt lat="43.71707" lon="7.02779">
        <ele>846</ele>
        <time>2018-01-20T12:03:18Z</time>
      </trkpt>
      <trkpt lat="43.71726" lon="7.02802">
        <ele>847</ele>
        <time>2018-01-20T12:03:24Z</time>
      </trkpt>
      <trkpt lat="43.71739" lon="7.0282">
        <ele>847</ele>
        <time>2018-01-20T12:03:29Z</time>
      </trkpt>
      <trkpt lat="43.71753" lon="7.02837">
        <ele>848</ele>
        <time>2018-01-20T12:03:34Z</time>
      </trkpt>
      <trkpt lat="43.71769" lon="7.02862">
        <ele>848</ele>
        <time>2018-01-20T12:03:40Z</time>
      </trkpt>
      <trkpt lat="43.71787" lon="7.02889">
        <ele>848</ele>
        <time>2018-01-20T12:03:46Z</time>
      </trkpt>
      <trkpt lat="43.71804" lon="7.02915">
        <ele>849</ele>
        <time>2018-01-20T12:03:52Z</time>
      </trkpt>
      <trkpt lat="43.71826" lon="7.02943">
        <ele>840</ele>
        <time>2018-01-20T12:03:58Z</time>
      </trkpt>
      <trkpt lat="43.71851" lon="7.02978">
        <ele>847</ele>
        <time>2018-01-20T12:04:04Z</time>
      </trkpt>
      <trkpt lat="43.71874" lon="7.03021">
        <ele>839</ele>
        <time>2018-01-20T12:04:10Z</time>
      </trkpt>
      <trkpt lat="43.71896" lon="7.03063">
        <ele>838</ele>
        <time>2018-01-20T12:04:16Z</time>
      </trkpt>
      <trkpt lat="43.71913" lon="7.03108">
        <ele>831</ele>
        <time>2018-01-20T12:04:22Z</time>
      </trkpt>
      <trkpt lat="43.71919" lon="7.03151">
        <ele>845</ele>
        <time>2018-01-20T12:04:28Z</time>
      </trkpt>
      <trkpt lat="43.7192" lon="7.0319">
        <ele>841</ele>
        <time>2018-01-20T12:04:33Z</time>
      </trkpt>
      <trkpt lat="43.71926" lon="7.03231">
        <ele>838</ele>
        <time>2018-01-20T12:04:39Z</time>
      </trkpt>
      <trkpt lat="43.71946" lon="7.03253">
        <ele>834</ele>
        <time>2018-01-20T12:04:45Z</time>
      </trkpt>
      <trkpt lat="43.71953" lon="7.03264">
        <ele>835</ele>
        <time>2018-01-20T12:04:48Z</time>
      </trkpt>
      <trkpt lat="43.71967" lon="7.03277">
        <ele>837</ele>
        <time>2018-01-20T12:04:53Z</time>
      </trkpt>
      <trkpt lat="43.71974" lon="7.03285">
        <ele>837</ele>
        <time>2018-01-20T12:04:56Z</time>
      </trkpt>
      <trkpt lat="43.7198" lon="7.03291">
        <ele>837</ele>
        <time>2018-01-20T12:04:58Z</time>
      </trkpt>
      <trkpt lat="43.71992" lon="7.03329">
        <ele>836</ele>
        <time>2018-01-20T12:05:04Z</time>
      </trkpt>
      <trkpt lat="43.72018" lon="7.03378">
        <ele>837</ele>
        <time>2018-01-20T12:05:10Z</time>
      </trkpt>
      <trkpt lat="43.72036" lon="7.03419">
        <ele>826</ele>
        <time>2018-01-20T12:05:15Z</time>
      </trkpt>
      <trkpt lat="43.72045" lon="7.03467">
        <ele>825</ele>
        <time>2018-01-20T12:05:20Z</time>
      </trkpt>
      <trkpt lat="43.72049" lon="7.03493">
        <ele>824</ele>
        <time>2018-01-20T12:05:25Z</time>
      </trkpt>
      <trkpt lat="43.72059" lon="7.03514">
        <ele>818</ele>
        <time>2018-01-20T12:05:29Z</time>
      </trkpt>
      <trkpt lat="43.7206" lon="7.03528">
        <ele>816</ele>
        <time>2018-01-20T12:06:26Z</time>
      </trkpt>
      <trkpt lat="43.72052" lon="7.03523">
        <ele>815</ele>
        <time>2018-01-20T12:06:31Z</time>
      </trkpt>
      <trkpt lat="43.72037" lon="7.03512">
        <ele>813</ele>
        <time>2018-01-20T12:06:37Z</time>
      </trkpt>
      <trkpt lat="43.72015" lon="7.03493">
        <ele>815</ele>
        <time>2018-01-20T12:06:44Z</time>
      </trkpt>
      <trkpt lat="43.72016" lon="7.03471">
        <ele>820</ele>
        <time>2018-01-20T12:06:49Z</time>
      </trkpt>
      <trkpt lat="43.72009" lon="7.03431">
        <ele>821</ele>
        <time>2018-01-20T12:06:55Z</time>
      </trkpt>
      <trkpt lat="43.71986" lon="7.03407">
        <ele>816</ele>
        <time>2018-01-20T12:07:00Z</time>
      </trkpt>
      <trkpt lat="43.71969" lon="7.03396">
        <ele>814</ele>
        <time>2018-01-20T12:07:05Z</time>
      </trkpt>
      <trkpt lat="43.71951" lon="7.03384">
        <ele>812</ele>
        <time>2018-01-20T12:07:09Z</time>
      </trkpt>
      <trkpt lat="43.71943" lon="7.03382">
        <ele>811</ele>
        <time>2018-01-20T12:07:11Z</time>
      </trkpt>
      <trkpt lat="43.71918" lon="7.03381">
        <ele>808</ele>
        <time>2018-01-20T12:07:16Z</time>
      </trkpt>
      <trkpt lat="43.71892" lon="7.03392">
        <ele>789</ele>
        <time>2018-01-20T12:07:21Z</time>
      </trkpt>
      <trkpt lat="43.71884" lon="7.03396">
        <ele>788</ele>
        <time>2018-01-20T12:07:23Z</time>
      </trkpt>
      <trkpt lat="43.71861" lon="7.03383">
        <ele>786</ele>
        <time>2018-01-20T12:07:29Z</time>
      </trkpt>
      <trkpt lat="43.71841" lon="7.03349">
        <ele>786</ele>
        <time>2018-01-20T12:07:35Z</time>
      </trkpt>
      <trkpt lat="43.71831" lon="7.03343">
        <ele>774</ele>
        <time>2018-01-20T12:07:38Z</time>
      </trkpt>
      <trkpt lat="43.71816" lon="7.03297">
        <ele>771</ele>
        <time>2018-01-20T12:07:44Z</time>
      </trkpt>
      <trkpt lat="43.71809" lon="7.0325">
        <ele>775</ele>
        <time>2018-01-20T12:07:50Z</time>
      </trkpt>
      <trkpt lat="43.71802" lon="7.03229">
        <ele>779</ele>
        <time>2018-01-20T12:07:54Z</time>
      </trkpt>
      <trkpt lat="43.71796" lon="7.03188">
        <ele>780</ele>
        <time>2018-01-20T12:08:01Z</time>
      </trkpt>
      <trkpt lat="43.7179" lon="7.03183">
        <ele>779</ele>
        <time>2018-01-20T12:08:06Z</time>
      </trkpt>
      <trkpt lat="43.71783" lon="7.03188">
        <ele>777</ele>
        <time>2018-01-20T12:08:22Z</time>
      </trkpt>
      <trkpt lat="43.71774" lon="7.03193">
        <ele>775</ele>
        <time>2018-01-20T12:08:31Z</time>
      </trkpt>
      <trkpt lat="43.71758" lon="7.03189">
        <ele>772</ele>
        <time>2018-01-20T12:08:36Z</time>
      </trkpt>
      <trkpt lat="43.71737" lon="7.03176">
        <ele>757</ele>
        <time>2018-01-20T12:08:42Z</time>
      </trkpt>
      <trkpt lat="43.71718" lon="7.03162">
        <ele>764</ele>
        <time>2018-01-20T12:08:48Z</time>
      </trkpt>
      <trkpt lat="43.71701" lon="7.03152">
        <ele>762</ele>
        <time>2018-01-20T12:08:53Z</time>
      </trkpt>
      <trkpt lat="43.71681" lon="7.03126">
        <ele>762</ele>
        <time>2018-01-20T12:08:59Z</time>
      </trkpt>
      <trkpt lat="43.71665" lon="7.03096">
        <ele>754</ele>
        <time>2018-01-20T12:09:05Z</time>
      </trkpt>
      <trkpt lat="43.71645" lon="7.03063">
        <ele>765</ele>
        <time>2018-01-20T12:09:11Z</time>
      </trkpt>
      <trkpt lat="43.7163" lon="7.03047">
        <ele>765</ele>
        <time>2018-01-20T12:09:15Z</time>
      </trkpt>
      <trkpt lat="43.71615" lon="7.03058">
        <ele>761</ele>
        <time>2018-01-20T12:09:20Z</time>
      </trkpt>
      <trkpt lat="43.71587" lon="7.03054">
        <ele>758</ele>
        <time>2018-01-20T12:09:26Z</time>
      </trkpt>
      <trkpt lat="43.71559" lon="7.03051">
        <ele>749</ele>
        <time>2018-01-20T12:09:32Z</time>
      </trkpt>
      <trkpt lat="43.71532" lon="7.0303">
        <ele>752</ele>
        <time>2018-01-20T12:09:38Z</time>
      </trkpt>
      <trkpt lat="43.71524" lon="7.03032">
        <ele>751</ele>
        <time>2018-01-20T12:11:02Z</time>
      </trkpt>
      <trkpt lat="43.71505" lon="7.03041">
        <ele>749</ele>
        <time>2018-01-20T12:11:07Z</time>
      </trkpt>
      <trkpt lat="43.7148" lon="7.03043">
        <ele>745</ele>
        <time>2018-01-20T12:11:13Z</time>
      </trkpt>
      <trkpt lat="43.71448" lon="7.03049">
        <ele>744</ele>
        <time>2018-01-20T12:11:19Z</time>
      </trkpt>
      <trkpt lat="43.71423" lon="7.03062">
        <ele>739</ele>
        <time>2018-01-20T12:11:24Z</time>
      </trkpt>
      <trkpt lat="43.71428" lon="7.03071">
        <ele>737</ele>
        <time>2018-01-20T12:11:37Z</time>
      </trkpt>
      <trkpt lat="43.71447" lon="7.03064">
        <ele>741</ele>
        <time>2018-01-20T12:11:44Z</time>
      </trkpt>
      <trkpt lat="43.71472" lon="7.0307">
        <ele>740</ele>
        <time>2018-01-20T12:11:51Z</time>
      </trkpt>
      <trkpt lat="43.7149" lon="7.0308">
        <ele>735</ele>
        <time>2018-01-20T12:11:57Z</time>
      </trkpt>
      <trkpt lat="43.71506" lon="7.03088">
        <ele>727</ele>
        <time>2018-01-20T12:12:03Z</time>
      </trkpt>
      <trkpt lat="43.71513" lon="7.0309">
        <ele>726</ele>
        <time>2018-01-20T12:12:06Z</time>
      </trkpt>
      <trkpt lat="43.71531" lon="7.03099">
        <ele>723</ele>
        <time>2018-01-20T12:12:11Z</time>
      </trkpt>
      <trkpt lat="43.71545" lon="7.03117">
        <ele>721</ele>
        <time>2018-01-20T12:12:15Z</time>
      </trkpt>
      <trkpt lat="43.71569" lon="7.03134">
        <ele>720</ele>
        <time>2018-01-20T12:12:21Z</time>
      </trkpt>
      <trkpt lat="43.71595" lon="7.0314">
        <ele>731</ele>
        <time>2018-01-20T12:12:28Z</time>
      </trkpt>
      <trkpt lat="43.71592" lon="7.03164">
        <ele>721</ele>
        <time>2018-01-20T12:12:33Z</time>
      </trkpt>
      <trkpt lat="43.71591" lon="7.03176">
        <ele>714</ele>
        <time>2018-01-20T12:12:35Z</time>
      </trkpt>
      <trkpt lat="43.7159" lon="7.03186">
        <ele>714</ele>
        <time>2018-01-20T12:12:37Z</time>
      </trkpt>
      <trkpt lat="43.7159" lon="7.03225">
        <ele>707</ele>
        <time>2018-01-20T12:12:44Z</time>
      </trkpt>
      <trkpt lat="43.71594" lon="7.03261">
        <ele>694</ele>
        <time>2018-01-20T12:12:50Z</time>
      </trkpt>
      <trkpt lat="43.71597" lon="7.033">
        <ele>693</ele>
        <time>2018-01-20T12:12:56Z</time>
      </trkpt>
      <trkpt lat="43.71597" lon="7.03321">
        <ele>689</ele>
        <time>2018-01-20T12:13:01Z</time>
      </trkpt>
      <trkpt lat="43.71591" lon="7.03327">
        <ele>685</ele>
        <time>2018-01-20T12:13:07Z</time>
      </trkpt>
      <trkpt lat="43.71579" lon="7.03311">
        <ele>675</ele>
        <time>2018-01-20T12:13:12Z</time>
      </trkpt>
      <trkpt lat="43.71563" lon="7.03276">
        <ele>676</ele>
        <time>2018-01-20T12:13:18Z</time>
      </trkpt>
      <trkpt lat="43.71557" lon="7.03269">
        <ele>676</ele>
        <time>2018-01-20T12:13:29Z</time>
      </trkpt>
      <trkpt lat="43.71549" lon="7.03261">
        <ele>675</ele>
        <time>2018-01-20T12:14:00Z</time>
      </trkpt>
      <trkpt lat="43.71538" lon="7.03264">
        <ele>673</ele>
        <time>2018-01-20T12:14:10Z</time>
      </trkpt>
      <trkpt lat="43.71537" lon="7.03276">
        <ele>671</ele>
        <time>2018-01-20T12:14:27Z</time>
      </trkpt>
      <trkpt lat="43.71539" lon="7.03299">
        <ele>669</ele>
        <time>2018-01-20T12:14:33Z</time>
      </trkpt>
      <trkpt lat="43.71531" lon="7.03291">
        <ele>669</ele>
        <time>2018-01-20T12:14:36Z</time>
      </trkpt>
      <trkpt lat="43.7151" lon="7.03269">
        <ele>668</ele>
        <time>2018-01-20T12:14:43Z</time>
      </trkpt>
      <trkpt lat="43.71505" lon="7.03281">
        <ele>667</ele>
        <time>2018-01-20T12:15:56Z</time>
      </trkpt>
      <trkpt lat="43.71502" lon="7.03294">
        <ele>665</ele>
        <time>2018-01-20T12:16:00Z</time>
      </trkpt>
      <trkpt lat="43.71495" lon="7.03303">
        <ele>654</ele>
        <time>2018-01-20T12:16:10Z</time>
      </trkpt>
      <trkpt lat="43.71497" lon="7.03327">
        <ele>648</ele>
        <time>2018-01-20T12:16:14Z</time>
      </trkpt>
      <trkpt lat="43.71502" lon="7.03361">
        <ele>650</ele>
        <time>2018-01-20T12:16:21Z</time>
      </trkpt>
      <trkpt lat="43.71499" lon="7.03387">
        <ele>633</ele>
        <time>2018-01-20T12:16:26Z</time>
      </trkpt>
      <trkpt lat="43.71498" lon="7.03411">
        <ele>632</ele>
        <time>2018-01-20T12:16:32Z</time>
      </trkpt>
      <trkpt lat="43.71487" lon="7.03431">
        <ele>622</ele>
        <time>2018-01-20T12:16:37Z</time>
      </trkpt>
      <trkpt lat="43.71479" lon="7.03455">
        <ele>616</ele>
        <time>2018-01-20T12:16:43Z</time>
      </trkpt>
      <trkpt lat="43.71472" lon="7.03476">
        <ele>614</ele>
        <time>2018-01-20T12:16:48Z</time>
      </trkpt>
      <trkpt lat="43.71466" lon="7.03511">
        <ele>605</ele>
        <time>2018-01-20T12:16:54Z</time>
      </trkpt>
      <trkpt lat="43.71466" lon="7.03529">
        <ele>604</ele>
        <time>2018-01-20T12:16:56Z</time>
      </trkpt>
      <trkpt lat="43.71458" lon="7.03568">
        <ele>601</ele>
        <time>2018-01-20T12:17:02Z</time>
      </trkpt>
      <trkpt lat="43.71441" lon="7.03597">
        <ele>594</ele>
        <time>2018-01-20T12:17:08Z</time>
      </trkpt>
      <trkpt lat="43.71434" lon="7.03616">
        <ele>594</ele>
        <time>2018-01-20T12:17:48Z</time>
      </trkpt>
      <trkpt lat="43.71428" lon="7.03627">
        <ele>593</ele>
        <time>2018-01-20T12:17:53Z</time>
      </trkpt>
      <trkpt lat="43.71418" lon="7.03646">
        <ele>592</ele>
        <time>2018-01-20T12:17:59Z</time>
      </trkpt>
      <trkpt lat="43.71407" lon="7.03665">
        <ele>588</ele>
        <time>2018-01-20T12:18:05Z</time>
      </trkpt>
      <trkpt lat="43.71393" lon="7.03686">
        <ele>583</ele>
        <time>2018-01-20T12:18:11Z</time>
      </trkpt>
      <trkpt lat="43.7138" lon="7.03702">
        <ele>581</ele>
        <time>2018-01-20T12:18:17Z</time>
      </trkpt>
      <trkpt lat="43.71361" lon="7.03724">
        <ele>579</ele>
        <time>2018-01-20T12:18:23Z</time>
      </trkpt>
      <trkpt lat="43.71342" lon="7.03746">
        <ele>578</ele>
        <time>2018-01-20T12:18:29Z</time>
      </trkpt>
      <trkpt lat="43.7133" lon="7.03761">
        <ele>572</ele>
        <time>2018-01-20T12:18:34Z</time>
      </trkpt>
      <trkpt lat="43.71338" lon="7.03765">
        <ele>573</ele>
        <time>2018-01-20T12:18:41Z</time>
      </trkpt>
      <trkpt lat="43.71354" lon="7.03763">
        <ele>571</ele>
        <time>2018-01-20T12:18:46Z</time>
      </trkpt>
      <trkpt lat="43.71362" lon="7.03775">
        <ele>569</ele>
        <time>2018-01-20T12:18:58Z</time>
      </trkpt>
      <trkpt lat="43.71366" lon="7.03784">
        <ele>568</ele>
        <time>2018-01-20T12:19:08Z</time>
      </trkpt>
      <trkpt lat="43.71384" lon="7.03778">
        <ele>568</ele>
        <time>2018-01-20T12:19:13Z</time>
      </trkpt>
      <trkpt lat="43.714" lon="7.03782">
        <ele>568</ele>
        <time>2018-01-20T12:19:18Z</time>
      </trkpt>
      <trkpt lat="43.71414" lon="7.03796">
        <ele>567</ele>
        <time>2018-01-20T12:19:23Z</time>
      </trkpt>
      <trkpt lat="43.71407" lon="7.03801">
        <ele>567</ele>
        <time>2018-01-20T12:19:28Z</time>
      </trkpt>
      <trkpt lat="43.71403" lon="7.03811">
        <ele>566</ele>
        <time>2018-01-20T12:19:31Z</time>
      </trkpt>
      <trkpt lat="43.71398" lon="7.03821">
        <ele>566</ele>
        <time>2018-01-20T12:19:35Z</time>
      </trkpt>
      <trkpt lat="43.71387" lon="7.03842">
        <ele>561</ele>
        <time>2018-01-20T12:19:40Z</time>
      </trkpt>
      <trkpt lat="43.71385" lon="7.03852">
        <ele>561</ele>
        <time>2018-01-20T12:19:44Z</time>
      </trkpt>
      <trkpt lat="43.7138" lon="7.03875">
        <ele>560</ele>
        <time>2018-01-20T12:19:51Z</time>
      </trkpt>
      <trkpt lat="43.71372" lon="7.03896">
        <ele>559</ele>
        <time>2018-01-20T12:19:58Z</time>
      </trkpt>
      <trkpt lat="43.71361" lon="7.03895">
        <ele>556</ele>
        <time>2018-01-20T12:20:03Z</time>
      </trkpt>
      <trkpt lat="43.71369" lon="7.03899">
        <ele>558</ele>
        <time>2018-01-20T12:20:10Z</time>
      </trkpt>
      <trkpt lat="43.71363" lon="7.03908">
        <ele>556</ele>
        <time>2018-01-20T12:22:32Z</time>
      </trkpt>
      <trkpt lat="43.71353" lon="7.03929">
        <ele>553</ele>
        <time>2018-01-20T12:22:37Z</time>
      </trkpt>
      <trkpt lat="43.71348" lon="7.03965">
        <ele>554</ele>
        <time>2018-01-20T12:22:43Z</time>
      </trkpt>
      <trkpt lat="43.71338" lon="7.04005">
        <ele>543</ele>
        <time>2018-01-20T12:22:49Z</time>
      </trkpt>
      <trkpt lat="43.71319" lon="7.04039">
        <ele>521</ele>
        <time>2018-01-20T12:22:55Z</time>
      </trkpt>
      <trkpt lat="43.71311" lon="7.04077">
        <ele>523</ele>
        <time>2018-01-20T12:23:03Z</time>
      </trkpt>
      <trkpt lat="43.7131" lon="7.04088">
        <ele>525</ele>
        <time>2018-01-20T12:23:31Z</time>
      </trkpt>
      <trkpt lat="43.71302" lon="7.0411">
        <ele>521</ele>
        <time>2018-01-20T12:23:38Z</time>
      </trkpt>
      <trkpt lat="43.71298" lon="7.04133">
        <ele>520</ele>
        <time>2018-01-20T12:23:46Z</time>
      </trkpt>
      <trkpt lat="43.71295" lon="7.04157">
        <ele>520</ele>
        <time>2018-01-20T12:23:52Z</time>
      </trkpt>
      <trkpt lat="43.71288" lon="7.0418">
        <ele>523</ele>
        <time>2018-01-20T12:23:57Z</time>
      </trkpt>
      <trkpt lat="43.71275" lon="7.04213">
        <ele>523</ele>
        <time>2018-01-20T12:24:04Z</time>
      </trkpt>
      <trkpt lat="43.71265" lon="7.04247">
        <ele>521</ele>
        <time>2018-01-20T12:24:10Z</time>
      </trkpt>
      <trkpt lat="43.71261" lon="7.04279">
        <ele>528</ele>
        <time>2018-01-20T12:24:15Z</time>
      </trkpt>
      <trkpt lat="43.71259" lon="7.0429">
        <ele>529</ele>
        <time>2018-01-20T12:24:17Z</time>
      </trkpt>
      <trkpt lat="43.7126" lon="7.04313">
        <ele>530</ele>
        <time>2018-01-20T12:24:22Z</time>
      </trkpt>
      <trkpt lat="43.71258" lon="7.04338">
        <ele>529</ele>
        <time>2018-01-20T12:24:28Z</time>
      </trkpt>
      <trkpt lat="43.71256" lon="7.04359">
        <ele>531</ele>
        <time>2018-01-20T12:24:42Z</time>
      </trkpt>
      <trkpt lat="43.71259" lon="7.04369">
        <ele>532</ele>
        <time>2018-01-20T12:25:15Z</time>
      </trkpt>
      <trkpt lat="43.71264" lon="7.04389">
        <ele>531</ele>
        <time>2018-01-20T12:25:21Z</time>
      </trkpt>
      <trkpt lat="43.71265" lon="7.04413">
        <ele>529</ele>
        <time>2018-01-20T12:25:28Z</time>
      </trkpt>
      <trkpt lat="43.71268" lon="7.04433">
        <ele>527</ele>
        <time>2018-01-20T12:25:33Z</time>
      </trkpt>
      <trkpt lat="43.71275" lon="7.04453">
        <ele>527</ele>
        <time>2018-01-20T12:25:37Z</time>
      </trkpt>
      <trkpt lat="43.7129" lon="7.04467">
        <ele>528</ele>
        <time>2018-01-20T12:25:42Z</time>
      </trkpt>
      <trkpt lat="43.71299" lon="7.04504">
        <ele>521</ele>
        <time>2018-01-20T12:25:48Z</time>
      </trkpt>
      <trkpt lat="43.71304" lon="7.04523">
        <ele>521</ele>
        <time>2018-01-20T12:25:50Z</time>
      </trkpt>
      <trkpt lat="43.7132" lon="7.04569">
        <ele>520</ele>
        <time>2018-01-20T12:25:55Z</time>
      </trkpt>
      <trkpt lat="43.71332" lon="7.04609">
        <ele>514</ele>
        <time>2018-01-20T12:26:02Z</time>
      </trkpt>
      <trkpt lat="43.71336" lon="7.04634">
        <ele>525</ele>
        <time>2018-01-20T12:26:07Z</time>
      </trkpt>
      <trkpt lat="43.71332" lon="7.04672">
        <ele>513</ele>
        <time>2018-01-20T12:26:13Z</time>
      </trkpt>
      <trkpt lat="43.71334" lon="7.04699">
        <ele>517</ele>
        <time>2018-01-20T12:26:19Z</time>
      </trkpt>
      <trkpt lat="43.71344" lon="7.04728">
        <ele>514</ele>
        <time>2018-01-20T12:26:27Z</time>
      </trkpt>
      <trkpt lat="43.71341" lon="7.04742">
        <ele>511</ele>
        <time>2018-01-20T12:27:02Z</time>
      </trkpt>
      <trkpt lat="43.71336" lon="7.04778">
        <ele>507</ele>
        <time>2018-01-20T12:27:08Z</time>
      </trkpt>
      <trkpt lat="43.71344" lon="7.04801">
        <ele>505</ele>
        <time>2018-01-20T12:27:14Z</time>
      </trkpt>
      <trkpt lat="43.71344" lon="7.04828">
        <ele>501</ele>
        <time>2018-01-20T12:27:19Z</time>
      </trkpt>
      <trkpt lat="43.71356" lon="7.04855">
        <ele>497</ele>
        <time>2018-01-20T12:27:25Z</time>
      </trkpt>
      <trkpt lat="43.71368" lon="7.0488">
        <ele>496</ele>
        <time>2018-01-20T12:27:30Z</time>
      </trkpt>
      <trkpt lat="43.71395" lon="7.04912">
        <ele>496</ele>
        <time>2018-01-20T12:27:36Z</time>
      </trkpt>
      <trkpt lat="43.71422" lon="7.04937">
        <ele>494</ele>
        <time>2018-01-20T12:27:41Z</time>
      </trkpt>
      <trkpt lat="43.71448" lon="7.04983">
        <ele>491</ele>
        <time>2018-01-20T12:27:47Z</time>
      </trkpt>
      <trkpt lat="43.71452" lon="7.04994">
        <ele>491</ele>
        <time>2018-01-20T12:27:48Z</time>
      </trkpt>
      <trkpt lat="43.71463" lon="7.0503">
        <ele>482</ele>
        <time>2018-01-20T12:27:53Z</time>
      </trkpt>
      <trkpt lat="43.71456" lon="7.0507">
        <ele>479</ele>
        <time>2018-01-20T12:27:59Z</time>
      </trkpt>
      <trkpt lat="43.71463" lon="7.05076">
        <ele>479</ele>
        <time>2018-01-20T12:28:00Z</time>
      </trkpt>
      <trkpt lat="43.7149" lon="7.05111">
        <ele>470</ele>
        <time>2018-01-20T12:28:06Z</time>
      </trkpt>
      <trkpt lat="43.7151" lon="7.05139">
        <ele>472</ele>
        <time>2018-01-20T12:28:11Z</time>
      </trkpt>
      <trkpt lat="43.71511" lon="7.05169">
        <ele>462</ele>
        <time>2018-01-20T12:28:16Z</time>
      </trkpt>
      <trkpt lat="43.71521" lon="7.05211">
        <ele>459</ele>
        <time>2018-01-20T12:28:21Z</time>
      </trkpt>
      <trkpt lat="43.71527" lon="7.05222">
        <ele>458</ele>
        <time>2018-01-20T12:28:23Z</time>
      </trkpt>
      <trkpt lat="43.71533" lon="7.05231">
        <ele>458</ele>
        <time>2018-01-20T12:28:25Z</time>
      </trkpt>
      <trkpt lat="43.71547" lon="7.05244">
        <ele>458</ele>
        <time>2018-01-20T12:28:30Z</time>
      </trkpt>
      <trkpt lat="43.7157" lon="7.05275">
        <ele>449</ele>
        <time>2018-01-20T12:28:36Z</time>
      </trkpt>
      <trkpt lat="43.71589" lon="7.05303">
        <ele>449</ele>
        <time>2018-01-20T12:28:42Z</time>
      </trkpt>
      <trkpt lat="43.71594" lon="7.05325">
        <ele>446</ele>
        <time>2018-01-20T12:28:49Z</time>
      </trkpt>
      <trkpt lat="43.71595" lon="7.05349">
        <ele>438</ele>
        <time>2018-01-20T12:28:55Z</time>
      </trkpt>
      <trkpt lat="43.71601" lon="7.05357">
        <ele>436</ele>
        <time>2018-01-20T12:29:00Z</time>
      </trkpt>
      <trkpt lat="43.71608" lon="7.05356">
        <ele>436</ele>
        <time>2018-01-20T12:30:06Z</time>
      </trkpt>
      <trkpt lat="43.71624" lon="7.05365">
        <ele>435</ele>
        <time>2018-01-20T12:30:12Z</time>
      </trkpt>
      <trkpt lat="43.7164" lon="7.05372">
        <ele>435</ele>
        <time>2018-01-20T12:30:18Z</time>
      </trkpt>
      <trkpt lat="43.71658" lon="7.05378">
        <ele>434</ele>
        <time>2018-01-20T12:30:23Z</time>
      </trkpt>
      <trkpt lat="43.71684" lon="7.05384">
        <ele>433</ele>
        <time>2018-01-20T12:30:29Z</time>
      </trkpt>
      <trkpt lat="43.7171" lon="7.0539">
        <ele>433</ele>
        <time>2018-01-20T12:30:35Z</time>
      </trkpt>
      <trkpt lat="43.71734" lon="7.05392">
        <ele>432</ele>
        <time>2018-01-20T12:30:41Z</time>
      </trkpt>
      <trkpt lat="43.71754" lon="7.05397">
        <ele>431</ele>
        <time>2018-01-20T12:30:46Z</time>
      </trkpt>
      <trkpt lat="43.7178" lon="7.05403">
        <ele>433</ele>
        <time>2018-01-20T12:30:52Z</time>
      </trkpt>
      <trkpt lat="43.71815" lon="7.05411">
        <ele>433</ele>
        <time>2018-01-20T12:30:58Z</time>
      </trkpt>
      <trkpt lat="43.71843" lon="7.05433">
        <ele>432</ele>
        <time>2018-01-20T12:31:04Z</time>
      </trkpt>
      <trkpt lat="43.71823" lon="7.05459">
        <ele>422</ele>
        <time>2018-01-20T12:31:11Z</time>
      </trkpt>
      <trkpt lat="43.7181" lon="7.05475">
        <ele>420</ele>
        <time>2018-01-20T12:31:16Z</time>
      </trkpt>
      <trkpt lat="43.71806" lon="7.05485">
        <ele>420</ele>
        <time>2018-01-20T12:31:20Z</time>
      </trkpt>
      <trkpt lat="43.718" lon="7.05512">
        <ele>416</ele>
        <time>2018-01-20T12:31:27Z</time>
      </trkpt>
      <trkpt lat="43.71795" lon="7.05533">
        <ele>416</ele>
        <time>2018-01-20T12:31:33Z</time>
      </trkpt>
      <trkpt lat="43.71792" lon="7.05543">
        <ele>415</ele>
        <time>2018-01-20T12:31:36Z</time>
      </trkpt>
      <trkpt lat="43.71786" lon="7.05566">
        <ele>415</ele>
        <time>2018-01-20T12:31:43Z</time>
      </trkpt>
      <trkpt lat="43.71779" lon="7.05587">
        <ele>416</ele>
        <time>2018-01-20T12:31:50Z</time>
      </trkpt>
      <trkpt lat="43.7177" lon="7.05609">
        <ele>416</ele>
        <time>2018-01-20T12:31:56Z</time>
      </trkpt>
      <trkpt lat="43.71761" lon="7.05628">
        <ele>417</ele>
        <time>2018-01-20T12:32:03Z</time>
      </trkpt>
      <trkpt lat="43.71751" lon="7.05651">
        <ele>417</ele>
        <time>2018-01-20T12:32:10Z</time>
      </trkpt>
      <trkpt lat="43.71743" lon="7.05671">
        <ele>413</ele>
        <time>2018-01-20T12:32:16Z</time>
      </trkpt>
      <trkpt lat="43.71743" lon="7.05694">
        <ele>410</ele>
        <time>2018-01-20T12:32:22Z</time>
      </trkpt>
      <trkpt lat="43.71736" lon="7.05716">
        <ele>410</ele>
        <time>2018-01-20T12:32:29Z</time>
      </trkpt>
      <trkpt lat="43.71718" lon="7.05745">
        <ele>410</ele>
        <time>2018-01-20T12:32:35Z</time>
      </trkpt>
      <trkpt lat="43.71702" lon="7.05777">
        <ele>413</ele>
        <time>2018-01-20T12:32:41Z</time>
      </trkpt>
      <trkpt lat="43.71687" lon="7.05813">
        <ele>413</ele>
        <time>2018-01-20T12:32:50Z</time>
      </trkpt>
      <trkpt lat="43.71685" lon="7.05799">
        <ele>413</ele>
        <time>2018-01-20T12:37:21Z</time>
      </trkpt>
      <trkpt lat="43.71684" lon="7.05776">
        <ele>411</ele>
        <time>2018-01-20T12:37:27Z</time>
      </trkpt>
      <trkpt lat="43.7168" lon="7.05752">
        <ele>408</ele>
        <time>2018-01-20T12:37:35Z</time>
      </trkpt>
      <trkpt lat="43.71684" lon="7.0573">
        <ele>406</ele>
        <time>2018-01-20T12:37:42Z</time>
      </trkpt>
      <trkpt lat="43.71691" lon="7.0571">
        <ele>405</ele>
        <time>2018-01-20T12:37:48Z</time>
      </trkpt>
      <trkpt lat="43.71686" lon="7.05717">
        <ele>405</ele>
        <time>2018-01-20T12:38:07Z</time>
      </trkpt>
      <trkpt lat="43.71677" lon="7.0574">
        <ele>405</ele>
        <time>2018-01-20T12:38:13Z</time>
      </trkpt>
      <trkpt lat="43.71652" lon="7.05752">
        <ele>401</ele>
        <time>2018-01-20T12:38:20Z</time>
      </trkpt>
      <trkpt lat="43.71628" lon="7.05758">
        <ele>396</ele>
        <time>2018-01-20T12:38:26Z</time>
      </trkpt>
      <trkpt lat="43.71613" lon="7.05769">
        <ele>393</ele>
        <time>2018-01-20T12:38:32Z</time>
      </trkpt>
      <trkpt lat="43.71598" lon="7.05793">
        <ele>395</ele>
        <time>2018-01-20T12:38:39Z</time>
      </trkpt>
      <trkpt lat="43.71592" lon="7.05802">
        <ele>397</ele>
        <time>2018-01-20T12:39:01Z</time>
      </trkpt>
      <trkpt lat="43.71585" lon="7.05804">
        <ele>397</ele>
        <time>2018-01-20T12:39:05Z</time>
      </trkpt>
      <trkpt lat="43.7157" lon="7.05818">
        <ele>385</ele>
        <time>2018-01-20T12:39:12Z</time>
      </trkpt>
      <trkpt lat="43.71557" lon="7.05827">
        <ele>381</ele>
        <time>2018-01-20T12:39:19Z</time>
      </trkpt>
      <trkpt lat="43.71544" lon="7.05838">
        <ele>386</ele>
        <time>2018-01-20T12:39:30Z</time>
      </trkpt>
      <trkpt lat="43.71537" lon="7.05842">
        <ele>384</ele>
        <time>2018-01-20T12:39:36Z</time>
      </trkpt>
      <trkpt lat="43.7153" lon="7.05848">
        <ele>382</ele>
        <time>2018-01-20T12:39:44Z</time>
      </trkpt>
      <trkpt lat="43.71525" lon="7.05856">
        <ele>382</ele>
        <time>2018-01-20T12:39:51Z</time>
      </trkpt>
      <trkpt lat="43.7152" lon="7.05864">
        <ele>382</ele>
        <time>2018-01-20T12:39:57Z</time>
      </trkpt>
      <trkpt lat="43.7151" lon="7.05881">
        <ele>383</ele>
        <time>2018-01-20T12:40:03Z</time>
      </trkpt>
      <trkpt lat="43.71495" lon="7.0589">
        <ele>366</ele>
        <time>2018-01-20T12:40:12Z</time>
      </trkpt>
      <trkpt lat="43.7149" lon="7.05899">
        <ele>368</ele>
        <time>2018-01-20T12:40:16Z</time>
      </trkpt>
      <trkpt lat="43.71486" lon="7.05907">
        <ele>369</ele>
        <time>2018-01-20T12:40:40Z</time>
      </trkpt>
      <trkpt lat="43.71477" lon="7.05923">
        <ele>368</ele>
        <time>2018-01-20T12:40:52Z</time>
      </trkpt>
      <trkpt lat="43.71476" lon="7.05933">
        <ele>367</ele>
        <time>2018-01-20T12:40:58Z</time>
      </trkpt>
      <trkpt lat="43.71482" lon="7.05939">
        <ele>367</ele>
        <time>2018-01-20T12:41:06Z</time>
      </trkpt>
      <trkpt lat="43.71475" lon="7.05947">
        <ele>364</ele>
        <time>2018-01-20T12:41:12Z</time>
      </trkpt>
      <trkpt lat="43.71456" lon="7.05952">
        <ele>362</ele>
        <time>2018-01-20T12:41:18Z</time>
      </trkpt>
      <trkpt lat="43.71437" lon="7.05959">
        <ele>360</ele>
        <time>2018-01-20T12:41:24Z</time>
      </trkpt>
      <trkpt lat="43.71425" lon="7.05971">
        <ele>359</ele>
        <time>2018-01-20T12:41:51Z</time>
      </trkpt>
      <trkpt lat="43.71418" lon="7.05978">
        <ele>359</ele>
        <time>2018-01-20T12:44:33Z</time>
      </trkpt>
      <trkpt lat="43.71414" lon="7.05987">
        <ele>353</ele>
        <time>2018-01-20T12:44:39Z</time>
      </trkpt>
      <trkpt lat="43.71409" lon="7.05997">
        <ele>354</ele>
        <time>2018-01-20T12:44:44Z</time>
      </trkpt>
      <trkpt lat="43.71399" lon="7.06014">
        <ele>350</ele>
        <time>2018-01-20T12:44:53Z</time>
      </trkpt>
      <trkpt lat="43.7139" lon="7.06021">
        <ele>348</ele>
        <time>2018-01-20T12:44:58Z</time>
      </trkpt>
      <trkpt lat="43.71375" lon="7.06027">
        <ele>347</ele>
        <time>2018-01-20T12:45:06Z</time>
      </trkpt>
      <trkpt lat="43.71369" lon="7.06033">
        <ele>347</ele>
        <time>2018-01-20T12:45:11Z</time>
      </trkpt>
      <trkpt lat="43.71353" lon="7.06046">
        <ele>346</ele>
        <time>2018-01-20T12:45:19Z</time>
      </trkpt>
      <trkpt lat="43.71338" lon="7.06058">
        <ele>347</ele>
        <time>2018-01-20T12:45:26Z</time>
      </trkpt>
      <trkpt lat="43.71325" lon="7.06072">
        <ele>345</ele>
        <time>2018-01-20T12:45:31Z</time>
      </trkpt>
      <trkpt lat="43.71313" lon="7.06086">
        <ele>342</ele>
        <time>2018-01-20T12:45:38Z</time>
      </trkpt>
      <trkpt lat="43.71302" lon="7.06095">
        <ele>339</ele>
        <time>2018-01-20T12:45:47Z</time>
      </trkpt>
      <trkpt lat="43.71307" lon="7.06103">
        <ele>339</ele>
        <time>2018-01-20T12:45:50Z</time>
      </trkpt>
      <trkpt lat="43.71294" lon="7.06114">
        <ele>337</ele>
        <time>2018-01-20T12:45:58Z</time>
      </trkpt>
      <trkpt lat="43.71278" lon="7.06117">
        <ele>336</ele>
        <time>2018-01-20T12:46:04Z</time>
      </trkpt>
      <trkpt lat="43.71273" lon="7.06134">
        <ele>335</ele>
        <time>2018-01-20T12:46:13Z</time>
      </trkpt>
      <trkpt lat="43.71288" lon="7.06138">
        <ele>334</ele>
        <time>2018-01-20T12:46:24Z</time>
      </trkpt>
      <trkpt lat="43.71282" lon="7.06148">
        <ele>334</ele>
        <time>2018-01-20T12:46:29Z</time>
      </trkpt>
      <trkpt lat="43.71272" lon="7.06165">
        <ele>333</ele>
        <time>2018-01-20T12:46:37Z</time>
      </trkpt>
      <trkpt lat="43.7127" lon="7.06177">
        <ele>323</ele>
        <time>2018-01-20T12:46:52Z</time>
      </trkpt>
      <trkpt lat="43.71259" lon="7.06193">
        <ele>322</ele>
        <time>2018-01-20T12:46:58Z</time>
      </trkpt>
      <trkpt lat="43.71245" lon="7.06207">
        <ele>319</ele>
        <time>2018-01-20T12:47:08Z</time>
      </trkpt>
      <trkpt lat="43.7123" lon="7.06218">
        <ele>318</ele>
        <time>2018-01-20T12:47:16Z</time>
      </trkpt>
      <trkpt lat="43.71218" lon="7.06232">
        <ele>317</ele>
        <time>2018-01-20T12:47:24Z</time>
      </trkpt>
      <trkpt lat="43.71203" lon="7.06231">
        <ele>316</ele>
        <time>2018-01-20T12:47:31Z</time>
      </trkpt>
      <trkpt lat="43.71189" lon="7.06244">
        <ele>315</ele>
        <time>2018-01-20T12:47:39Z</time>
      </trkpt>
      <trkpt lat="43.71182" lon="7.0627">
        <ele>307</ele>
        <time>2018-01-20T12:47:46Z</time>
      </trkpt>
      <trkpt lat="43.71175" lon="7.06293">
        <ele>305</ele>
        <time>2018-01-20T12:47:51Z</time>
      </trkpt>
      <trkpt lat="43.71147" lon="7.0632">
        <ele>304</ele>
        <time>2018-01-20T12:47:57Z</time>
      </trkpt>
      <trkpt lat="43.71114" lon="7.06333">
        <ele>305</ele>
        <time>2018-01-20T12:48:03Z</time>
      </trkpt>
      <trkpt lat="43.71103" lon="7.06338">
        <ele>300</ele>
        <time>2018-01-20T12:48:05Z</time>
      </trkpt>
      <trkpt lat="43.7107" lon="7.06355">
        <ele>302</ele>
        <time>2018-01-20T12:48:11Z</time>
      </trkpt>
      <trkpt lat="43.71038" lon="7.06373">
        <ele>301</ele>
        <time>2018-01-20T12:48:17Z</time>
      </trkpt>
      <trkpt lat="43.71028" lon="7.06382">
        <ele>300</ele>
        <time>2018-01-20T12:48:19Z</time>
      </trkpt>
      <trkpt lat="43.70992" lon="7.06406">
        <ele>301</ele>
        <time>2018-01-20T12:48:25Z</time>
      </trkpt>
      <trkpt lat="43.70957" lon="7.06434">
        <ele>298</ele>
        <time>2018-01-20T12:48:31Z</time>
      </trkpt>
      <trkpt lat="43.70928" lon="7.06462">
        <ele>298</ele>
        <time>2018-01-20T12:48:37Z</time>
      </trkpt>
      <trkpt lat="43.70913" lon="7.06477">
        <ele>300</ele>
        <time>2018-01-20T12:48:42Z</time>
      </trkpt>
      <trkpt lat="43.70899" lon="7.0648">
        <ele>300</ele>
        <time>2018-01-20T12:48:49Z</time>
      </trkpt>
      <trkpt lat="43.70892" lon="7.06476">
        <ele>300</ele>
        <time>2018-01-20T12:48:57Z</time>
      </trkpt>
      <trkpt lat="43.7089" lon="7.06487">
        <ele>300</ele>
        <time>2018-01-20T12:49:07Z</time>
      </trkpt>
      <trkpt lat="43.70876" lon="7.06497">
        <ele>300</ele>
        <time>2018-01-20T12:49:14Z</time>
      </trkpt>
      <trkpt lat="43.70863" lon="7.06508">
        <ele>296</ele>
        <time>2018-01-20T12:49:20Z</time>
      </trkpt>
      <trkpt lat="43.70835" lon="7.06534">
        <ele>295</ele>
        <time>2018-01-20T12:49:26Z</time>
      </trkpt>
      <trkpt lat="43.70809" lon="7.06556">
        <ele>292</ele>
        <time>2018-01-20T12:49:32Z</time>
      </trkpt>
      <trkpt lat="43.70785" lon="7.06585">
        <ele>286</ele>
        <time>2018-01-20T12:49:38Z</time>
      </trkpt>
      <trkpt lat="43.70751" lon="7.06603">
        <ele>286</ele>
        <time>2018-01-20T12:49:43Z</time>
      </trkpt>
      <trkpt lat="43.70711" lon="7.06627">
        <ele>284</ele>
        <time>2018-01-20T12:49:48Z</time>
      </trkpt>
      <trkpt lat="43.70681" lon="7.0664">
        <ele>284</ele>
        <time>2018-01-20T12:49:55Z</time>
      </trkpt>
      <trkpt lat="43.70674" lon="7.06644">
        <ele>283</ele>
        <time>2018-01-20T12:50:06Z</time>
      </trkpt>
      <trkpt lat="43.70681" lon="7.06647">
        <ele>283</ele>
        <time>2018-01-20T12:51:49Z</time>
      </trkpt>
      <trkpt lat="43.70685" lon="7.06659">
        <ele>283</ele>
        <time>2018-01-20T12:51:59Z</time>
      </trkpt>
      <trkpt lat="43.70705" lon="7.06679">
        <ele>277</ele>
        <time>2018-01-20T12:52:07Z</time>
      </trkpt>
      <trkpt lat="43.70722" lon="7.06678">
        <ele>277</ele>
        <time>2018-01-20T12:52:13Z</time>
      </trkpt>
      <trkpt lat="43.70738" lon="7.06679">
        <ele>279</ele>
        <time>2018-01-20T12:52:18Z</time>
      </trkpt>
      <trkpt lat="43.70756" lon="7.06678">
        <ele>277</ele>
        <time>2018-01-20T12:52:24Z</time>
      </trkpt>
      <trkpt lat="43.70787" lon="7.06674">
        <ele>272</ele>
        <time>2018-01-20T12:52:30Z</time>
      </trkpt>
      <trkpt lat="43.70818" lon="7.0667">
        <ele>272</ele>
        <time>2018-01-20T12:52:36Z</time>
      </trkpt>
      <trkpt lat="43.7085" lon="7.06658">
        <ele>277</ele>
        <time>2018-01-20T12:52:42Z</time>
      </trkpt>
      <trkpt lat="43.70885" lon="7.06651">
        <ele>275</ele>
        <time>2018-01-20T12:52:48Z</time>
      </trkpt>
      <trkpt lat="43.70908" lon="7.06641">
        <ele>274</ele>
        <time>2018-01-20T12:52:51Z</time>
      </trkpt>
      <trkpt lat="43.70939" lon="7.06625">
        <ele>271</ele>
        <time>2018-01-20T12:52:56Z</time>
      </trkpt>
      <trkpt lat="43.70966" lon="7.0662">
        <ele>269</ele>
        <time>2018-01-20T12:53:02Z</time>
      </trkpt>
      <trkpt lat="43.71004" lon="7.0662">
        <ele>267</ele>
        <time>2018-01-20T12:53:08Z</time>
      </trkpt>
      <trkpt lat="43.71031" lon="7.06622">
        <ele>268</ele>
        <time>2018-01-20T12:53:16Z</time>
      </trkpt>
      <trkpt lat="43.71028" lon="7.06636">
        <ele>268</ele>
        <time>2018-01-20T12:53:19Z</time>
      </trkpt>
      <trkpt lat="43.71016" lon="7.06654">
        <ele>266</ele>
        <time>2018-01-20T12:53:27Z</time>
      </trkpt>
      <trkpt lat="43.71001" lon="7.06668">
        <ele>264</ele>
        <time>2018-01-20T12:53:34Z</time>
      </trkpt>
      <trkpt lat="43.70995" lon="7.06689">
        <ele>265</ele>
        <time>2018-01-20T12:53:41Z</time>
      </trkpt>
      <trkpt lat="43.7099" lon="7.06709">
        <ele>267</ele>
        <time>2018-01-20T12:53:48Z</time>
      </trkpt>
      <trkpt lat="43.70988" lon="7.0672">
        <ele>268</ele>
        <time>2018-01-20T12:53:53Z</time>
      </trkpt>
      <trkpt lat="43.70982" lon="7.06727">
        <ele>268</ele>
        <time>2018-01-20T12:53:57Z</time>
      </trkpt>
      <trkpt lat="43.70969" lon="7.06744">
        <ele>267</ele>
        <time>2018-01-20T12:54:05Z</time>
      </trkpt>
      <trkpt lat="43.70959" lon="7.06761">
        <ele>270</ele>
        <time>2018-01-20T12:54:11Z</time>
      </trkpt>
      <trkpt lat="43.7095" lon="7.06777">
        <ele>270</ele>
        <time>2018-01-20T12:54:17Z</time>
      </trkpt>
      <trkpt lat="43.7094" lon="7.06796">
        <ele>270</ele>
        <time>2018-01-20T12:54:23Z</time>
      </trkpt>
      <trkpt lat="43.70931" lon="7.06813">
        <ele>270</ele>
        <time>2018-01-20T12:54:29Z</time>
      </trkpt>
      <trkpt lat="43.7092" lon="7.06831">
        <ele>269</ele>
        <time>2018-01-20T12:54:35Z</time>
      </trkpt>
      <trkpt lat="43.7091" lon="7.06849">
        <ele>270</ele>
        <time>2018-01-20T12:54:42Z</time>
      </trkpt>
      <trkpt lat="43.70899" lon="7.06862">
        <ele>271</ele>
        <time>2018-01-20T12:54:48Z</time>
      </trkpt>
      <trkpt lat="43.70884" lon="7.06875">
        <ele>271</ele>
        <time>2018-01-20T12:54:55Z</time>
      </trkpt>
      <trkpt lat="43.7087" lon="7.06886">
        <ele>271</ele>
        <time>2018-01-20T12:55:03Z</time>
      </trkpt>
      <trkpt lat="43.70858" lon="7.06899">
        <ele>271</ele>
        <time>2018-01-20T12:55:10Z</time>
      </trkpt>
      <trkpt lat="43.70846" lon="7.06916">
        <ele>272</ele>
        <time>2018-01-20T12:55:17Z</time>
      </trkpt>
      <trkpt lat="43.70837" lon="7.06933">
        <ele>276</ele>
        <time>2018-01-20T12:55:23Z</time>
      </trkpt>
      <trkpt lat="43.70828" lon="7.06951">
        <ele>275</ele>
        <time>2018-01-20T12:55:30Z</time>
      </trkpt>
      <trkpt lat="43.70815" lon="7.06968">
        <ele>276</ele>
        <time>2018-01-20T12:55:37Z</time>
      </trkpt>
      <trkpt lat="43.70802" lon="7.0698">
        <ele>276</ele>
        <time>2018-01-20T12:55:43Z</time>
      </trkpt>
      <trkpt lat="43.70789" lon="7.06992">
        <ele>276</ele>
        <time>2018-01-20T12:55:49Z</time>
      </trkpt>
      <trkpt lat="43.70774" lon="7.07002">
        <ele>279</ele>
        <time>2018-01-20T12:55:55Z</time>
      </trkpt>
      <trkpt lat="43.70758" lon="7.07012">
        <ele>279</ele>
        <time>2018-01-20T12:56:01Z</time>
      </trkpt>
      <trkpt lat="43.70746" lon="7.07029">
        <ele>277</ele>
        <time>2018-01-20T12:56:08Z</time>
      </trkpt>
      <trkpt lat="43.70734" lon="7.07044">
        <ele>277</ele>
        <time>2018-01-20T12:56:14Z</time>
      </trkpt>
      <trkpt lat="43.70726" lon="7.07061">
        <ele>278</ele>
        <time>2018-01-20T12:56:21Z</time>
      </trkpt>
      <trkpt lat="43.70726" lon="7.07072">
        <ele>278</ele>
        <time>2018-01-20T12:56:24Z</time>
      </trkpt>
      <trkpt lat="43.70725" lon="7.07098">
        <ele>280</ele>
        <time>2018-01-20T12:56:32Z</time>
      </trkpt>
      <trkpt lat="43.70727" lon="7.07121">
        <ele>280</ele>
        <time>2018-01-20T12:56:40Z</time>
      </trkpt>
      <trkpt lat="43.70735" lon="7.07139">
        <ele>280</ele>
        <time>2018-01-20T12:56:46Z</time>
      </trkpt>
      <trkpt lat="43.70739" lon="7.07153">
        <ele>280</ele>
        <time>2018-01-20T12:56:50Z</time>
      </trkpt>
      <trkpt lat="43.70749" lon="7.07173">
        <ele>280</ele>
        <time>2018-01-20T12:56:55Z</time>
      </trkpt>
      <trkpt lat="43.70765" lon="7.07187">
        <ele>279</ele>
        <time>2018-01-20T12:57:00Z</time>
      </trkpt>
      <trkpt lat="43.70787" lon="7.07211">
        <ele>279</ele>
        <time>2018-01-20T12:57:06Z</time>
      </trkpt>
      <trkpt lat="43.70807" lon="7.07247">
        <ele>278</ele>
        <time>2018-01-20T12:57:12Z</time>
      </trkpt>
      <trkpt lat="43.70811" lon="7.07272">
        <ele>278</ele>
        <time>2018-01-20T12:57:15Z</time>
      </trkpt>
      <trkpt lat="43.70815" lon="7.07316">
        <ele>278</ele>
        <time>2018-01-20T12:57:21Z</time>
      </trkpt>
      <trkpt lat="43.70814" lon="7.07327">
        <ele>279</ele>
        <time>2018-01-20T12:57:23Z</time>
      </trkpt>
      <trkpt lat="43.70808" lon="7.07339">
        <ele>280</ele>
        <time>2018-01-20T12:57:26Z</time>
      </trkpt>
      <trkpt lat="43.70793" lon="7.07355">
        <ele>280</ele>
        <time>2018-01-20T12:57:32Z</time>
      </trkpt>
      <trkpt lat="43.7078" lon="7.07374">
        <ele>281</ele>
        <time>2018-01-20T12:57:38Z</time>
      </trkpt>
      <trkpt lat="43.70773" lon="7.07381">
        <ele>281</ele>
        <time>2018-01-20T12:57:41Z</time>
      </trkpt>
      <trkpt lat="43.70766" lon="7.07403">
        <ele>281</ele>
        <time>2018-01-20T12:57:49Z</time>
      </trkpt>
      <trkpt lat="43.70776" lon="7.07421">
        <ele>284</ele>
        <time>2018-01-20T12:57:56Z</time>
      </trkpt>
      <trkpt lat="43.70787" lon="7.07434">
        <ele>285</ele>
        <time>2018-01-20T12:58:02Z</time>
      </trkpt>
      <trkpt lat="43.70797" lon="7.07451">
        <ele>286</ele>
        <time>2018-01-20T12:58:08Z</time>
      </trkpt>
      <trkpt lat="43.70803" lon="7.07463">
        <ele>286</ele>
        <time>2018-01-20T12:58:12Z</time>
      </trkpt>
      <trkpt lat="43.70809" lon="7.0747">
        <ele>287</ele>
        <time>2018-01-20T12:58:15Z</time>
      </trkpt>
      <trkpt lat="43.70826" lon="7.07486">
        <ele>289</ele>
        <time>2018-01-20T12:58:23Z</time>
      </trkpt>
      <trkpt lat="43.70833" lon="7.07492">
        <ele>290</ele>
        <time>2018-01-20T12:58:27Z</time>
      </trkpt>
      <trkpt lat="43.70849" lon="7.07503">
        <ele>291</ele>
        <time>2018-01-20T12:58:36Z</time>
      </trkpt>
      <trkpt lat="43.70851" lon="7.07512">
        <ele>291</ele>
        <time>2018-01-20T12:58:43Z</time>
      </trkpt>
      <trkpt lat="43.70846" lon="7.0752">
        <ele>291</ele>
        <time>2018-01-20T12:58:49Z</time>
      </trkpt>
      <trkpt lat="43.7084" lon="7.07527">
        <ele>291</ele>
        <time>2018-01-20T12:58:53Z</time>
      </trkpt>
      <trkpt lat="43.70829" lon="7.07541">
        <ele>290</ele>
        <time>2018-01-20T12:58:59Z</time>
      </trkpt>
      <trkpt lat="43.70823" lon="7.0755">
        <ele>290</ele>
        <time>2018-01-20T12:59:04Z</time>
      </trkpt>
      <trkpt lat="43.70807" lon="7.07561">
        <ele>289</ele>
        <time>2018-01-20T12:59:09Z</time>
      </trkpt>
      <trkpt lat="43.70791" lon="7.07573">
        <ele>289</ele>
        <time>2018-01-20T12:59:16Z</time>
      </trkpt>
      <trkpt lat="43.70789" lon="7.07583">
        <ele>289</ele>
        <time>2018-01-20T13:04:27Z</time>
      </trkpt>
      <trkpt lat="43.70791" lon="7.07608">
        <ele>288</ele>
        <time>2018-01-20T13:04:32Z</time>
      </trkpt>
      <trkpt lat="43.70797" lon="7.07628">
        <ele>287</ele>
        <time>2018-01-20T13:04:38Z</time>
      </trkpt>
      <trkpt lat="43.70782" lon="7.07648">
        <ele>287</ele>
        <time>2018-01-20T13:04:44Z</time>
      </trkpt>
      <trkpt lat="43.70762" lon="7.07667">
        <ele>282</ele>
        <time>2018-01-20T13:04:50Z</time>
      </trkpt>
      <trkpt lat="43.70745" lon="7.07683">
        <ele>283</ele>
        <time>2018-01-20T13:04:55Z</time>
      </trkpt>
      <trkpt lat="43.70735" lon="7.07703">
        <ele>281</ele>
        <time>2018-01-20T13:05:00Z</time>
      </trkpt>
      <trkpt lat="43.70722" lon="7.07718">
        <ele>279</ele>
        <time>2018-01-20T13:05:05Z</time>
      </trkpt>
      <trkpt lat="43.70729" lon="7.0773">
        <ele>277</ele>
        <time>2018-01-20T13:05:15Z</time>
      </trkpt>
      <trkpt lat="43.70726" lon="7.07745">
        <ele>276</ele>
        <time>2018-01-20T13:05:22Z</time>
      </trkpt>
      <trkpt lat="43.70725" lon="7.07764">
        <ele>261</ele>
        <time>2018-01-20T13:05:32Z</time>
      </trkpt>
      <trkpt lat="43.70732" lon="7.0776">
        <ele>261</ele>
        <time>2018-01-20T13:05:34Z</time>
      </trkpt>
      <trkpt lat="43.70747" lon="7.07768">
        <ele>260</ele>
        <time>2018-01-20T13:05:45Z</time>
      </trkpt>
      <trkpt lat="43.70745" lon="7.07779">
        <ele>258</ele>
        <time>2018-01-20T13:05:51Z</time>
      </trkpt>
      <trkpt lat="43.70725" lon="7.07793">
        <ele>255</ele>
        <time>2018-01-20T13:05:57Z</time>
      </trkpt>
      <trkpt lat="43.70716" lon="7.078">
        <ele>254</ele>
        <time>2018-01-20T13:06:00Z</time>
      </trkpt>
      <trkpt lat="43.70693" lon="7.07822">
        <ele>252</ele>
        <time>2018-01-20T13:06:06Z</time>
      </trkpt>
      <trkpt lat="43.70667" lon="7.07838">
        <ele>245</ele>
        <time>2018-01-20T13:06:12Z</time>
      </trkpt>
      <trkpt lat="43.70649" lon="7.07849">
        <ele>243</ele>
        <time>2018-01-20T13:06:16Z</time>
      </trkpt>
      <trkpt lat="43.70628" lon="7.0787">
        <ele>240</ele>
        <time>2018-01-20T13:06:22Z</time>
      </trkpt>
      <trkpt lat="43.70615" lon="7.07885">
        <ele>238</ele>
        <time>2018-01-20T13:06:28Z</time>
      </trkpt>
      <trkpt lat="43.70601" lon="7.07899">
        <ele>234</ele>
        <time>2018-01-20T13:06:33Z</time>
      </trkpt>
      <trkpt lat="43.7059" lon="7.07915">
        <ele>227</ele>
        <time>2018-01-20T13:06:38Z</time>
      </trkpt>
      <trkpt lat="43.70567" lon="7.0793">
        <ele>221</ele>
        <time>2018-01-20T13:06:45Z</time>
      </trkpt>
      <trkpt lat="43.70552" lon="7.07939">
        <ele>220</ele>
        <time>2018-01-20T13:06:52Z</time>
      </trkpt>
      <trkpt lat="43.70553" lon="7.07949">
        <ele>221</ele>
        <time>2018-01-20T13:07:06Z</time>
      </trkpt>
      <trkpt lat="43.70546" lon="7.07955">
        <ele>221</ele>
        <time>2018-01-20T13:07:24Z</time>
      </trkpt>
      <trkpt lat="43.70539" lon="7.07957">
        <ele>220</ele>
        <time>2018-01-20T13:07:30Z</time>
      </trkpt>
      <trkpt lat="43.70531" lon="7.07958">
        <ele>220</ele>
        <time>2018-01-20T13:07:41Z</time>
      </trkpt>
      <trkpt lat="43.70524" lon="7.07963">
        <ele>220</ele>
        <time>2018-01-20T13:07:49Z</time>
      </trkpt>
      <trkpt lat="43.70517" lon="7.07965">
        <ele>220</ele>
        <time>2018-01-20T13:08:01Z</time>
      </trkpt>
      <trkpt lat="43.7051" lon="7.07966">
        <ele>220</ele>
        <time>2018-01-20T13:08:11Z</time>
      </trkpt>
      <trkpt lat="43.70502" lon="7.07972">
        <ele>221</ele>
        <time>2018-01-20T13:08:23Z</time>
      </trkpt>
      <trkpt lat="43.70494" lon="7.07973">
        <ele>220</ele>
        <time>2018-01-20T13:08:38Z</time>
      </trkpt>
      <trkpt lat="43.70488" lon="7.07979">
        <ele>220</ele>
        <time>2018-01-20T13:08:49Z</time>
      </trkpt>
      <trkpt lat="43.7048" lon="7.07975">
        <ele>219</ele>
        <time>2018-01-20T13:10:24Z</time>
      </trkpt>
      <trkpt lat="43.70472" lon="7.0797">
        <ele>219</ele>
        <time>2018-01-20T13:10:29Z</time>
      </trkpt>
      <trkpt lat="43.70456" lon="7.0797">
        <ele>219</ele>
        <time>2018-01-20T13:10:36Z</time>
      </trkpt>
      <trkpt lat="43.70449" lon="7.0797">
        <ele>219</ele>
        <time>2018-01-20T13:10:41Z</time>
      </trkpt>
      <trkpt lat="43.70442" lon="7.07967">
        <ele>219</ele>
        <time>2018-01-20T13:11:04Z</time>
      </trkpt>
      <trkpt lat="43.70427" lon="7.07959">
        <ele>217</ele>
        <time>2018-01-20T13:11:09Z</time>
      </trkpt>
      <trkpt lat="43.7041" lon="7.0796">
        <ele>220</ele>
        <time>2018-01-20T13:11:15Z</time>
      </trkpt>
      <trkpt lat="43.70403" lon="7.07962">
        <ele>220</ele>
        <time>2018-01-20T13:11:23Z</time>
      </trkpt>
      <trkpt lat="43.70395" lon="7.07964">
        <ele>221</ele>
        <time>2018-01-20T13:11:28Z</time>
      </trkpt>
      <trkpt lat="43.70386" lon="7.07961">
        <ele>221</ele>
        <time>2018-01-20T13:11:33Z</time>
      </trkpt>
      <trkpt lat="43.70372" lon="7.07952">
        <ele>220</ele>
        <time>2018-01-20T13:11:40Z</time>
      </trkpt>
      <trkpt lat="43.70356" lon="7.07942">
        <ele>218</ele>
        <time>2018-01-20T13:11:47Z</time>
      </trkpt>
      <trkpt lat="43.70343" lon="7.07927">
        <ele>214</ele>
        <time>2018-01-20T13:11:53Z</time>
      </trkpt>
      <trkpt lat="43.70325" lon="7.07919">
        <ele>216</ele>
        <time>2018-01-20T13:12:04Z</time>
      </trkpt>
      <trkpt lat="43.7031" lon="7.07917">
        <ele>223</ele>
        <time>2018-01-20T13:12:11Z</time>
      </trkpt>
      <trkpt lat="43.70295" lon="7.07906">
        <ele>208</ele>
        <time>2018-01-20T13:12:18Z</time>
      </trkpt>
      <trkpt lat="43.70286" lon="7.07899">
        <ele>209</ele>
        <time>2018-01-20T13:12:22Z</time>
      </trkpt>
      <trkpt lat="43.70272" lon="7.07891">
        <ele>209</ele>
        <time>2018-01-20T13:12:31Z</time>
      </trkpt>
      <trkpt lat="43.70263" lon="7.07888">
        <ele>209</ele>
        <time>2018-01-20T13:12:39Z</time>
      </trkpt>
      <trkpt lat="43.70246" lon="7.07877">
        <ele>212</ele>
        <time>2018-01-20T13:12:46Z</time>
      </trkpt>
      <trkpt lat="43.70239" lon="7.07874">
        <ele>212</ele>
        <time>2018-01-20T13:12:51Z</time>
      </trkpt>
      <trkpt lat="43.70233" lon="7.07869">
        <ele>211</ele>
        <time>2018-01-20T13:12:58Z</time>
      </trkpt>
      <trkpt lat="43.70215" lon="7.07864">
        <ele>212</ele>
        <time>2018-01-20T13:13:05Z</time>
      </trkpt>
      <trkpt lat="43.70209" lon="7.07857">
        <ele>211</ele>
        <time>2018-01-20T13:13:10Z</time>
      </trkpt>
      <trkpt lat="43.70197" lon="7.07839">
        <ele>210</ele>
        <time>2018-01-20T13:13:18Z</time>
      </trkpt>
      <trkpt lat="43.70187" lon="7.07822">
        <ele>192</ele>
        <time>2018-01-20T13:13:25Z</time>
      </trkpt>
      <trkpt lat="43.70177" lon="7.07802">
        <ele>188</ele>
        <time>2018-01-20T13:13:32Z</time>
      </trkpt>
      <trkpt lat="43.70162" lon="7.07793">
        <ele>190</ele>
        <time>2018-01-20T13:13:39Z</time>
      </trkpt>
      <trkpt lat="43.70155" lon="7.07792">
        <ele>190</ele>
        <time>2018-01-20T13:13:50Z</time>
      </trkpt>
      <trkpt lat="43.70147" lon="7.07793">
        <ele>190</ele>
        <time>2018-01-20T13:13:56Z</time>
      </trkpt>
      <trkpt lat="43.70138" lon="7.07789">
        <ele>190</ele>
        <time>2018-01-20T13:14:03Z</time>
      </trkpt>
      <trkpt lat="43.70118" lon="7.07783">
        <ele>190</ele>
        <time>2018-01-20T13:14:09Z</time>
      </trkpt>
      <trkpt lat="43.7011" lon="7.0778">
        <ele>189</ele>
        <time>2018-01-20T13:14:13Z</time>
      </trkpt>
      <trkpt lat="43.70101" lon="7.07765">
        <ele>185</ele>
        <time>2018-01-20T13:14:23Z</time>
      </trkpt>
      <trkpt lat="43.70098" lon="7.07756">
        <ele>183</ele>
        <time>2018-01-20T13:14:28Z</time>
      </trkpt>
      <trkpt lat="43.70091" lon="7.07751">
        <ele>180</ele>
        <time>2018-01-20T13:14:31Z</time>
      </trkpt>
      <trkpt lat="43.70081" lon="7.07736">
        <ele>177</ele>
        <time>2018-01-20T13:14:37Z</time>
      </trkpt>
      <trkpt lat="43.70076" lon="7.07729">
        <ele>177</ele>
        <time>2018-01-20T13:15:44Z</time>
      </trkpt>
      <trkpt lat="43.70061" lon="7.07723">
        <ele>178</ele>
        <time>2018-01-20T13:15:51Z</time>
      </trkpt>
      <trkpt lat="43.70055" lon="7.07717">
        <ele>178</ele>
        <time>2018-01-20T13:15:59Z</time>
      </trkpt>
      <trkpt lat="43.70049" lon="7.07711">
        <ele>178</ele>
        <time>2018-01-20T13:16:16Z</time>
      </trkpt>
      <trkpt lat="43.70034" lon="7.07693">
        <ele>178</ele>
        <time>2018-01-20T13:16:22Z</time>
      </trkpt>
      <trkpt lat="43.70027" lon="7.07683">
        <ele>177</ele>
        <time>2018-01-20T13:16:25Z</time>
      </trkpt>
      <trkpt lat="43.70018" lon="7.07664">
        <ele>171</ele>
        <time>2018-01-20T13:16:30Z</time>
      </trkpt>
      <trkpt lat="43.70015" lon="7.07653">
        <ele>171</ele>
        <time>2018-01-20T13:16:32Z</time>
      </trkpt>
      <trkpt lat="43.70007" lon="7.07618">
        <ele>166</ele>
        <time>2018-01-20T13:16:38Z</time>
      </trkpt>
      <trkpt lat="43.70001" lon="7.07598">
        <ele>162</ele>
        <time>2018-01-20T13:16:44Z</time>
      </trkpt>
      <trkpt lat="43.69996" lon="7.07589">
        <ele>158</ele>
        <time>2018-01-20T13:16:51Z</time>
      </trkpt>
      <trkpt lat="43.69987" lon="7.07589">
        <ele>161</ele>
        <time>2018-01-20T13:17:05Z</time>
      </trkpt>
      <trkpt lat="43.69979" lon="7.07587">
        <ele>162</ele>
        <time>2018-01-20T13:17:12Z</time>
      </trkpt>
      <trkpt lat="43.69971" lon="7.07587">
        <ele>163</ele>
        <time>2018-01-20T13:17:18Z</time>
      </trkpt>
      <trkpt lat="43.69963" lon="7.07586">
        <ele>164</ele>
        <time>2018-01-20T13:17:26Z</time>
      </trkpt>
      <trkpt lat="43.69955" lon="7.07589">
        <ele>164</ele>
        <time>2018-01-20T13:17:38Z</time>
      </trkpt>
      <trkpt lat="43.69947" lon="7.0759">
        <ele>164</ele>
        <time>2018-01-20T13:17:43Z</time>
      </trkpt>
      <trkpt lat="43.69939" lon="7.07588">
        <ele>163</ele>
        <time>2018-01-20T13:17:49Z</time>
      </trkpt>
      <trkpt lat="43.69923" lon="7.07592">
        <ele>161</ele>
        <time>2018-01-20T13:17:55Z</time>
      </trkpt>
      <trkpt lat="43.69909" lon="7.07601">
        <ele>160</ele>
        <time>2018-01-20T13:18:01Z</time>
      </trkpt>
      <trkpt lat="43.69895" lon="7.07614">
        <ele>162</ele>
        <time>2018-01-20T13:18:07Z</time>
      </trkpt>
      <trkpt lat="43.69891" lon="7.07624">
        <ele>164</ele>
        <time>2018-01-20T13:18:10Z</time>
      </trkpt>
      <trkpt lat="43.69876" lon="7.07638">
        <ele>165</ele>
        <time>2018-01-20T13:18:18Z</time>
      </trkpt>
      <trkpt lat="43.69865" lon="7.07655">
        <ele>166</ele>
        <time>2018-01-20T13:18:25Z</time>
      </trkpt>
      <trkpt lat="43.69852" lon="7.07669">
        <ele>182</ele>
        <time>2018-01-20T13:18:33Z</time>
      </trkpt>
      <trkpt lat="43.69837" lon="7.0768">
        <ele>179</ele>
        <time>2018-01-20T13:18:40Z</time>
      </trkpt>
      <trkpt lat="43.69822" lon="7.07692">
        <ele>180</ele>
        <time>2018-01-20T13:18:48Z</time>
      </trkpt>
      <trkpt lat="43.69815" lon="7.07698">
        <ele>182</ele>
        <time>2018-01-20T13:18:53Z</time>
      </trkpt>
      <trkpt lat="43.69808" lon="7.07698">
        <ele>182</ele>
        <time>2018-01-20T13:19:02Z</time>
      </trkpt>
      <trkpt lat="43.698" lon="7.07699">
        <ele>182</ele>
        <time>2018-01-20T13:19:13Z</time>
      </trkpt>
      <trkpt lat="43.69792" lon="7.07701">
        <ele>182</ele>
        <time>2018-01-20T13:19:22Z</time>
      </trkpt>
      <trkpt lat="43.69784" lon="7.07702">
        <ele>182</ele>
        <time>2018-01-20T13:19:31Z</time>
      </trkpt>
      <trkpt lat="43.69777" lon="7.07702">
        <ele>181</ele>
        <time>2018-01-20T13:19:38Z</time>
      </trkpt>
      <trkpt lat="43.69769" lon="7.07699">
        <ele>180</ele>
        <time>2018-01-20T13:19:46Z</time>
      </trkpt>
      <trkpt lat="43.69762" lon="7.07698">
        <ele>179</ele>
        <time>2018-01-20T13:19:52Z</time>
      </trkpt>
      <trkpt lat="43.69755" lon="7.07702">
        <ele>180</ele>
        <time>2018-01-20T13:20:01Z</time>
      </trkpt>
      <trkpt lat="43.69747" lon="7.07701">
        <ele>170</ele>
        <time>2018-01-20T13:20:11Z</time>
      </trkpt>
      <trkpt lat="43.6974" lon="7.07702">
        <ele>170</ele>
        <time>2018-01-20T13:20:17Z</time>
      </trkpt>
      <trkpt lat="43.69735" lon="7.0771">
        <ele>173</ele>
        <time>2018-01-20T13:20:24Z</time>
      </trkpt>
      <trkpt lat="43.69727" lon="7.07716">
        <ele>174</ele>
        <time>2018-01-20T13:20:29Z</time>
      </trkpt>
      <trkpt lat="43.69714" lon="7.07726">
        <ele>174</ele>
        <time>2018-01-20T13:21:24Z</time>
      </trkpt>
      <trkpt lat="43.69706" lon="7.07734">
        <ele>174</ele>
        <time>2018-01-20T13:21:28Z</time>
      </trkpt>
      <trkpt lat="43.69702" lon="7.07742">
        <ele>175</ele>
        <time>2018-01-20T13:21:30Z</time>
      </trkpt>
      <trkpt lat="43.69692" lon="7.07759">
        <ele>199</ele>
        <time>2018-01-20T13:21:37Z</time>
      </trkpt>
      <trkpt lat="43.69687" lon="7.07769">
        <ele>200</ele>
        <time>2018-01-20T13:21:40Z</time>
      </trkpt>
      <trkpt lat="43.69673" lon="7.07785">
        <ele>204</ele>
        <time>2018-01-20T13:21:47Z</time>
      </trkpt>
      <trkpt lat="43.6966" lon="7.07797">
        <ele>198</ele>
        <time>2018-01-20T13:21:54Z</time>
      </trkpt>
      <trkpt lat="43.69652" lon="7.078">
        <ele>199</ele>
        <time>2018-01-20T13:22:03Z</time>
      </trkpt>
      <trkpt lat="43.69644" lon="7.07802">
        <ele>199</ele>
        <time>2018-01-20T13:22:10Z</time>
      </trkpt>
      <trkpt lat="43.69638" lon="7.0781">
        <ele>200</ele>
        <time>2018-01-20T13:22:16Z</time>
      </trkpt>
      <trkpt lat="43.69632" lon="7.07814">
        <ele>200</ele>
        <time>2018-01-20T13:22:24Z</time>
      </trkpt>
      <trkpt lat="43.69624" lon="7.07817">
        <ele>200</ele>
        <time>2018-01-20T13:22:30Z</time>
      </trkpt>
      <trkpt lat="43.69616" lon="7.07817">
        <ele>200</ele>
        <time>2018-01-20T13:22:35Z</time>
      </trkpt>
      <trkpt lat="43.696" lon="7.07817">
        <ele>201</ele>
        <time>2018-01-20T13:22:42Z</time>
      </trkpt>
      <trkpt lat="43.69583" lon="7.07815">
        <ele>198</ele>
        <time>2018-01-20T13:22:49Z</time>
      </trkpt>
      <trkpt lat="43.69567" lon="7.0782">
        <ele>197</ele>
        <time>2018-01-20T13:22:58Z</time>
      </trkpt>
      <trkpt lat="43.69559" lon="7.0782">
        <ele>194</ele>
        <time>2018-01-20T13:23:04Z</time>
      </trkpt>
      <trkpt lat="43.6955" lon="7.07821">
        <ele>193</ele>
        <time>2018-01-20T13:23:10Z</time>
      </trkpt>
      <trkpt lat="43.69541" lon="7.07821">
        <ele>192</ele>
        <time>2018-01-20T13:23:17Z</time>
      </trkpt>
      <trkpt lat="43.69535" lon="7.07825">
        <ele>192</ele>
        <time>2018-01-20T13:23:22Z</time>
      </trkpt>
      <trkpt lat="43.69529" lon="7.07832">
        <ele>193</ele>
        <time>2018-01-20T13:23:29Z</time>
      </trkpt>
      <trkpt lat="43.69522" lon="7.07835">
        <ele>216</ele>
        <time>2018-01-20T13:23:34Z</time>
      </trkpt>
      <trkpt lat="43.69515" lon="7.0784">
        <ele>214</ele>
        <time>2018-01-20T13:23:39Z</time>
      </trkpt>
      <trkpt lat="43.69509" lon="7.07847">
        <ele>214</ele>
        <time>2018-01-20T13:23:45Z</time>
      </trkpt>
      <trkpt lat="43.69503" lon="7.07852">
        <ele>215</ele>
        <time>2018-01-20T13:23:51Z</time>
      </trkpt>
      <trkpt lat="43.69499" lon="7.07862">
        <ele>207</ele>
        <time>2018-01-20T13:24:00Z</time>
      </trkpt>
      <trkpt lat="43.69493" lon="7.07868">
        <ele>208</ele>
        <time>2018-01-20T13:24:06Z</time>
      </trkpt>
      <trkpt lat="43.69487" lon="7.07873">
        <ele>208</ele>
        <time>2018-01-20T13:24:11Z</time>
      </trkpt>
      <trkpt lat="43.6948" lon="7.07878">
        <ele>209</ele>
        <time>2018-01-20T13:24:17Z</time>
      </trkpt>
      <trkpt lat="43.69474" lon="7.07884">
        <ele>209</ele>
        <time>2018-01-20T13:24:23Z</time>
      </trkpt>
      <trkpt lat="43.69468" lon="7.07892">
        <ele>210</ele>
        <time>2018-01-20T13:24:30Z</time>
      </trkpt>
      <trkpt lat="43.69462" lon="7.07901">
        <ele>210</ele>
        <time>2018-01-20T13:24:36Z</time>
      </trkpt>
      <trkpt lat="43.69455" lon="7.0791">
        <ele>209</ele>
        <time>2018-01-20T13:24:42Z</time>
      </trkpt>
      <trkpt lat="43.69448" lon="7.07917">
        <ele>226</ele>
        <time>2018-01-20T13:24:49Z</time>
      </trkpt>
      <trkpt lat="43.69442" lon="7.07924">
        <ele>224</ele>
        <time>2018-01-20T13:24:52Z</time>
      </trkpt>
      <trkpt lat="43.69427" lon="7.0794">
        <ele>224</ele>
        <time>2018-01-20T13:24:58Z</time>
      </trkpt>
      <trkpt lat="43.69415" lon="7.07959">
        <ele>218</ele>
        <time>2018-01-20T13:25:04Z</time>
      </trkpt>
      <trkpt lat="43.69409" lon="7.07966">
        <ele>220</ele>
        <time>2018-01-20T13:25:40Z</time>
      </trkpt>
      <trkpt lat="43.69407" lon="7.07976">
        <ele>223</ele>
        <time>2018-01-20T13:28:43Z</time>
      </trkpt>
      <trkpt lat="43.69401" lon="7.07983">
        <ele>224</ele>
        <time>2018-01-20T13:28:48Z</time>
      </trkpt>
      <trkpt lat="43.69378" lon="7.07987">
        <ele>222</ele>
        <time>2018-01-20T13:28:54Z</time>
      </trkpt>
      <trkpt lat="43.6936" lon="7.07985">
        <ele>222</ele>
        <time>2018-01-20T13:28:59Z</time>
      </trkpt>
      <trkpt lat="43.69336" lon="7.0798">
        <ele>222</ele>
        <time>2018-01-20T13:29:05Z</time>
      </trkpt>
      <trkpt lat="43.69319" lon="7.07973">
        <ele>221</ele>
        <time>2018-01-20T13:29:11Z</time>
      </trkpt>
      <trkpt lat="43.69303" lon="7.07967">
        <ele>220</ele>
        <time>2018-01-20T13:29:17Z</time>
      </trkpt>
      <trkpt lat="43.69286" lon="7.07965">
        <ele>220</ele>
        <time>2018-01-20T13:29:23Z</time>
      </trkpt>
      <trkpt lat="43.69267" lon="7.07969">
        <ele>221</ele>
        <time>2018-01-20T13:29:28Z</time>
      </trkpt>
      <trkpt lat="43.69251" lon="7.07966">
        <ele>222</ele>
        <time>2018-01-20T13:29:33Z</time>
      </trkpt>
      <trkpt lat="43.69242" lon="7.07961">
        <ele>224</ele>
        <time>2018-01-20T13:29:35Z</time>
      </trkpt>
      <trkpt lat="43.69234" lon="7.07957">
        <ele>223</ele>
        <time>2018-01-20T13:29:37Z</time>
      </trkpt>
      <trkpt lat="43.6921" lon="7.07952">
        <ele>223</ele>
        <time>2018-01-20T13:29:54Z</time>
      </trkpt>
      <trkpt lat="43.69193" lon="7.07952">
        <ele>224</ele>
        <time>2018-01-20T13:30:00Z</time>
      </trkpt>
      <trkpt lat="43.69164" lon="7.07958">
        <ele>220</ele>
        <time>2018-01-20T13:30:06Z</time>
      </trkpt>
      <trkpt lat="43.69137" lon="7.07961">
        <ele>219</ele>
        <time>2018-01-20T13:30:12Z</time>
      </trkpt>
      <trkpt lat="43.69118" lon="7.07955">
        <ele>218</ele>
        <time>2018-01-20T13:30:19Z</time>
      </trkpt>
      <trkpt lat="43.69104" lon="7.0794">
        <ele>217</ele>
        <time>2018-01-20T13:30:24Z</time>
      </trkpt>
      <trkpt lat="43.6909" lon="7.07927">
        <ele>216</ele>
        <time>2018-01-20T13:30:31Z</time>
      </trkpt>
      <trkpt lat="43.69076" lon="7.07922">
        <ele>211</ele>
        <time>2018-01-20T13:30:36Z</time>
      </trkpt>
      <trkpt lat="43.69074" lon="7.07932">
        <ele>209</ele>
        <time>2018-01-20T13:30:44Z</time>
      </trkpt>
      <trkpt lat="43.69062" lon="7.07948">
        <ele>206</ele>
        <time>2018-01-20T13:30:51Z</time>
      </trkpt>
      <trkpt lat="43.69048" lon="7.07959">
        <ele>204</ele>
        <time>2018-01-20T13:30:57Z</time>
      </trkpt>
      <trkpt lat="43.69036" lon="7.07953">
        <ele>202</ele>
        <time>2018-01-20T13:31:03Z</time>
      </trkpt>
      <trkpt lat="43.69034" lon="7.07943">
        <ele>202</ele>
        <time>2018-01-20T13:31:11Z</time>
      </trkpt>
      <trkpt lat="43.69032" lon="7.07933">
        <ele>202</ele>
        <time>2018-01-20T13:31:18Z</time>
      </trkpt>
      <trkpt lat="43.69023" lon="7.07934">
        <ele>200</ele>
        <time>2018-01-20T13:31:38Z</time>
      </trkpt>
      <trkpt lat="43.69023" lon="7.07945">
        <ele>201</ele>
        <time>2018-01-20T13:31:46Z</time>
      </trkpt>
      <trkpt lat="43.69022" lon="7.07934">
        <ele>200</ele>
        <time>2018-01-20T13:31:59Z</time>
      </trkpt>
      <trkpt lat="43.68989" lon="7.07935">
        <ele>192</ele>
        <time>2018-01-20T13:32:05Z</time>
      </trkpt>
      <trkpt lat="43.68971" lon="7.07936">
        <ele>192</ele>
        <time>2018-01-20T13:32:10Z</time>
      </trkpt>
      <trkpt lat="43.6897" lon="7.07924">
        <ele>192</ele>
        <time>2018-01-20T13:33:19Z</time>
      </trkpt>
      <trkpt lat="43.68974" lon="7.07899">
        <ele>192</ele>
        <time>2018-01-20T13:33:25Z</time>
      </trkpt>
      <trkpt lat="43.68971" lon="7.0786">
        <ele>191</ele>
        <time>2018-01-20T13:33:31Z</time>
      </trkpt>
      <trkpt lat="43.68972" lon="7.07819">
        <ele>187</ele>
        <time>2018-01-20T13:33:37Z</time>
      </trkpt>
      <trkpt lat="43.68976" lon="7.07797">
        <ele>185</ele>
        <time>2018-01-20T13:33:43Z</time>
      </trkpt>
      <trkpt lat="43.68984" lon="7.07775">
        <ele>182</ele>
        <time>2018-01-20T13:33:48Z</time>
      </trkpt>
      <trkpt lat="43.68992" lon="7.07742">
        <ele>173</ele>
        <time>2018-01-20T13:33:54Z</time>
      </trkpt>
      <trkpt lat="43.68986" lon="7.07717">
        <ele>171</ele>
        <time>2018-01-20T13:33:59Z</time>
      </trkpt>
      <trkpt lat="43.68986" lon="7.07707">
        <ele>169</ele>
        <time>2018-01-20T13:34:01Z</time>
      </trkpt>
      <trkpt lat="43.68989" lon="7.07675">
        <ele>159</ele>
        <time>2018-01-20T13:34:08Z</time>
      </trkpt>
      <trkpt lat="43.68998" lon="7.07676">
        <ele>157</ele>
        <time>2018-01-20T13:34:15Z</time>
      </trkpt>
      <trkpt lat="43.69003" lon="7.07655">
        <ele>138</ele>
        <time>2018-01-20T13:34:21Z</time>
      </trkpt>
      <trkpt lat="43.68999" lon="7.07623">
        <ele>142</ele>
        <time>2018-01-20T13:34:27Z</time>
      </trkpt>
      <trkpt lat="43.68995" lon="7.07588">
        <ele>125</ele>
        <time>2018-01-20T13:34:33Z</time>
      </trkpt>
      <trkpt lat="43.68986" lon="7.07554">
        <ele>115</ele>
        <time>2018-01-20T13:34:40Z</time>
      </trkpt>
      <trkpt lat="43.68979" lon="7.0755">
        <ele>114</ele>
        <time>2018-01-20T13:34:55Z</time>
      </trkpt>
      <trkpt lat="43.68971" lon="7.07543">
        <ele>114</ele>
        <time>2018-01-20T13:35:02Z</time>
      </trkpt>
      <trkpt lat="43.68957" lon="7.07528">
        <ele>113</ele>
        <time>2018-01-20T13:35:07Z</time>
      </trkpt>
      <trkpt lat="43.68929" lon="7.07514">
        <ele>112</ele>
        <time>2018-01-20T13:35:13Z</time>
      </trkpt>
      <trkpt lat="43.68908" lon="7.07498">
        <ele>105</ele>
        <time>2018-01-20T13:35:19Z</time>
      </trkpt>
      <trkpt lat="43.68891" lon="7.07469">
        <ele>99</ele>
        <time>2018-01-20T13:35:26Z</time>
      </trkpt>
      <trkpt lat="43.68885" lon="7.07445">
        <ele>94</ele>
        <time>2018-01-20T13:35:31Z</time>
      </trkpt>
      <trkpt lat="43.68867" lon="7.07414">
        <ele>77</ele>
        <time>2018-01-20T13:35:37Z</time>
      </trkpt>
      <trkpt lat="43.6887" lon="7.07392">
        <ele>74</ele>
        <time>2018-01-20T13:35:41Z</time>
      </trkpt>
      <trkpt lat="43.68862" lon="7.07368">
        <ele>72</ele>
        <time>2018-01-20T13:35:45Z</time>
      </trkpt>
      <trkpt lat="43.68855" lon="7.07329">
        <ele>61</ele>
        <time>2018-01-20T13:35:51Z</time>
      </trkpt>
      <trkpt lat="43.68851" lon="7.07308">
        <ele>59</ele>
        <time>2018-01-20T13:35:55Z</time>
      </trkpt>
      <trkpt lat="43.68845" lon="7.07302">
        <ele>58</ele>
        <time>2018-01-20T13:35:57Z</time>
      </trkpt>
      <trkpt lat="43.68826" lon="7.073">
        <ele>57</ele>
        <time>2018-01-20T13:36:02Z</time>
      </trkpt>
      <trkpt lat="43.68817" lon="7.07301">
        <ele>57</ele>
        <time>2018-01-20T13:36:04Z</time>
      </trkpt>
      <trkpt lat="43.68803" lon="7.07296">
        <ele>55</ele>
        <time>2018-01-20T13:36:10Z</time>
      </trkpt>
      <trkpt lat="43.68793" lon="7.07278">
        <ele>53</ele>
        <time>2018-01-20T13:36:15Z</time>
      </trkpt>
      <trkpt lat="43.68787" lon="7.07267">
        <ele>52</ele>
        <time>2018-01-20T13:36:18Z</time>
      </trkpt>
      <trkpt lat="43.68782" lon="7.07259">
        <ele>51</ele>
        <time>2018-01-20T13:36:21Z</time>
      </trkpt>
      <trkpt lat="43.68791" lon="7.07261">
        <ele>51</ele>
        <time>2018-01-20T13:38:30Z</time>
      </trkpt>
      <trkpt lat="43.6881" lon="7.07264">
        <ele>52</ele>
        <time>2018-01-20T13:38:37Z</time>
      </trkpt>
      <trkpt lat="43.68827" lon="7.07266">
        <ele>51</ele>
        <time>2018-01-20T13:38:43Z</time>
      </trkpt>
      <trkpt lat="43.68843" lon="7.07273">
        <ele>53</ele>
        <time>2018-01-20T13:38:48Z</time>
      </trkpt>
      <trkpt lat="43.68865" lon="7.07289">
        <ele>56</ele>
        <time>2018-01-20T13:38:55Z</time>
      </trkpt>
      <trkpt lat="43.6888" lon="7.07302">
        <ele>56</ele>
        <time>2018-01-20T13:39:00Z</time>
      </trkpt>
      <trkpt lat="43.68889" lon="7.0731">
        <ele>56</ele>
        <time>2018-01-20T13:39:03Z</time>
      </trkpt>
      <trkpt lat="43.68906" lon="7.07315">
        <ele>56</ele>
        <time>2018-01-20T13:39:09Z</time>
      </trkpt>
      <trkpt lat="43.68924" lon="7.07313">
        <ele>61</ele>
        <time>2018-01-20T13:39:15Z</time>
      </trkpt>
      <trkpt lat="43.68939" lon="7.07301">
        <ele>63</ele>
        <time>2018-01-20T13:39:21Z</time>
      </trkpt>
      <trkpt lat="43.68946" lon="7.07295">
        <ele>64</ele>
        <time>2018-01-20T13:39:26Z</time>
      </trkpt>
      <trkpt lat="43.68953" lon="7.07297">
        <ele>65</ele>
        <time>2018-01-20T13:39:31Z</time>
      </trkpt>
      <trkpt lat="43.68962" lon="7.07316">
        <ele>66</ele>
        <time>2018-01-20T13:39:40Z</time>
      </trkpt>
      <trkpt lat="43.68967" lon="7.07325">
        <ele>67</ele>
        <time>2018-01-20T13:39:46Z</time>
      </trkpt>
      <trkpt lat="43.68971" lon="7.07334">
        <ele>68</ele>
        <time>2018-01-20T13:39:52Z</time>
      </trkpt>
      <trkpt lat="43.68975" lon="7.07341">
        <ele>69</ele>
        <time>2018-01-20T13:39:59Z</time>
      </trkpt>
      <trkpt lat="43.68982" lon="7.07346">
        <ele>70</ele>
        <time>2018-01-20T13:40:07Z</time>
      </trkpt>
      <trkpt lat="43.6899" lon="7.0735">
        <ele>70</ele>
        <time>2018-01-20T13:40:15Z</time>
      </trkpt>
      <trkpt lat="43.68997" lon="7.07352">
        <ele>70</ele>
        <time>2018-01-20T13:40:23Z</time>
      </trkpt>
      <trkpt lat="43.69004" lon="7.07354">
        <ele>77</ele>
        <time>2018-01-20T13:40:33Z</time>
      </trkpt>
      <trkpt lat="43.69012" lon="7.07355">
        <ele>78</ele>
        <time>2018-01-20T13:40:42Z</time>
      </trkpt>
      <trkpt lat="43.6902" lon="7.07358">
        <ele>79</ele>
        <time>2018-01-20T13:40:54Z</time>
      </trkpt>
      <trkpt lat="43.69027" lon="7.07357">
        <ele>80</ele>
        <time>2018-01-20T13:41:28Z</time>
      </trkpt>
      <trkpt lat="43.69019" lon="7.07357">
        <ele>79</ele>
        <time>2018-01-20T13:42:12Z</time>
      </trkpt>
      <trkpt lat="43.69011" lon="7.07357">
        <ele>78</ele>
        <time>2018-01-20T13:42:17Z</time>
      </trkpt>
      <trkpt lat="43.69004" lon="7.07359">
        <ele>77</ele>
        <time>2018-01-20T13:42:26Z</time>
      </trkpt>
      <trkpt lat="43.68997" lon="7.07354">
        <ele>70</ele>
        <time>2018-01-20T13:42:41Z</time>
      </trkpt>
      <trkpt lat="43.69005" lon="7.07356">
        <ele>77</ele>
        <time>2018-01-20T13:42:54Z</time>
      </trkpt>
      <trkpt lat="43.69012" lon="7.07361">
        <ele>78</ele>
        <time>2018-01-20T13:43:06Z</time>
      </trkpt>
      <trkpt lat="43.69021" lon="7.07361">
        <ele>79</ele>
        <time>2018-01-20T13:43:14Z</time>
      </trkpt>
      <trkpt lat="43.69029" lon="7.07358">
        <ele>80</ele>
        <time>2018-01-20T13:44:23Z</time>
      </trkpt>
      <trkpt lat="43.69034" lon="7.07365">
        <ele>80</ele>
        <time>2018-01-20T13:45:34Z</time>
      </trkpt>
      <trkpt lat="43.69049" lon="7.07367">
        <ele>82</ele>
        <time>2018-01-20T13:45:45Z</time>
      </trkpt>
      <trkpt lat="43.69057" lon="7.07368">
        <ele>83</ele>
        <time>2018-01-20T13:45:52Z</time>
      </trkpt>
      <trkpt lat="43.69064" lon="7.07365">
        <ele>85</ele>
        <time>2018-01-20T13:45:56Z</time>
      </trkpt>
      <trkpt lat="43.69072" lon="7.07368">
        <ele>85</ele>
        <time>2018-01-20T13:46:04Z</time>
      </trkpt>
      <trkpt lat="43.69076" lon="7.07377">
        <ele>83</ele>
        <time>2018-01-20T13:46:15Z</time>
      </trkpt>
      <trkpt lat="43.6908" lon="7.07385">
        <ele>81</ele>
        <time>2018-01-20T13:46:27Z</time>
      </trkpt>
      <trkpt lat="43.69088" lon="7.07383">
        <ele>97</ele>
        <time>2018-01-20T13:46:35Z</time>
      </trkpt>
      <trkpt lat="43.69095" lon="7.07385">
        <ele>97</ele>
        <time>2018-01-20T13:46:44Z</time>
      </trkpt>
      <trkpt lat="43.69101" lon="7.07392">
        <ele>96</ele>
        <time>2018-01-20T13:46:55Z</time>
      </trkpt>
      <trkpt lat="43.69109" lon="7.07391">
        <ele>98</ele>
        <time>2018-01-20T13:47:01Z</time>
      </trkpt>
      <trkpt lat="43.69113" lon="7.07399">
        <ele>97</ele>
        <time>2018-01-20T13:47:15Z</time>
      </trkpt>
      <trkpt lat="43.69116" lon="7.07409">
        <ele>97</ele>
        <time>2018-01-20T13:47:21Z</time>
      </trkpt>
      <trkpt lat="43.69124" lon="7.07406">
        <ele>99</ele>
        <time>2018-01-20T13:47:29Z</time>
      </trkpt>
      <trkpt lat="43.69132" lon="7.07407">
        <ele>101</ele>
        <time>2018-01-20T13:47:38Z</time>
      </trkpt>
      <trkpt lat="43.6914" lon="7.07408">
        <ele>103</ele>
        <time>2018-01-20T13:47:45Z</time>
      </trkpt>
      <trkpt lat="43.69147" lon="7.07409">
        <ele>104</ele>
        <time>2018-01-20T13:47:53Z</time>
      </trkpt>
      <trkpt lat="43.69155" lon="7.07408">
        <ele>105</ele>
        <time>2018-01-20T13:48:07Z</time>
      </trkpt>
      <trkpt lat="43.69162" lon="7.0741">
        <ele>105</ele>
        <time>2018-01-20T13:48:16Z</time>
      </trkpt>
      <trkpt lat="43.6917" lon="7.07407">
        <ele>114</ele>
        <time>2018-01-20T13:48:24Z</time>
      </trkpt>
      <trkpt lat="43.69174" lon="7.07398">
        <ele>119</ele>
        <time>2018-01-20T13:48:32Z</time>
      </trkpt>
      <trkpt lat="43.69173" lon="7.07388">
        <ele>123</ele>
        <time>2018-01-20T13:48:51Z</time>
      </trkpt>
      <trkpt lat="43.6917" lon="7.07379">
        <ele>125</ele>
        <time>2018-01-20T13:48:58Z</time>
      </trkpt>
      <trkpt lat="43.69163" lon="7.07373">
        <ele>110</ele>
        <time>2018-01-20T13:49:06Z</time>
      </trkpt>
      <trkpt lat="43.69158" lon="7.07366">
        <ele>111</ele>
        <time>2018-01-20T13:49:13Z</time>
      </trkpt>
      <trkpt lat="43.6915" lon="7.07361">
        <ele>111</ele>
        <time>2018-01-20T13:49:20Z</time>
      </trkpt>
      <trkpt lat="43.69146" lon="7.07353">
        <ele>112</ele>
        <time>2018-01-20T13:49:28Z</time>
      </trkpt>
      <trkpt lat="43.69145" lon="7.07341">
        <ele>115</ele>
        <time>2018-01-20T13:49:35Z</time>
      </trkpt>
      <trkpt lat="43.69139" lon="7.07334">
        <ele>113</ele>
        <time>2018-01-20T13:49:43Z</time>
      </trkpt>
      <trkpt lat="43.69134" lon="7.07326">
        <ele>125</ele>
        <time>2018-01-20T13:49:51Z</time>
      </trkpt>
      <trkpt lat="43.69129" lon="7.07317">
        <ele>124</ele>
        <time>2018-01-20T13:49:58Z</time>
      </trkpt>
      <trkpt lat="43.69124" lon="7.07308">
        <ele>124</ele>
        <time>2018-01-20T13:50:06Z</time>
      </trkpt>
      <trkpt lat="43.69118" lon="7.073">
        <ele>124</ele>
        <time>2018-01-20T13:50:15Z</time>
      </trkpt>
      <trkpt lat="43.69113" lon="7.07291">
        <ele>124</ele>
        <time>2018-01-20T13:50:22Z</time>
      </trkpt>
      <trkpt lat="43.69108" lon="7.07284">
        <ele>124</ele>
        <time>2018-01-20T13:50:30Z</time>
      </trkpt>
      <trkpt lat="43.69107" lon="7.07274">
        <ele>124</ele>
        <time>2018-01-20T13:50:36Z</time>
      </trkpt>
      <trkpt lat="43.69115" lon="7.07274">
        <ele>125</ele>
        <time>2018-01-20T13:51:09Z</time>
      </trkpt>
      <trkpt lat="43.69122" lon="7.07277">
        <ele>126</ele>
        <time>2018-01-20T13:51:20Z</time>
      </trkpt>
      <trkpt lat="43.69129" lon="7.07282">
        <ele>127</ele>
        <time>2018-01-20T13:51:44Z</time>
      </trkpt>
      <trkpt lat="43.69136" lon="7.07284">
        <ele>128</ele>
        <time>2018-01-20T13:51:54Z</time>
      </trkpt>
      <trkpt lat="43.69143" lon="7.07284">
        <ele>130</ele>
        <time>2018-01-20T13:52:01Z</time>
      </trkpt>
      <trkpt lat="43.6915" lon="7.0728">
        <ele>132</ele>
        <time>2018-01-20T13:52:08Z</time>
      </trkpt>
      <trkpt lat="43.69157" lon="7.07283">
        <ele>132</ele>
        <time>2018-01-20T13:52:19Z</time>
      </trkpt>
      <trkpt lat="43.69164" lon="7.07286">
        <ele>132</ele>
        <time>2018-01-20T13:52:28Z</time>
      </trkpt>
      <trkpt lat="43.69172" lon="7.0729">
        <ele>148</ele>
        <time>2018-01-20T13:52:41Z</time>
      </trkpt>
      <trkpt lat="43.69181" lon="7.07288">
        <ele>148</ele>
        <time>2018-01-20T13:52:49Z</time>
      </trkpt>
      <trkpt lat="43.69188" lon="7.07289">
        <ele>149</ele>
        <time>2018-01-20T13:52:56Z</time>
      </trkpt>
      <trkpt lat="43.69196" lon="7.0729">
        <ele>150</ele>
        <time>2018-01-20T13:53:10Z</time>
      </trkpt>
      <trkpt lat="43.69205" lon="7.07289">
        <ele>151</ele>
        <time>2018-01-20T13:53:16Z</time>
      </trkpt>
      <trkpt lat="43.69212" lon="7.07293">
        <ele>152</ele>
        <time>2018-01-20T13:53:29Z</time>
      </trkpt>
      <trkpt lat="43.6922" lon="7.07292">
        <ele>153</ele>
        <time>2018-01-20T13:53:40Z</time>
      </trkpt>
      <trkpt lat="43.69228" lon="7.07293">
        <ele>154</ele>
        <time>2018-01-20T13:53:48Z</time>
      </trkpt>
      <trkpt lat="43.69235" lon="7.07293">
        <ele>155</ele>
        <time>2018-01-20T13:53:56Z</time>
      </trkpt>
      <trkpt lat="43.69242" lon="7.07296">
        <ele>155</ele>
        <time>2018-01-20T13:54:04Z</time>
      </trkpt>
      <trkpt lat="43.69252" lon="7.07295">
        <ele>168</ele>
        <time>2018-01-20T13:54:09Z</time>
      </trkpt>
      <trkpt lat="43.69259" lon="7.07291">
        <ele>169</ele>
        <time>2018-01-20T13:54:15Z</time>
      </trkpt>
      <trkpt lat="43.69266" lon="7.0729">
        <ele>170</ele>
        <time>2018-01-20T13:54:21Z</time>
      </trkpt>
      <trkpt lat="43.69271" lon="7.07297">
        <ele>169</ele>
        <time>2018-01-20T13:54:28Z</time>
      </trkpt>
      <trkpt lat="43.69277" lon="7.07304">
        <ele>168</ele>
        <time>2018-01-20T13:54:37Z</time>
      </trkpt>
      <trkpt lat="43.69281" lon="7.07314">
        <ele>167</ele>
        <time>2018-01-20T13:54:47Z</time>
      </trkpt>
      <trkpt lat="43.69288" lon="7.07311">
        <ele>169</ele>
        <time>2018-01-20T13:54:54Z</time>
      </trkpt>
      <trkpt lat="43.69296" lon="7.07316">
        <ele>169</ele>
        <time>2018-01-20T13:55:02Z</time>
      </trkpt>
      <trkpt lat="43.69305" lon="7.07318">
        <ele>170</ele>
        <time>2018-01-20T13:55:07Z</time>
      </trkpt>
      <trkpt lat="43.69314" lon="7.07319">
        <ele>171</ele>
        <time>2018-01-20T13:55:14Z</time>
      </trkpt>
      <trkpt lat="43.6932" lon="7.07325">
        <ele>170</ele>
        <time>2018-01-20T13:55:23Z</time>
      </trkpt>
      <trkpt lat="43.69328" lon="7.07327">
        <ele>170</ele>
        <time>2018-01-20T13:55:32Z</time>
      </trkpt>
      <trkpt lat="43.69336" lon="7.0733">
        <ele>173</ele>
        <time>2018-01-20T13:55:42Z</time>
      </trkpt>
      <trkpt lat="43.69343" lon="7.07332">
        <ele>176</ele>
        <time>2018-01-20T13:55:51Z</time>
      </trkpt>
      <trkpt lat="43.69351" lon="7.07331">
        <ele>179</ele>
        <time>2018-01-20T13:56:00Z</time>
      </trkpt>
      <trkpt lat="43.69358" lon="7.07331">
        <ele>181</ele>
        <time>2018-01-20T13:56:06Z</time>
      </trkpt>
      <trkpt lat="43.69366" lon="7.07329">
        <ele>183</ele>
        <time>2018-01-20T13:56:13Z</time>
      </trkpt>
      <trkpt lat="43.69373" lon="7.07326">
        <ele>184</ele>
        <time>2018-01-20T13:56:19Z</time>
      </trkpt>
      <trkpt lat="43.6938" lon="7.0733">
        <ele>185</ele>
        <time>2018-01-20T13:56:30Z</time>
      </trkpt>
      <trkpt lat="43.69387" lon="7.07335">
        <ele>178</ele>
        <time>2018-01-20T13:56:36Z</time>
      </trkpt>
      <trkpt lat="43.69401" lon="7.07337">
        <ele>182</ele>
        <time>2018-01-20T13:56:47Z</time>
      </trkpt>
      <trkpt lat="43.69404" lon="7.07327">
        <ele>188</ele>
        <time>2018-01-20T13:56:53Z</time>
      </trkpt>
      <trkpt lat="43.69405" lon="7.07317">
        <ele>188</ele>
        <time>2018-01-20T13:56:59Z</time>
      </trkpt>
      <trkpt lat="43.69403" lon="7.07307">
        <ele>188</ele>
        <time>2018-01-20T13:57:05Z</time>
      </trkpt>
      <trkpt lat="43.69401" lon="7.07297">
        <ele>189</ele>
        <time>2018-01-20T13:57:12Z</time>
      </trkpt>
      <trkpt lat="43.69398" lon="7.07286">
        <ele>190</ele>
        <time>2018-01-20T13:57:19Z</time>
      </trkpt>
      <trkpt lat="43.69394" lon="7.07278">
        <ele>191</ele>
        <time>2018-01-20T13:57:24Z</time>
      </trkpt>
      <trkpt lat="43.69388" lon="7.07269">
        <ele>191</ele>
        <time>2018-01-20T13:57:31Z</time>
      </trkpt>
      <trkpt lat="43.69379" lon="7.07264">
        <ele>191</ele>
        <time>2018-01-20T13:57:37Z</time>
      </trkpt>
      <trkpt lat="43.69372" lon="7.07258">
        <ele>190</ele>
        <time>2018-01-20T13:57:43Z</time>
      </trkpt>
      <trkpt lat="43.69363" lon="7.07255">
        <ele>189</ele>
        <time>2018-01-20T13:57:48Z</time>
      </trkpt>
      <trkpt lat="43.69354" lon="7.07252">
        <ele>189</ele>
        <time>2018-01-20T13:57:53Z</time>
      </trkpt>
      <trkpt lat="43.69347" lon="7.07248">
        <ele>197</ele>
        <time>2018-01-20T13:57:58Z</time>
      </trkpt>
      <trkpt lat="43.69341" lon="7.07242">
        <ele>195</ele>
        <time>2018-01-20T13:58:03Z</time>
      </trkpt>
      <trkpt lat="43.69328" lon="7.07231">
        <ele>191</ele>
        <time>2018-01-20T13:58:14Z</time>
      </trkpt>
      <trkpt lat="43.69321" lon="7.07228">
        <ele>191</ele>
        <time>2018-01-20T13:58:20Z</time>
      </trkpt>
      <trkpt lat="43.69314" lon="7.07223">
        <ele>192</ele>
        <time>2018-01-20T13:58:25Z</time>
      </trkpt>
      <trkpt lat="43.69307" lon="7.07218">
        <ele>192</ele>
        <time>2018-01-20T13:58:29Z</time>
      </trkpt>
      <trkpt lat="43.69294" lon="7.07204">
        <ele>192</ele>
        <time>2018-01-20T13:58:38Z</time>
      </trkpt>
      <trkpt lat="43.69288" lon="7.07195">
        <ele>193</ele>
        <time>2018-01-20T13:58:43Z</time>
      </trkpt>
      <trkpt lat="43.69283" lon="7.07187">
        <ele>193</ele>
        <time>2018-01-20T13:58:49Z</time>
      </trkpt>
      <trkpt lat="43.69279" lon="7.07177">
        <ele>193</ele>
        <time>2018-01-20T13:58:55Z</time>
      </trkpt>
      <trkpt lat="43.69277" lon="7.07165">
        <ele>201</ele>
        <time>2018-01-20T13:59:02Z</time>
      </trkpt>
      <trkpt lat="43.69277" lon="7.07155">
        <ele>201</ele>
        <time>2018-01-20T13:59:08Z</time>
      </trkpt>
      <trkpt lat="43.69277" lon="7.07144">
        <ele>202</ele>
        <time>2018-01-20T13:59:13Z</time>
      </trkpt>
      <trkpt lat="43.69278" lon="7.07133">
        <ele>203</ele>
        <time>2018-01-20T13:59:20Z</time>
      </trkpt>
      <trkpt lat="43.69279" lon="7.07122">
        <ele>204</ele>
        <time>2018-01-20T13:59:26Z</time>
      </trkpt>
      <trkpt lat="43.69277" lon="7.07111">
        <ele>204</ele>
        <time>2018-01-20T13:59:33Z</time>
      </trkpt>
      <trkpt lat="43.69277" lon="7.07099">
        <ele>204</ele>
        <time>2018-01-20T13:59:39Z</time>
      </trkpt>
      <trkpt lat="43.69279" lon="7.07088">
        <ele>204</ele>
        <time>2018-01-20T13:59:45Z</time>
      </trkpt>
      <trkpt lat="43.69279" lon="7.07076">
        <ele>209</ele>
        <time>2018-01-20T13:59:51Z</time>
      </trkpt>
      <trkpt lat="43.69281" lon="7.07066">
        <ele>210</ele>
        <time>2018-01-20T13:59:58Z</time>
      </trkpt>
      <trkpt lat="43.69285" lon="7.07056">
        <ele>212</ele>
        <time>2018-01-20T14:00:05Z</time>
      </trkpt>
      <trkpt lat="43.69286" lon="7.07045">
        <ele>213</ele>
        <time>2018-01-20T14:00:11Z</time>
      </trkpt>
      <trkpt lat="43.69289" lon="7.07035">
        <ele>213</ele>
        <time>2018-01-20T14:00:18Z</time>
      </trkpt>
      <trkpt lat="43.69291" lon="7.07025">
        <ele>214</ele>
        <time>2018-01-20T14:00:24Z</time>
      </trkpt>
      <trkpt lat="43.69296" lon="7.07015">
        <ele>215</ele>
        <time>2018-01-20T14:00:30Z</time>
      </trkpt>
      <trkpt lat="43.69298" lon="7.07003">
        <ele>216</ele>
        <time>2018-01-20T14:00:36Z</time>
      </trkpt>
      <trkpt lat="43.693" lon="7.06993">
        <ele>219</ele>
        <time>2018-01-20T14:00:41Z</time>
      </trkpt>
      <trkpt lat="43.69301" lon="7.06982">
        <ele>219</ele>
        <time>2018-01-20T14:00:48Z</time>
      </trkpt>
      <trkpt lat="43.69301" lon="7.06972">
        <ele>219</ele>
        <time>2018-01-20T14:00:54Z</time>
      </trkpt>
      <trkpt lat="43.69298" lon="7.06963">
        <ele>218</ele>
        <time>2018-01-20T14:01:00Z</time>
      </trkpt>
      <trkpt lat="43.69295" lon="7.06954">
        <ele>218</ele>
        <time>2018-01-20T14:01:05Z</time>
      </trkpt>
      <trkpt lat="43.6929" lon="7.06945">
        <ele>218</ele>
        <time>2018-01-20T14:01:11Z</time>
      </trkpt>
      <trkpt lat="43.69284" lon="7.06938">
        <ele>217</ele>
        <time>2018-01-20T14:01:16Z</time>
      </trkpt>
      <trkpt lat="43.69278" lon="7.06932">
        <ele>216</ele>
        <time>2018-01-20T14:01:21Z</time>
      </trkpt>
      <trkpt lat="43.69273" lon="7.06924">
        <ele>215</ele>
        <time>2018-01-20T14:01:26Z</time>
      </trkpt>
      <trkpt lat="43.69276" lon="7.06915">
        <ele>210</ele>
        <time>2018-01-20T14:01:31Z</time>
      </trkpt>
      <trkpt lat="43.69285" lon="7.06915">
        <ele>211</ele>
        <time>2018-01-20T14:01:39Z</time>
      </trkpt>
      <trkpt lat="43.69292" lon="7.0692">
        <ele>218</ele>
        <time>2018-01-20T14:01:44Z</time>
      </trkpt>
      <trkpt lat="43.693" lon="7.06925">
        <ele>219</ele>
        <time>2018-01-20T14:01:50Z</time>
      </trkpt>
      <trkpt lat="43.69308" lon="7.06928">
        <ele>221</ele>
        <time>2018-01-20T14:01:56Z</time>
      </trkpt>
      <trkpt lat="43.69316" lon="7.06933">
        <ele>222</ele>
        <time>2018-01-20T14:02:01Z</time>
      </trkpt>
      <trkpt lat="43.69332" lon="7.06943">
        <ele>222</ele>
        <time>2018-01-20T14:02:09Z</time>
      </trkpt>
      <trkpt lat="43.69345" lon="7.06957">
        <ele>234</ele>
        <time>2018-01-20T14:02:17Z</time>
      </trkpt>
      <trkpt lat="43.69352" lon="7.06977">
        <ele>234</ele>
        <time>2018-01-20T14:02:25Z</time>
      </trkpt>
      <trkpt lat="43.69359" lon="7.06962">
        <ele>236</ele>
        <time>2018-01-20T14:02:34Z</time>
      </trkpt>
      <trkpt lat="43.69361" lon="7.06942">
        <ele>235</ele>
        <time>2018-01-20T14:02:42Z</time>
      </trkpt>
      <trkpt lat="43.69359" lon="7.0693">
        <ele>235</ele>
        <time>2018-01-20T14:02:48Z</time>
      </trkpt>
      <trkpt lat="43.69354" lon="7.06921">
        <ele>234</ele>
        <time>2018-01-20T14:02:53Z</time>
      </trkpt>
      <trkpt lat="43.69354" lon="7.06911">
        <ele>228</ele>
        <time>2018-01-20T14:02:58Z</time>
      </trkpt>
      <trkpt lat="43.69362" lon="7.0691">
        <ele>228</ele>
        <time>2018-01-20T14:03:04Z</time>
      </trkpt>
      <trkpt lat="43.69368" lon="7.06918">
        <ele>236</ele>
        <time>2018-01-20T14:03:10Z</time>
      </trkpt>
      <trkpt lat="43.69377" lon="7.06922">
        <ele>237</ele>
        <time>2018-01-20T14:03:15Z</time>
      </trkpt>
      <trkpt lat="43.69385" lon="7.0692">
        <ele>238</ele>
        <time>2018-01-20T14:03:20Z</time>
      </trkpt>
      <trkpt lat="43.69392" lon="7.06915">
        <ele>234</ele>
        <time>2018-01-20T14:03:25Z</time>
      </trkpt>
      <trkpt lat="43.69398" lon="7.06907">
        <ele>235</ele>
        <time>2018-01-20T14:03:30Z</time>
      </trkpt>
      <trkpt lat="43.69404" lon="7.06902">
        <ele>235</ele>
        <time>2018-01-20T14:03:35Z</time>
      </trkpt>
      <trkpt lat="43.69411" lon="7.06898">
        <ele>235</ele>
        <time>2018-01-20T14:03:41Z</time>
      </trkpt>
      <trkpt lat="43.69418" lon="7.06896">
        <ele>244</ele>
        <time>2018-01-20T14:03:46Z</time>
      </trkpt>
      <trkpt lat="43.69423" lon="7.06889">
        <ele>244</ele>
        <time>2018-01-20T14:06:23Z</time>
      </trkpt>
      <trkpt lat="43.69429" lon="7.06882">
        <ele>243</ele>
        <time>2018-01-20T14:07:39Z</time>
      </trkpt>
      <trkpt lat="43.69438" lon="7.06887">
        <ele>244</ele>
        <time>2018-01-20T14:07:52Z</time>
      </trkpt>
      <trkpt lat="43.69453" lon="7.06886">
        <ele>245</ele>
        <time>2018-01-20T14:08:01Z</time>
      </trkpt>
      <trkpt lat="43.69462" lon="7.06883">
        <ele>246</ele>
        <time>2018-01-20T14:08:06Z</time>
      </trkpt>
      <trkpt lat="43.69477" lon="7.06891">
        <ele>248</ele>
        <time>2018-01-20T14:08:14Z</time>
      </trkpt>
      <trkpt lat="43.69493" lon="7.06905">
        <ele>251</ele>
        <time>2018-01-20T14:08:23Z</time>
      </trkpt>
      <trkpt lat="43.695" lon="7.06911">
        <ele>255</ele>
        <time>2018-01-20T14:08:28Z</time>
      </trkpt>
      <trkpt lat="43.69516" lon="7.06921">
        <ele>257</ele>
        <time>2018-01-20T14:08:36Z</time>
      </trkpt>
      <trkpt lat="43.69531" lon="7.06928">
        <ele>258</ele>
        <time>2018-01-20T14:08:43Z</time>
      </trkpt>
      <trkpt lat="43.6954" lon="7.06928">
        <ele>259</ele>
        <time>2018-01-20T14:08:48Z</time>
      </trkpt>
      <trkpt lat="43.69546" lon="7.06932">
        <ele>259</ele>
        <time>2018-01-20T14:08:53Z</time>
      </trkpt>
      <trkpt lat="43.6956" lon="7.06942">
        <ele>260</ele>
        <time>2018-01-20T14:09:00Z</time>
      </trkpt>
      <trkpt lat="43.69575" lon="7.06954">
        <ele>260</ele>
        <time>2018-01-20T14:09:07Z</time>
      </trkpt>
      <trkpt lat="43.69591" lon="7.06963">
        <ele>266</ele>
        <time>2018-01-20T14:09:15Z</time>
      </trkpt>
      <trkpt lat="43.69598" lon="7.06968">
        <ele>267</ele>
        <time>2018-01-20T14:09:20Z</time>
      </trkpt>
      <trkpt lat="43.69606" lon="7.06972">
        <ele>267</ele>
        <time>2018-01-20T14:09:25Z</time>
      </trkpt>
      <trkpt lat="43.69614" lon="7.06976">
        <ele>267</ele>
        <time>2018-01-20T14:09:34Z</time>
      </trkpt>
      <trkpt lat="43.69625" lon="7.06996">
        <ele>268</ele>
        <time>2018-01-20T14:09:43Z</time>
      </trkpt>
      <trkpt lat="43.6963" lon="7.07005">
        <ele>268</ele>
        <time>2018-01-20T14:09:48Z</time>
      </trkpt>
      <trkpt lat="43.69636" lon="7.07012">
        <ele>269</ele>
        <time>2018-01-20T14:09:54Z</time>
      </trkpt>
      <trkpt lat="43.69644" lon="7.07016">
        <ele>269</ele>
        <time>2018-01-20T14:10:00Z</time>
      </trkpt>
      <trkpt lat="43.69658" lon="7.07013">
        <ele>271</ele>
        <time>2018-01-20T14:10:09Z</time>
      </trkpt>
      <trkpt lat="43.69666" lon="7.07008">
        <ele>272</ele>
        <time>2018-01-20T14:10:14Z</time>
      </trkpt>
      <trkpt lat="43.69673" lon="7.06989">
        <ele>275</ele>
        <time>2018-01-20T14:10:23Z</time>
      </trkpt>
      <trkpt lat="43.69673" lon="7.06978">
        <ele>276</ele>
        <time>2018-01-20T14:10:29Z</time>
      </trkpt>
      <trkpt lat="43.69679" lon="7.06969">
        <ele>276</ele>
        <time>2018-01-20T14:10:35Z</time>
      </trkpt>
      <trkpt lat="43.69684" lon="7.0696">
        <ele>277</ele>
        <time>2018-01-20T14:10:40Z</time>
      </trkpt>
      <trkpt lat="43.6969" lon="7.06951">
        <ele>277</ele>
        <time>2018-01-20T14:10:46Z</time>
      </trkpt>
      <trkpt lat="43.69695" lon="7.06943">
        <ele>277</ele>
        <time>2018-01-20T14:10:51Z</time>
      </trkpt>
      <trkpt lat="43.69701" lon="7.06937">
        <ele>277</ele>
        <time>2018-01-20T14:10:56Z</time>
      </trkpt>
      <trkpt lat="43.69707" lon="7.06931">
        <ele>278</ele>
        <time>2018-01-20T14:11:01Z</time>
      </trkpt>
      <trkpt lat="43.69714" lon="7.06925">
        <ele>278</ele>
        <time>2018-01-20T14:11:07Z</time>
      </trkpt>
      <trkpt lat="43.69722" lon="7.06921">
        <ele>279</ele>
        <time>2018-01-20T14:11:12Z</time>
      </trkpt>
      <trkpt lat="43.69729" lon="7.06917">
        <ele>280</ele>
        <time>2018-01-20T14:11:18Z</time>
      </trkpt>
      <trkpt lat="43.69736" lon="7.06913">
        <ele>276</ele>
        <time>2018-01-20T14:11:23Z</time>
      </trkpt>
      <trkpt lat="43.69743" lon="7.06908">
        <ele>277</ele>
        <time>2018-01-20T14:11:28Z</time>
      </trkpt>
      <trkpt lat="43.69751" lon="7.06903">
        <ele>276</ele>
        <time>2018-01-20T14:11:33Z</time>
      </trkpt>
      <trkpt lat="43.69758" lon="7.069">
        <ele>275</ele>
        <time>2018-01-20T14:11:38Z</time>
      </trkpt>
      <trkpt lat="43.69766" lon="7.06901">
        <ele>274</ele>
        <time>2018-01-20T14:11:43Z</time>
      </trkpt>
      <trkpt lat="43.6977" lon="7.0691">
        <ele>275</ele>
        <time>2018-01-20T14:11:48Z</time>
      </trkpt>
      <trkpt lat="43.69774" lon="7.0693">
        <ele>285</ele>
        <time>2018-01-20T14:11:59Z</time>
      </trkpt>
      <trkpt lat="43.6978" lon="7.06937">
        <ele>286</ele>
        <time>2018-01-20T14:12:07Z</time>
      </trkpt>
      <trkpt lat="43.69788" lon="7.06942">
        <ele>286</ele>
        <time>2018-01-20T14:12:14Z</time>
      </trkpt>
      <trkpt lat="43.69794" lon="7.06949">
        <ele>287</ele>
        <time>2018-01-20T14:12:19Z</time>
      </trkpt>
      <trkpt lat="43.69799" lon="7.06957">
        <ele>287</ele>
        <time>2018-01-20T14:12:25Z</time>
      </trkpt>
      <trkpt lat="43.69802" lon="7.06966">
        <ele>288</ele>
        <time>2018-01-20T14:12:30Z</time>
      </trkpt>
      <trkpt lat="43.69806" lon="7.06975">
        <ele>288</ele>
        <time>2018-01-20T14:12:35Z</time>
      </trkpt>
      <trkpt lat="43.69809" lon="7.06984">
        <ele>289</ele>
        <time>2018-01-20T14:12:41Z</time>
      </trkpt>
      <trkpt lat="43.69814" lon="7.06993">
        <ele>290</ele>
        <time>2018-01-20T14:12:46Z</time>
      </trkpt>
      <trkpt lat="43.69818" lon="7.07004">
        <ele>292</ele>
        <time>2018-01-20T14:12:52Z</time>
      </trkpt>
      <trkpt lat="43.69821" lon="7.07012">
        <ele>292</ele>
        <time>2018-01-20T14:12:57Z</time>
      </trkpt>
      <trkpt lat="43.69827" lon="7.07019">
        <ele>292</ele>
        <time>2018-01-20T14:13:02Z</time>
      </trkpt>
      <trkpt lat="43.69834" lon="7.07026">
        <ele>298</ele>
        <time>2018-01-20T14:13:08Z</time>
      </trkpt>
      <trkpt lat="43.69841" lon="7.0703">
        <ele>299</ele>
        <time>2018-01-20T14:13:14Z</time>
      </trkpt>
      <trkpt lat="43.69848" lon="7.07034">
        <ele>299</ele>
        <time>2018-01-20T14:13:20Z</time>
      </trkpt>
      <trkpt lat="43.69855" lon="7.0704">
        <ele>300</ele>
        <time>2018-01-20T14:13:25Z</time>
      </trkpt>
      <trkpt lat="43.69863" lon="7.07046">
        <ele>300</ele>
        <time>2018-01-20T14:13:31Z</time>
      </trkpt>
      <trkpt lat="43.69869" lon="7.07053">
        <ele>301</ele>
        <time>2018-01-20T14:13:37Z</time>
      </trkpt>
      <trkpt lat="43.69876" lon="7.07059">
        <ele>301</ele>
        <time>2018-01-20T14:13:42Z</time>
      </trkpt>
      <trkpt lat="43.69881" lon="7.07067">
        <ele>302</ele>
        <time>2018-01-20T14:13:48Z</time>
      </trkpt>
      <trkpt lat="43.69888" lon="7.07075">
        <ele>303</ele>
        <time>2018-01-20T14:13:54Z</time>
      </trkpt>
      <trkpt lat="43.69892" lon="7.07085">
        <ele>301</ele>
        <time>2018-01-20T14:13:59Z</time>
      </trkpt>
      <trkpt lat="43.69896" lon="7.07093">
        <ele>302</ele>
        <time>2018-01-20T14:14:05Z</time>
      </trkpt>
      <trkpt lat="43.69903" lon="7.07093">
        <ele>303</ele>
        <time>2018-01-20T14:14:12Z</time>
      </trkpt>
      <trkpt lat="43.69911" lon="7.0709">
        <ele>305</ele>
        <time>2018-01-20T14:14:19Z</time>
      </trkpt>
      <trkpt lat="43.69918" lon="7.07082">
        <ele>309</ele>
        <time>2018-01-20T14:14:25Z</time>
      </trkpt>
      <trkpt lat="43.69932" lon="7.07068">
        <ele>312</ele>
        <time>2018-01-20T14:14:34Z</time>
      </trkpt>
      <trkpt lat="43.69942" lon="7.07053">
        <ele>313</ele>
        <time>2018-01-20T14:14:42Z</time>
      </trkpt>
      <trkpt lat="43.69947" lon="7.07044">
        <ele>314</ele>
        <time>2018-01-20T14:14:47Z</time>
      </trkpt>
      <trkpt lat="43.69951" lon="7.07033">
        <ele>314</ele>
        <time>2018-01-20T14:14:53Z</time>
      </trkpt>
      <trkpt lat="43.69954" lon="7.07023">
        <ele>314</ele>
        <time>2018-01-20T14:14:58Z</time>
      </trkpt>
      <trkpt lat="43.69958" lon="7.07013">
        <ele>315</ele>
        <time>2018-01-20T14:15:04Z</time>
      </trkpt>
      <trkpt lat="43.69965" lon="7.07008">
        <ele>315</ele>
        <time>2018-01-20T14:15:09Z</time>
      </trkpt>
      <trkpt lat="43.69973" lon="7.07009">
        <ele>316</ele>
        <time>2018-01-20T14:15:14Z</time>
      </trkpt>
      <trkpt lat="43.69979" lon="7.07004">
        <ele>317</ele>
        <time>2018-01-20T14:15:24Z</time>
      </trkpt>
      <trkpt lat="43.69987" lon="7.07008">
        <ele>318</ele>
        <time>2018-01-20T14:15:31Z</time>
      </trkpt>
      <trkpt lat="43.69994" lon="7.07013">
        <ele>318</ele>
        <time>2018-01-20T14:15:36Z</time>
      </trkpt>
      <trkpt lat="43.70002" lon="7.07032">
        <ele>325</ele>
        <time>2018-01-20T14:15:46Z</time>
      </trkpt>
      <trkpt lat="43.70002" lon="7.07042">
        <ele>325</ele>
        <time>2018-01-20T14:15:52Z</time>
      </trkpt>
      <trkpt lat="43.70004" lon="7.07052">
        <ele>325</ele>
        <time>2018-01-20T14:15:57Z</time>
      </trkpt>
      <trkpt lat="43.70004" lon="7.07064">
        <ele>325</ele>
        <time>2018-01-20T14:16:03Z</time>
      </trkpt>
      <trkpt lat="43.70008" lon="7.07074">
        <ele>324</ele>
        <time>2018-01-20T14:16:10Z</time>
      </trkpt>
      <trkpt lat="43.70011" lon="7.07084">
        <ele>324</ele>
        <time>2018-01-20T14:16:16Z</time>
      </trkpt>
      <trkpt lat="43.70015" lon="7.07092">
        <ele>324</ele>
        <time>2018-01-20T14:16:21Z</time>
      </trkpt>
      <trkpt lat="43.70021" lon="7.07099">
        <ele>325</ele>
        <time>2018-01-20T14:16:27Z</time>
      </trkpt>
      <trkpt lat="43.70028" lon="7.071">
        <ele>326</ele>
        <time>2018-01-20T14:16:33Z</time>
      </trkpt>
      <trkpt lat="43.70032" lon="7.07091">
        <ele>326</ele>
        <time>2018-01-20T14:16:39Z</time>
      </trkpt>
      <trkpt lat="43.70039" lon="7.07083">
        <ele>327</ele>
        <time>2018-01-20T14:16:44Z</time>
      </trkpt>
      <trkpt lat="43.70047" lon="7.07081">
        <ele>328</ele>
        <time>2018-01-20T14:16:50Z</time>
      </trkpt>
      <trkpt lat="43.70055" lon="7.07084">
        <ele>329</ele>
        <time>2018-01-20T14:16:56Z</time>
      </trkpt>
      <trkpt lat="43.70061" lon="7.0709">
        <ele>329</ele>
        <time>2018-01-20T14:17:01Z</time>
      </trkpt>
      <trkpt lat="43.70066" lon="7.07098">
        <ele>330</ele>
        <time>2018-01-20T14:17:06Z</time>
      </trkpt>
      <trkpt lat="43.70073" lon="7.07105">
        <ele>330</ele>
        <time>2018-01-20T14:17:13Z</time>
      </trkpt>
      <trkpt lat="43.7008" lon="7.0711">
        <ele>329</ele>
        <time>2018-01-20T14:17:18Z</time>
      </trkpt>
      <trkpt lat="43.70086" lon="7.07117">
        <ele>335</ele>
        <time>2018-01-20T14:17:24Z</time>
      </trkpt>
      <trkpt lat="43.70094" lon="7.07124">
        <ele>335</ele>
        <time>2018-01-20T14:17:30Z</time>
      </trkpt>
      <trkpt lat="43.701" lon="7.07132">
        <ele>335</ele>
        <time>2018-01-20T14:17:49Z</time>
      </trkpt>
      <trkpt lat="43.70107" lon="7.0714">
        <ele>335</ele>
        <time>2018-01-20T14:17:54Z</time>
      </trkpt>
      <trkpt lat="43.7012" lon="7.07154">
        <ele>335</ele>
        <time>2018-01-20T14:18:01Z</time>
      </trkpt>
      <trkpt lat="43.70128" lon="7.07171">
        <ele>330</ele>
        <time>2018-01-20T14:18:07Z</time>
      </trkpt>
      <trkpt lat="43.70138" lon="7.07189">
        <ele>330</ele>
        <time>2018-01-20T14:18:13Z</time>
      </trkpt>
      <trkpt lat="43.70154" lon="7.072">
        <ele>330</ele>
        <time>2018-01-20T14:18:19Z</time>
      </trkpt>
      <trkpt lat="43.70174" lon="7.07221">
        <ele>331</ele>
        <time>2018-01-20T14:18:26Z</time>
      </trkpt>
      <trkpt lat="43.70188" lon="7.07236">
        <ele>330</ele>
        <time>2018-01-20T14:18:32Z</time>
      </trkpt>
      <trkpt lat="43.70205" lon="7.07234">
        <ele>330</ele>
        <time>2018-01-20T14:18:37Z</time>
      </trkpt>
      <trkpt lat="43.70213" lon="7.07225">
        <ele>330</ele>
        <time>2018-01-20T14:18:39Z</time>
      </trkpt>
      <trkpt lat="43.70238" lon="7.07196">
        <ele>331</ele>
        <time>2018-01-20T14:18:45Z</time>
      </trkpt>
      <trkpt lat="43.70252" lon="7.07164">
        <ele>332</ele>
        <time>2018-01-20T14:18:51Z</time>
      </trkpt>
      <trkpt lat="43.70264" lon="7.07145">
        <ele>328</ele>
        <time>2018-01-20T14:18:56Z</time>
      </trkpt>
      <trkpt lat="43.70277" lon="7.07125">
        <ele>327</ele>
        <time>2018-01-20T14:19:01Z</time>
      </trkpt>
      <trkpt lat="43.7029" lon="7.07096">
        <ele>327</ele>
        <time>2018-01-20T14:19:07Z</time>
      </trkpt>
      <trkpt lat="43.70301" lon="7.07063">
        <ele>328</ele>
        <time>2018-01-20T14:19:13Z</time>
      </trkpt>
      <trkpt lat="43.70315" lon="7.07017">
        <ele>327</ele>
        <time>2018-01-20T14:19:19Z</time>
      </trkpt>
      <trkpt lat="43.70316" lon="7.06967">
        <ele>325</ele>
        <time>2018-01-20T14:19:25Z</time>
      </trkpt>
      <trkpt lat="43.70325" lon="7.06949">
        <ele>324</ele>
        <time>2018-01-20T14:19:38Z</time>
      </trkpt>
      <trkpt lat="43.70334" lon="7.06943">
        <ele>314</ele>
        <time>2018-01-20T14:19:45Z</time>
      </trkpt>
      <trkpt lat="43.70342" lon="7.06936">
        <ele>314</ele>
        <time>2018-01-20T14:19:47Z</time>
      </trkpt>
      <trkpt lat="43.70369" lon="7.06916">
        <ele>307</ele>
        <time>2018-01-20T14:19:53Z</time>
      </trkpt>
      <trkpt lat="43.70398" lon="7.0689">
        <ele>304</ele>
        <time>2018-01-20T14:19:59Z</time>
      </trkpt>
      <trkpt lat="43.7042" lon="7.0687">
        <ele>295</ele>
        <time>2018-01-20T14:20:05Z</time>
      </trkpt>
      <trkpt lat="43.70431" lon="7.06852">
        <ele>295</ele>
        <time>2018-01-20T14:20:11Z</time>
      </trkpt>
      <trkpt lat="43.70446" lon="7.06843">
        <ele>294</ele>
        <time>2018-01-20T14:20:20Z</time>
      </trkpt>
      <trkpt lat="43.70454" lon="7.0684">
        <ele>293</ele>
        <time>2018-01-20T14:20:25Z</time>
      </trkpt>
      <trkpt lat="43.70471" lon="7.06841">
        <ele>291</ele>
        <time>2018-01-20T14:20:30Z</time>
      </trkpt>
      <trkpt lat="43.70498" lon="7.06833">
        <ele>288</ele>
        <time>2018-01-20T14:20:36Z</time>
      </trkpt>
      <trkpt lat="43.70517" lon="7.06804">
        <ele>282</ele>
        <time>2018-01-20T14:20:42Z</time>
      </trkpt>
      <trkpt lat="43.70541" lon="7.06787">
        <ele>280</ele>
        <time>2018-01-20T14:20:48Z</time>
      </trkpt>
      <trkpt lat="43.70555" lon="7.06774">
        <ele>280</ele>
        <time>2018-01-20T14:20:58Z</time>
      </trkpt>
      <trkpt lat="43.70572" lon="7.06764">
        <ele>279</ele>
        <time>2018-01-20T14:21:03Z</time>
      </trkpt>
      <trkpt lat="43.70588" lon="7.06738">
        <ele>279</ele>
        <time>2018-01-20T14:21:10Z</time>
      </trkpt>
      <trkpt lat="43.7059" lon="7.06715">
        <ele>279</ele>
        <time>2018-01-20T14:21:17Z</time>
      </trkpt>
      <trkpt lat="43.70595" lon="7.06693">
        <ele>280</ele>
        <time>2018-01-20T14:21:24Z</time>
      </trkpt>
      <trkpt lat="43.70609" lon="7.0668">
        <ele>280</ele>
        <time>2018-01-20T14:21:29Z</time>
      </trkpt>
      <trkpt lat="43.70631" lon="7.06668">
        <ele>280</ele>
        <time>2018-01-20T14:21:35Z</time>
      </trkpt>
      <trkpt lat="43.70638" lon="7.06664">
        <ele>281</ele>
        <time>2018-01-20T14:21:37Z</time>
      </trkpt>
      <trkpt lat="43.70658" lon="7.06649">
        <ele>281</ele>
        <time>2018-01-20T14:21:43Z</time>
      </trkpt>
      <trkpt lat="43.7067" lon="7.06633">
        <ele>283</ele>
        <time>2018-01-20T14:23:20Z</time>
      </trkpt>
      <trkpt lat="43.70673" lon="7.06623">
        <ele>283</ele>
        <time>2018-01-20T14:25:19Z</time>
      </trkpt>
      <trkpt lat="43.70671" lon="7.066">
        <ele>283</ele>
        <time>2018-01-20T14:25:24Z</time>
      </trkpt>
      <trkpt lat="43.70673" lon="7.06578">
        <ele>282</ele>
        <time>2018-01-20T14:25:28Z</time>
      </trkpt>
      <trkpt lat="43.70678" lon="7.06536">
        <ele>282</ele>
        <time>2018-01-20T14:25:34Z</time>
      </trkpt>
      <trkpt lat="43.70693" lon="7.06502">
        <ele>281</ele>
        <time>2018-01-20T14:25:40Z</time>
      </trkpt>
      <trkpt lat="43.70706" lon="7.06471">
        <ele>280</ele>
        <time>2018-01-20T14:25:46Z</time>
      </trkpt>
      <trkpt lat="43.70717" lon="7.06452">
        <ele>280</ele>
        <time>2018-01-20T14:25:51Z</time>
      </trkpt>
      <trkpt lat="43.70725" lon="7.06432">
        <ele>281</ele>
        <time>2018-01-20T14:25:56Z</time>
      </trkpt>
      <trkpt lat="43.70736" lon="7.06403">
        <ele>279</ele>
        <time>2018-01-20T14:26:02Z</time>
      </trkpt>
      <trkpt lat="43.70743" lon="7.06368">
        <ele>277</ele>
        <time>2018-01-20T14:26:08Z</time>
      </trkpt>
      <trkpt lat="43.70751" lon="7.06334">
        <ele>282</ele>
        <time>2018-01-20T14:26:14Z</time>
      </trkpt>
      <trkpt lat="43.70757" lon="7.06297">
        <ele>283</ele>
        <time>2018-01-20T14:26:20Z</time>
      </trkpt>
      <trkpt lat="43.70766" lon="7.0625">
        <ele>276</ele>
        <time>2018-01-20T14:26:26Z</time>
      </trkpt>
      <trkpt lat="43.7077" lon="7.06237">
        <ele>276</ele>
        <time>2018-01-20T14:26:28Z</time>
      </trkpt>
      <trkpt lat="43.70786" lon="7.06201">
        <ele>277</ele>
        <time>2018-01-20T14:26:34Z</time>
      </trkpt>
      <trkpt lat="43.70794" lon="7.06189">
        <ele>277</ele>
        <time>2018-01-20T14:26:36Z</time>
      </trkpt>
      <trkpt lat="43.70816" lon="7.06156">
        <ele>274</ele>
        <time>2018-01-20T14:26:42Z</time>
      </trkpt>
      <trkpt lat="43.70838" lon="7.06125">
        <ele>278</ele>
        <time>2018-01-20T14:26:48Z</time>
      </trkpt>
      <trkpt lat="43.70861" lon="7.06102">
        <ele>277</ele>
        <time>2018-01-20T14:26:54Z</time>
      </trkpt>
      <trkpt lat="43.70879" lon="7.06078">
        <ele>275</ele>
        <time>2018-01-20T14:27:00Z</time>
      </trkpt>
      <trkpt lat="43.70894" lon="7.06044">
        <ele>276</ele>
        <time>2018-01-20T14:27:06Z</time>
      </trkpt>
      <trkpt lat="43.7089" lon="7.06019">
        <ele>275</ele>
        <time>2018-01-20T14:27:13Z</time>
      </trkpt>
      <trkpt lat="43.70874" lon="7.06029">
        <ele>275</ele>
        <time>2018-01-20T14:27:19Z</time>
      </trkpt>
      <trkpt lat="43.70856" lon="7.06033">
        <ele>275</ele>
        <time>2018-01-20T14:27:25Z</time>
      </trkpt>
      <trkpt lat="43.7084" lon="7.0603">
        <ele>276</ele>
        <time>2018-01-20T14:27:31Z</time>
      </trkpt>
      <trkpt lat="43.70823" lon="7.06023">
        <ele>274</ele>
        <time>2018-01-20T14:27:37Z</time>
      </trkpt>
      <trkpt lat="43.70808" lon="7.06021">
        <ele>274</ele>
        <time>2018-01-20T14:27:43Z</time>
      </trkpt>
      <trkpt lat="43.708" lon="7.0602">
        <ele>274</ele>
        <time>2018-01-20T14:27:48Z</time>
      </trkpt>
      <trkpt lat="43.70793" lon="7.06018">
        <ele>274</ele>
        <time>2018-01-20T14:28:48Z</time>
      </trkpt>
      <trkpt lat="43.70775" lon="7.06019">
        <ele>274</ele>
        <time>2018-01-20T14:28:53Z</time>
      </trkpt>
      <trkpt lat="43.70758" lon="7.06023">
        <ele>274</ele>
        <time>2018-01-20T14:28:58Z</time>
      </trkpt>
      <trkpt lat="43.70736" lon="7.06014">
        <ele>274</ele>
        <time>2018-01-20T14:29:04Z</time>
      </trkpt>
      <trkpt lat="43.70721" lon="7.06003">
        <ele>274</ele>
        <time>2018-01-20T14:29:09Z</time>
      </trkpt>
      <trkpt lat="43.70709" lon="7.05983">
        <ele>280</ele>
        <time>2018-01-20T14:29:15Z</time>
      </trkpt>
      <trkpt lat="43.70702" lon="7.05965">
        <ele>281</ele>
        <time>2018-01-20T14:29:30Z</time>
      </trkpt>
      <trkpt lat="43.707" lon="7.05954">
        <ele>282</ele>
        <time>2018-01-20T14:30:32Z</time>
      </trkpt>
      <trkpt lat="43.70695" lon="7.05946">
        <ele>282</ele>
        <time>2018-01-20T14:30:37Z</time>
      </trkpt>
      <trkpt lat="43.7069" lon="7.05937">
        <ele>283</ele>
        <time>2018-01-20T14:30:42Z</time>
      </trkpt>
      <trkpt lat="43.70686" lon="7.05917">
        <ele>284</ele>
        <time>2018-01-20T14:30:51Z</time>
      </trkpt>
      <trkpt lat="43.70687" lon="7.05907">
        <ele>289</ele>
        <time>2018-01-20T14:30:57Z</time>
      </trkpt>
      <trkpt lat="43.70686" lon="7.05896">
        <ele>289</ele>
        <time>2018-01-20T14:31:06Z</time>
      </trkpt>
      <trkpt lat="43.70687" lon="7.05885">
        <ele>290</ele>
        <time>2018-01-20T14:31:14Z</time>
      </trkpt>
      <trkpt lat="43.70688" lon="7.05874">
        <ele>291</ele>
        <time>2018-01-20T14:31:21Z</time>
      </trkpt>
      <trkpt lat="43.70692" lon="7.05866">
        <ele>291</ele>
        <time>2018-01-20T14:31:28Z</time>
      </trkpt>
      <trkpt lat="43.70696" lon="7.05856">
        <ele>292</ele>
        <time>2018-01-20T14:31:38Z</time>
      </trkpt>
      <trkpt lat="43.707" lon="7.05847">
        <ele>292</ele>
        <time>2018-01-20T14:31:45Z</time>
      </trkpt>
      <trkpt lat="43.70706" lon="7.05842">
        <ele>292</ele>
        <time>2018-01-20T14:31:51Z</time>
      </trkpt>
      <trkpt lat="43.7071" lon="7.05832">
        <ele>297</ele>
        <time>2018-01-20T14:31:57Z</time>
      </trkpt>
      <trkpt lat="43.70711" lon="7.0582">
        <ele>297</ele>
        <time>2018-01-20T14:32:17Z</time>
      </trkpt>
      <trkpt lat="43.70708" lon="7.05809">
        <ele>298</ele>
        <time>2018-01-20T14:32:23Z</time>
      </trkpt>
      <trkpt lat="43.70706" lon="7.058">
        <ele>298</ele>
        <time>2018-01-20T14:32:29Z</time>
      </trkpt>
      <trkpt lat="43.70703" lon="7.05789">
        <ele>298</ele>
        <time>2018-01-20T14:32:36Z</time>
      </trkpt>
      <trkpt lat="43.70702" lon="7.05776">
        <ele>299</ele>
        <time>2018-01-20T14:32:41Z</time>
      </trkpt>
      <trkpt lat="43.70705" lon="7.05767">
        <ele>299</ele>
        <time>2018-01-20T14:32:49Z</time>
      </trkpt>
      <trkpt lat="43.70708" lon="7.05757">
        <ele>299</ele>
        <time>2018-01-20T14:32:55Z</time>
      </trkpt>
      <trkpt lat="43.7071" lon="7.05747">
        <ele>302</ele>
        <time>2018-01-20T14:33:01Z</time>
      </trkpt>
      <trkpt lat="43.70714" lon="7.05738">
        <ele>303</ele>
        <time>2018-01-20T14:33:06Z</time>
      </trkpt>
      <trkpt lat="43.7072" lon="7.05729">
        <ele>303</ele>
        <time>2018-01-20T14:33:12Z</time>
      </trkpt>
      <trkpt lat="43.70731" lon="7.05712">
        <ele>304</ele>
        <time>2018-01-20T14:33:21Z</time>
      </trkpt>
      <trkpt lat="43.70745" lon="7.05699">
        <ele>304</ele>
        <time>2018-01-20T14:33:31Z</time>
      </trkpt>
      <trkpt lat="43.70753" lon="7.05697">
        <ele>308</ele>
        <time>2018-01-20T14:34:44Z</time>
      </trkpt>
      <trkpt lat="43.70757" lon="7.05687">
        <ele>308</ele>
        <time>2018-01-20T14:34:49Z</time>
      </trkpt>
      <trkpt lat="43.7076" lon="7.05662">
        <ele>310</ele>
        <time>2018-01-20T14:34:57Z</time>
      </trkpt>
      <trkpt lat="43.70765" lon="7.05655">
        <ele>311</ele>
        <time>2018-01-20T14:35:02Z</time>
      </trkpt>
      <trkpt lat="43.70779" lon="7.05644">
        <ele>313</ele>
        <time>2018-01-20T14:35:11Z</time>
      </trkpt>
      <trkpt lat="43.70785" lon="7.05637">
        <ele>313</ele>
        <time>2018-01-20T14:35:16Z</time>
      </trkpt>
      <trkpt lat="43.70795" lon="7.05621">
        <ele>314</ele>
        <time>2018-01-20T14:35:25Z</time>
      </trkpt>
      <trkpt lat="43.70794" lon="7.05599">
        <ele>315</ele>
        <time>2018-01-20T14:35:33Z</time>
      </trkpt>
      <trkpt lat="43.70789" lon="7.05579">
        <ele>317</ele>
        <time>2018-01-20T14:35:41Z</time>
      </trkpt>
      <trkpt lat="43.70784" lon="7.05569">
        <ele>317</ele>
        <time>2018-01-20T14:35:47Z</time>
      </trkpt>
      <trkpt lat="43.70781" lon="7.05557">
        <ele>317</ele>
        <time>2018-01-20T14:36:54Z</time>
      </trkpt>
      <trkpt lat="43.70778" lon="7.05536">
        <ele>317</ele>
        <time>2018-01-20T14:37:02Z</time>
      </trkpt>
      <trkpt lat="43.70775" lon="7.05515">
        <ele>318</ele>
        <time>2018-01-20T14:37:08Z</time>
      </trkpt>
      <trkpt lat="43.7077" lon="7.05493">
        <ele>319</ele>
        <time>2018-01-20T14:37:14Z</time>
      </trkpt>
      <trkpt lat="43.70764" lon="7.05472">
        <ele>320</ele>
        <time>2018-01-20T14:37:21Z</time>
      </trkpt>
      <trkpt lat="43.70757" lon="7.05449">
        <ele>320</ele>
        <time>2018-01-20T14:37:27Z</time>
      </trkpt>
      <trkpt lat="43.70752" lon="7.05425">
        <ele>320</ele>
        <time>2018-01-20T14:37:33Z</time>
      </trkpt>
      <trkpt lat="43.70747" lon="7.05403">
        <ele>318</ele>
        <time>2018-01-20T14:37:38Z</time>
      </trkpt>
      <trkpt lat="43.70737" lon="7.05369">
        <ele>319</ele>
        <time>2018-01-20T14:37:45Z</time>
      </trkpt>
      <trkpt lat="43.70725" lon="7.05341">
        <ele>319</ele>
        <time>2018-01-20T14:37:51Z</time>
      </trkpt>
      <trkpt lat="43.70715" lon="7.05313">
        <ele>322</ele>
        <time>2018-01-20T14:37:57Z</time>
      </trkpt>
      <trkpt lat="43.70705" lon="7.05292">
        <ele>323</ele>
        <time>2018-01-20T14:38:02Z</time>
      </trkpt>
      <trkpt lat="43.70692" lon="7.05274">
        <ele>323</ele>
        <time>2018-01-20T14:38:07Z</time>
      </trkpt>
      <trkpt lat="43.70679" lon="7.05252">
        <ele>323</ele>
        <time>2018-01-20T14:38:13Z</time>
      </trkpt>
      <trkpt lat="43.70662" lon="7.05236">
        <ele>323</ele>
        <time>2018-01-20T14:38:18Z</time>
      </trkpt>
      <trkpt lat="43.70647" lon="7.05217">
        <ele>323</ele>
        <time>2018-01-20T14:38:23Z</time>
      </trkpt>
      <trkpt lat="43.70633" lon="7.05199">
        <ele>324</ele>
        <time>2018-01-20T14:38:28Z</time>
      </trkpt>
      <trkpt lat="43.70627" lon="7.05192">
        <ele>324</ele>
        <time>2018-01-20T14:38:30Z</time>
      </trkpt>
      <trkpt lat="43.70622" lon="7.05184">
        <ele>324</ele>
        <time>2018-01-20T14:38:32Z</time>
      </trkpt>
      <trkpt lat="43.70604" lon="7.0516">
        <ele>327</ele>
        <time>2018-01-20T14:38:38Z</time>
      </trkpt>
      <trkpt lat="43.7059" lon="7.05133">
        <ele>329</ele>
        <time>2018-01-20T14:38:44Z</time>
      </trkpt>
      <trkpt lat="43.70583" lon="7.05126">
        <ele>324</ele>
        <time>2018-01-20T14:38:46Z</time>
      </trkpt>
      <trkpt lat="43.70565" lon="7.05104">
        <ele>325</ele>
        <time>2018-01-20T14:38:52Z</time>
      </trkpt>
      <trkpt lat="43.70547" lon="7.05084">
        <ele>324</ele>
        <time>2018-01-20T14:38:58Z</time>
      </trkpt>
      <trkpt lat="43.70534" lon="7.05071">
        <ele>327</ele>
        <time>2018-01-20T14:39:02Z</time>
      </trkpt>
      <trkpt lat="43.70521" lon="7.05051">
        <ele>326</ele>
        <time>2018-01-20T14:39:07Z</time>
      </trkpt>
      <trkpt lat="43.70513" lon="7.05041">
        <ele>326</ele>
        <time>2018-01-20T14:39:10Z</time>
      </trkpt>
      <trkpt lat="43.70496" lon="7.05018">
        <ele>322</ele>
        <time>2018-01-20T14:39:16Z</time>
      </trkpt>
      <trkpt lat="43.70479" lon="7.04995">
        <ele>325</ele>
        <time>2018-01-20T14:39:22Z</time>
      </trkpt>
      <trkpt lat="43.70461" lon="7.0497">
        <ele>324</ele>
        <time>2018-01-20T14:39:29Z</time>
      </trkpt>
      <trkpt lat="43.70443" lon="7.04947">
        <ele>325</ele>
        <time>2018-01-20T14:39:35Z</time>
      </trkpt>
      <trkpt lat="43.70426" lon="7.04926">
        <ele>325</ele>
        <time>2018-01-20T14:39:41Z</time>
      </trkpt>
      <trkpt lat="43.70409" lon="7.04903">
        <ele>325</ele>
        <time>2018-01-20T14:39:47Z</time>
      </trkpt>
      <trkpt lat="43.70397" lon="7.04883">
        <ele>325</ele>
        <time>2018-01-20T14:39:52Z</time>
      </trkpt>
      <trkpt lat="43.70384" lon="7.04853">
        <ele>325</ele>
        <time>2018-01-20T14:39:58Z</time>
      </trkpt>
      <trkpt lat="43.70375" lon="7.04831">
        <ele>327</ele>
        <time>2018-01-20T14:40:03Z</time>
      </trkpt>
      <trkpt lat="43.70372" lon="7.04822">
        <ele>326</ele>
        <time>2018-01-20T14:40:05Z</time>
      </trkpt>
      <trkpt lat="43.70367" lon="7.04798">
        <ele>326</ele>
        <time>2018-01-20T14:40:10Z</time>
      </trkpt>
      <trkpt lat="43.70361" lon="7.04764">
        <ele>326</ele>
        <time>2018-01-20T14:40:17Z</time>
      </trkpt>
      <trkpt lat="43.70359" lon="7.04754">
        <ele>326</ele>
        <time>2018-01-20T14:40:19Z</time>
      </trkpt>
      <trkpt lat="43.70354" lon="7.04728">
        <ele>327</ele>
        <time>2018-01-20T14:40:24Z</time>
      </trkpt>
      <trkpt lat="43.70351" lon="7.04703">
        <ele>328</ele>
        <time>2018-01-20T14:40:29Z</time>
      </trkpt>
      <trkpt lat="43.70346" lon="7.04675">
        <ele>326</ele>
        <time>2018-01-20T14:40:35Z</time>
      </trkpt>
      <trkpt lat="43.70346" lon="7.04662">
        <ele>328</ele>
        <time>2018-01-20T14:40:37Z</time>
      </trkpt>
      <trkpt lat="43.70343" lon="7.04631">
        <ele>330</ele>
        <time>2018-01-20T14:40:43Z</time>
      </trkpt>
      <trkpt lat="43.70343" lon="7.04606">
        <ele>330</ele>
        <time>2018-01-20T14:40:48Z</time>
      </trkpt>
      <trkpt lat="43.70351" lon="7.04573">
        <ele>329</ele>
        <time>2018-01-20T14:40:55Z</time>
      </trkpt>
      <trkpt lat="43.70357" lon="7.0455">
        <ele>328</ele>
        <time>2018-01-20T14:41:00Z</time>
      </trkpt>
      <trkpt lat="43.7036" lon="7.04538">
        <ele>327</ele>
        <time>2018-01-20T14:41:03Z</time>
      </trkpt>
      <trkpt lat="43.7037" lon="7.04513">
        <ele>327</ele>
        <time>2018-01-20T14:41:09Z</time>
      </trkpt>
      <trkpt lat="43.70382" lon="7.04494">
        <ele>322</ele>
        <time>2018-01-20T14:41:14Z</time>
      </trkpt>
      <trkpt lat="43.70399" lon="7.04468">
        <ele>323</ele>
        <time>2018-01-20T14:41:21Z</time>
      </trkpt>
      <trkpt lat="43.70404" lon="7.0446">
        <ele>323</ele>
        <time>2018-01-20T14:41:23Z</time>
      </trkpt>
      <trkpt lat="43.70416" lon="7.04441">
        <ele>323</ele>
        <time>2018-01-20T14:41:28Z</time>
      </trkpt>
      <trkpt lat="43.7043" lon="7.04417">
        <ele>330</ele>
        <time>2018-01-20T14:41:34Z</time>
      </trkpt>
      <trkpt lat="43.70443" lon="7.04398">
        <ele>332</ele>
        <time>2018-01-20T14:41:39Z</time>
      </trkpt>
      <trkpt lat="43.70458" lon="7.04375">
        <ele>334</ele>
        <time>2018-01-20T14:41:45Z</time>
      </trkpt>
      <trkpt lat="43.70473" lon="7.04351">
        <ele>335</ele>
        <time>2018-01-20T14:41:51Z</time>
      </trkpt>
      <trkpt lat="43.70487" lon="7.04327">
        <ele>336</ele>
        <time>2018-01-20T14:41:57Z</time>
      </trkpt>
      <trkpt lat="43.70495" lon="7.04306">
        <ele>334</ele>
        <time>2018-01-20T14:42:02Z</time>
      </trkpt>
      <trkpt lat="43.705" lon="7.04282">
        <ele>334</ele>
        <time>2018-01-20T14:42:07Z</time>
      </trkpt>
      <trkpt lat="43.70502" lon="7.04272">
        <ele>340</ele>
        <time>2018-01-20T14:42:09Z</time>
      </trkpt>
      <trkpt lat="43.70507" lon="7.04249">
        <ele>336</ele>
        <time>2018-01-20T14:42:14Z</time>
      </trkpt>
      <trkpt lat="43.70507" lon="7.04223">
        <ele>339</ele>
        <time>2018-01-20T14:42:19Z</time>
      </trkpt>
      <trkpt lat="43.70507" lon="7.04199">
        <ele>340</ele>
        <time>2018-01-20T14:42:24Z</time>
      </trkpt>
      <trkpt lat="43.70501" lon="7.04175">
        <ele>340</ele>
        <time>2018-01-20T14:45:01Z</time>
      </trkpt>
      <trkpt lat="43.70496" lon="7.04153">
        <ele>344</ele>
        <time>2018-01-20T14:45:06Z</time>
      </trkpt>
      <trkpt lat="43.7049" lon="7.0413">
        <ele>346</ele>
        <time>2018-01-20T14:45:12Z</time>
      </trkpt>
      <trkpt lat="43.70482" lon="7.04107">
        <ele>348</ele>
        <time>2018-01-20T14:45:18Z</time>
      </trkpt>
      <trkpt lat="43.70459" lon="7.04077">
        <ele>346</ele>
        <time>2018-01-20T14:45:26Z</time>
      </trkpt>
      <trkpt lat="43.70462" lon="7.0404">
        <ele>345</ele>
        <time>2018-01-20T14:45:32Z</time>
      </trkpt>
      <trkpt lat="43.70462" lon="7.04005">
        <ele>343</ele>
        <time>2018-01-20T14:45:38Z</time>
      </trkpt>
      <trkpt lat="43.70459" lon="7.03985">
        <ele>337</ele>
        <time>2018-01-20T14:45:42Z</time>
      </trkpt>
      <trkpt lat="43.70451" lon="7.0396">
        <ele>335</ele>
        <time>2018-01-20T14:45:47Z</time>
      </trkpt>
      <trkpt lat="43.7044" lon="7.03928">
        <ele>330</ele>
        <time>2018-01-20T14:45:53Z</time>
      </trkpt>
      <trkpt lat="43.70438" lon="7.03917">
        <ele>329</ele>
        <time>2018-01-20T14:45:55Z</time>
      </trkpt>
      <trkpt lat="43.70434" lon="7.03907">
        <ele>328</ele>
        <time>2018-01-20T14:45:57Z</time>
      </trkpt>
      <trkpt lat="43.70424" lon="7.03876">
        <ele>332</ele>
        <time>2018-01-20T14:46:03Z</time>
      </trkpt>
      <trkpt lat="43.70415" lon="7.03847">
        <ele>319</ele>
        <time>2018-01-20T14:46:10Z</time>
      </trkpt>
      <trkpt lat="43.70412" lon="7.03837">
        <ele>324</ele>
        <time>2018-01-20T14:46:15Z</time>
      </trkpt>
      <trkpt lat="43.70407" lon="7.0383">
        <ele>323</ele>
        <time>2018-01-20T14:46:34Z</time>
      </trkpt>
      <trkpt lat="43.70399" lon="7.03821">
        <ele>318</ele>
        <time>2018-01-20T14:47:44Z</time>
      </trkpt>
      <trkpt lat="43.70388" lon="7.03799">
        <ele>313</ele>
        <time>2018-01-20T14:47:50Z</time>
      </trkpt>
      <trkpt lat="43.7039" lon="7.03756">
        <ele>317</ele>
        <time>2018-01-20T14:47:56Z</time>
      </trkpt>
      <trkpt lat="43.7039" lon="7.03705">
        <ele>312</ele>
        <time>2018-01-20T14:48:02Z</time>
      </trkpt>
      <trkpt lat="43.70394" lon="7.03689">
        <ele>314</ele>
        <time>2018-01-20T14:48:04Z</time>
      </trkpt>
      <trkpt lat="43.70401" lon="7.03644">
        <ele>312</ele>
        <time>2018-01-20T14:48:10Z</time>
      </trkpt>
      <trkpt lat="43.70403" lon="7.03588">
        <ele>314</ele>
        <time>2018-01-20T14:48:16Z</time>
      </trkpt>
      <trkpt lat="43.70404" lon="7.03578">
        <ele>312</ele>
        <time>2018-01-20T14:48:17Z</time>
      </trkpt>
      <trkpt lat="43.70415" lon="7.03537">
        <ele>304</ele>
        <time>2018-01-20T14:48:22Z</time>
      </trkpt>
      <trkpt lat="43.70419" lon="7.0352">
        <ele>333</ele>
        <time>2018-01-20T14:48:24Z</time>
      </trkpt>
      <trkpt lat="43.70421" lon="7.03464">
        <ele>332</ele>
        <time>2018-01-20T14:48:30Z</time>
      </trkpt>
      <trkpt lat="43.70419" lon="7.03454">
        <ele>332</ele>
        <time>2018-01-20T14:48:31Z</time>
      </trkpt>
      <trkpt lat="43.70418" lon="7.03435">
        <ele>327</ele>
        <time>2018-01-20T14:48:33Z</time>
      </trkpt>
      <trkpt lat="43.70415" lon="7.03382">
        <ele>292</ele>
        <time>2018-01-20T14:48:38Z</time>
      </trkpt>
      <trkpt lat="43.70421" lon="7.03333">
        <ele>303</ele>
        <time>2018-01-20T14:48:43Z</time>
      </trkpt>
      <trkpt lat="43.70424" lon="7.03317">
        <ele>306</ele>
        <time>2018-01-20T14:48:45Z</time>
      </trkpt>
      <trkpt lat="43.70445" lon="7.03275">
        <ele>306</ele>
        <time>2018-01-20T14:48:51Z</time>
      </trkpt>
      <trkpt lat="43.70474" lon="7.03248">
        <ele>300</ele>
        <time>2018-01-20T14:48:56Z</time>
      </trkpt>
      <trkpt lat="43.70491" lon="7.03205">
        <ele>296</ele>
        <time>2018-01-20T14:49:01Z</time>
      </trkpt>
      <trkpt lat="43.70497" lon="7.03168">
        <ele>298</ele>
        <time>2018-01-20T14:49:05Z</time>
      </trkpt>
      <trkpt lat="43.70516" lon="7.03132">
        <ele>303</ele>
        <time>2018-01-20T14:49:10Z</time>
      </trkpt>
      <trkpt lat="43.70533" lon="7.03108">
        <ele>303</ele>
        <time>2018-01-20T14:49:14Z</time>
      </trkpt>
      <trkpt lat="43.70541" lon="7.03093">
        <ele>303</ele>
        <time>2018-01-20T14:49:16Z</time>
      </trkpt>
      <trkpt lat="43.70545" lon="7.03039">
        <ele>296</ele>
        <time>2018-01-20T14:49:21Z</time>
      </trkpt>
      <trkpt lat="43.70539" lon="7.03032">
        <ele>295</ele>
        <time>2018-01-20T14:49:22Z</time>
      </trkpt>
      <trkpt lat="43.70532" lon="7.02996">
        <ele>292</ele>
        <time>2018-01-20T14:49:27Z</time>
      </trkpt>
      <trkpt lat="43.7053" lon="7.02984">
        <ele>292</ele>
        <time>2018-01-20T14:49:29Z</time>
      </trkpt>
      <trkpt lat="43.70526" lon="7.02951">
        <ele>292</ele>
        <time>2018-01-20T14:49:35Z</time>
      </trkpt>
      <trkpt lat="43.70531" lon="7.02919">
        <ele>292</ele>
        <time>2018-01-20T14:49:40Z</time>
      </trkpt>
      <trkpt lat="43.70532" lon="7.02902">
        <ele>292</ele>
        <time>2018-01-20T14:49:42Z</time>
      </trkpt>
      <trkpt lat="43.70515" lon="7.02847">
        <ele>289</ele>
        <time>2018-01-20T14:49:48Z</time>
      </trkpt>
      <trkpt lat="43.70498" lon="7.0281">
        <ele>274</ele>
        <time>2018-01-20T14:49:53Z</time>
      </trkpt>
      <trkpt lat="43.70495" lon="7.02799">
        <ele>272</ele>
        <time>2018-01-20T14:49:55Z</time>
      </trkpt>
      <trkpt lat="43.70494" lon="7.02787">
        <ele>271</ele>
        <time>2018-01-20T14:49:57Z</time>
      </trkpt>
      <trkpt lat="43.70515" lon="7.02753">
        <ele>284</ele>
        <time>2018-01-20T14:50:03Z</time>
      </trkpt>
      <trkpt lat="43.7054" lon="7.02714">
        <ele>289</ele>
        <time>2018-01-20T14:50:09Z</time>
      </trkpt>
      <trkpt lat="43.70538" lon="7.02658">
        <ele>290</ele>
        <time>2018-01-20T14:50:15Z</time>
      </trkpt>
      <trkpt lat="43.70516" lon="7.02627">
        <ele>289</ele>
        <time>2018-01-20T14:50:22Z</time>
      </trkpt>
      <trkpt lat="43.70516" lon="7.02613">
        <ele>290</ele>
        <time>2018-01-20T14:50:24Z</time>
      </trkpt>
      <trkpt lat="43.70504" lon="7.02586">
        <ele>286</ele>
        <time>2018-01-20T14:50:31Z</time>
      </trkpt>
      <trkpt lat="43.70498" lon="7.02567">
        <ele>281</ele>
        <time>2018-01-20T14:50:37Z</time>
      </trkpt>
      <trkpt lat="43.70494" lon="7.02547">
        <ele>281</ele>
        <time>2018-01-20T14:50:43Z</time>
      </trkpt>
      <trkpt lat="43.7049" lon="7.02526">
        <ele>283</ele>
        <time>2018-01-20T14:50:51Z</time>
      </trkpt>
      <trkpt lat="43.7049" lon="7.02503">
        <ele>290</ele>
        <time>2018-01-20T14:50:57Z</time>
      </trkpt>
      <trkpt lat="43.70485" lon="7.02478">
        <ele>291</ele>
        <time>2018-01-20T14:51:03Z</time>
      </trkpt>
      <trkpt lat="43.70477" lon="7.02456">
        <ele>290</ele>
        <time>2018-01-20T14:51:09Z</time>
      </trkpt>
      <trkpt lat="43.7047" lon="7.02436">
        <ele>290</ele>
        <time>2018-01-20T14:51:16Z</time>
      </trkpt>
      <trkpt lat="43.70459" lon="7.02418">
        <ele>289</ele>
        <time>2018-01-20T14:51:22Z</time>
      </trkpt>
      <trkpt lat="43.70452" lon="7.02394">
        <ele>290</ele>
        <time>2018-01-20T14:51:27Z</time>
      </trkpt>
      <trkpt lat="43.70448" lon="7.02354">
        <ele>290</ele>
        <time>2018-01-20T14:51:33Z</time>
      </trkpt>
      <trkpt lat="43.70444" lon="7.02315">
        <ele>291</ele>
        <time>2018-01-20T14:51:39Z</time>
      </trkpt>
      <trkpt lat="43.70437" lon="7.02282">
        <ele>291</ele>
        <time>2018-01-20T14:51:45Z</time>
      </trkpt>
      <trkpt lat="43.70422" lon="7.02257">
        <ele>288</ele>
        <time>2018-01-20T14:51:51Z</time>
      </trkpt>
      <trkpt lat="43.70415" lon="7.02249">
        <ele>286</ele>
        <time>2018-01-20T14:51:53Z</time>
      </trkpt>
      <trkpt lat="43.70396" lon="7.02216">
        <ele>285</ele>
        <time>2018-01-20T14:51:59Z</time>
      </trkpt>
      <trkpt lat="43.7038" lon="7.02182">
        <ele>285</ele>
        <time>2018-01-20T14:52:05Z</time>
      </trkpt>
      <trkpt lat="43.70358" lon="7.02133">
        <ele>287</ele>
        <time>2018-01-20T14:52:11Z</time>
      </trkpt>
      <trkpt lat="43.70356" lon="7.02092">
        <ele>286</ele>
        <time>2018-01-20T14:52:16Z</time>
      </trkpt>
      <trkpt lat="43.70335" lon="7.02061">
        <ele>290</ele>
        <time>2018-01-20T14:52:21Z</time>
      </trkpt>
      <trkpt lat="43.70327" lon="7.02046">
        <ele>280</ele>
        <time>2018-01-20T14:52:23Z</time>
      </trkpt>
      <trkpt lat="43.70297" lon="7.02011">
        <ele>281</ele>
        <time>2018-01-20T14:52:29Z</time>
      </trkpt>
      <trkpt lat="43.70267" lon="7.01988">
        <ele>283</ele>
        <time>2018-01-20T14:52:35Z</time>
      </trkpt>
      <trkpt lat="43.7024" lon="7.0197">
        <ele>272</ele>
        <time>2018-01-20T14:52:41Z</time>
      </trkpt>
      <trkpt lat="43.70221" lon="7.01959">
        <ele>270</ele>
        <time>2018-01-20T14:52:47Z</time>
      </trkpt>
      <trkpt lat="43.70205" lon="7.01936">
        <ele>269</ele>
        <time>2018-01-20T14:52:53Z</time>
      </trkpt>
      <trkpt lat="43.70202" lon="7.01927">
        <ele>269</ele>
        <time>2018-01-20T14:52:55Z</time>
      </trkpt>
      <trkpt lat="43.70196" lon="7.01889">
        <ele>270</ele>
        <time>2018-01-20T14:53:01Z</time>
      </trkpt>
      <trkpt lat="43.7019" lon="7.0184">
        <ele>268</ele>
        <time>2018-01-20T14:53:07Z</time>
      </trkpt>
      <trkpt lat="43.70178" lon="7.0178">
        <ele>270</ele>
        <time>2018-01-20T14:53:13Z</time>
      </trkpt>
      <trkpt lat="43.70174" lon="7.01735">
        <ele>269</ele>
        <time>2018-01-20T14:53:19Z</time>
      </trkpt>
      <trkpt lat="43.70173" lon="7.01722">
        <ele>270</ele>
        <time>2018-01-20T14:53:21Z</time>
      </trkpt>
      <trkpt lat="43.7017" lon="7.01685">
        <ele>269</ele>
        <time>2018-01-20T14:53:28Z</time>
      </trkpt>
      <trkpt lat="43.70172" lon="7.01673">
        <ele>267</ele>
        <time>2018-01-20T14:53:32Z</time>
      </trkpt>
      <trkpt lat="43.70177" lon="7.01653">
        <ele>266</ele>
        <time>2018-01-20T14:53:43Z</time>
      </trkpt>
      <trkpt lat="43.70182" lon="7.01645">
        <ele>266</ele>
        <time>2018-01-20T14:53:49Z</time>
      </trkpt>
      <trkpt lat="43.70194" lon="7.01629">
        <ele>266</ele>
        <time>2018-01-20T14:53:54Z</time>
      </trkpt>
      <trkpt lat="43.70203" lon="7.01612">
        <ele>266</ele>
        <time>2018-01-20T14:53:59Z</time>
      </trkpt>
      <trkpt lat="43.70201" lon="7.01622">
        <ele>266</ele>
        <time>2018-01-20T14:54:59Z</time>
      </trkpt>
      <trkpt lat="43.70196" lon="7.0163">
        <ele>266</ele>
        <time>2018-01-20T14:55:04Z</time>
      </trkpt>
      <trkpt lat="43.7019" lon="7.01639">
        <ele>266</ele>
        <time>2018-01-20T14:55:09Z</time>
      </trkpt>
      <trkpt lat="43.70186" lon="7.01648">
        <ele>266</ele>
        <time>2018-01-20T14:55:14Z</time>
      </trkpt>
      <trkpt lat="43.70184" lon="7.01659">
        <ele>266</ele>
        <time>2018-01-20T14:55:19Z</time>
      </trkpt>
      <trkpt lat="43.70183" lon="7.01669">
        <ele>269</ele>
        <time>2018-01-20T14:55:24Z</time>
      </trkpt>
      <trkpt lat="43.70184" lon="7.0168">
        <ele>270</ele>
        <time>2018-01-20T14:55:30Z</time>
      </trkpt>
      <trkpt lat="43.70185" lon="7.0169">
        <ele>271</ele>
        <time>2018-01-20T14:55:36Z</time>
      </trkpt>
      <trkpt lat="43.70188" lon="7.017">
        <ele>272</ele>
        <time>2018-01-20T14:55:41Z</time>
      </trkpt>
      <trkpt lat="43.7019" lon="7.0171">
        <ele>272</ele>
        <time>2018-01-20T14:55:46Z</time>
      </trkpt>
      <trkpt lat="43.70196" lon="7.01718">
        <ele>273</ele>
        <time>2018-01-20T14:55:52Z</time>
      </trkpt>
      <trkpt lat="43.70204" lon="7.01717">
        <ele>274</ele>
        <time>2018-01-20T14:55:58Z</time>
      </trkpt>
      <trkpt lat="43.70208" lon="7.01707">
        <ele>274</ele>
        <time>2018-01-20T14:56:05Z</time>
      </trkpt>
      <trkpt lat="43.70209" lon="7.01697">
        <ele>274</ele>
        <time>2018-01-20T14:56:11Z</time>
      </trkpt>
      <trkpt lat="43.70212" lon="7.01687">
        <ele>274</ele>
        <time>2018-01-20T14:56:18Z</time>
      </trkpt>
      <trkpt lat="43.70219" lon="7.01682">
        <ele>275</ele>
        <time>2018-01-20T14:56:23Z</time>
      </trkpt>
      <trkpt lat="43.70226" lon="7.01678">
        <ele>277</ele>
        <time>2018-01-20T14:56:29Z</time>
      </trkpt>
      <trkpt lat="43.70233" lon="7.01673">
        <ele>278</ele>
        <time>2018-01-20T14:56:35Z</time>
      </trkpt>
      <trkpt lat="43.70239" lon="7.01666">
        <ele>277</ele>
        <time>2018-01-20T14:56:42Z</time>
      </trkpt>
      <trkpt lat="43.70245" lon="7.01661">
        <ele>279</ele>
        <time>2018-01-20T14:56:48Z</time>
      </trkpt>
      <trkpt lat="43.70253" lon="7.01664">
        <ele>283</ele>
        <time>2018-01-20T14:56:55Z</time>
      </trkpt>
      <trkpt lat="43.70258" lon="7.01672">
        <ele>286</ele>
        <time>2018-01-20T14:57:01Z</time>
      </trkpt>
      <trkpt lat="43.70261" lon="7.01683">
        <ele>288</ele>
        <time>2018-01-20T14:57:07Z</time>
      </trkpt>
      <trkpt lat="43.70265" lon="7.01692">
        <ele>290</ele>
        <time>2018-01-20T14:57:14Z</time>
      </trkpt>
      <trkpt lat="43.70269" lon="7.017">
        <ele>291</ele>
        <time>2018-01-20T14:57:19Z</time>
      </trkpt>
      <trkpt lat="43.70277" lon="7.01703">
        <ele>292</ele>
        <time>2018-01-20T14:57:26Z</time>
      </trkpt>
      <trkpt lat="43.70283" lon="7.01696">
        <ele>292</ele>
        <time>2018-01-20T14:57:35Z</time>
      </trkpt>
      <trkpt lat="43.70286" lon="7.01685">
        <ele>292</ele>
        <time>2018-01-20T14:57:42Z</time>
      </trkpt>
      <trkpt lat="43.70293" lon="7.01679">
        <ele>293</ele>
        <time>2018-01-20T14:57:51Z</time>
      </trkpt>
      <trkpt lat="43.70302" lon="7.01678">
        <ele>294</ele>
        <time>2018-01-20T14:57:58Z</time>
      </trkpt>
      <trkpt lat="43.7031" lon="7.01679">
        <ele>295</ele>
        <time>2018-01-20T14:58:06Z</time>
      </trkpt>
      <trkpt lat="43.70314" lon="7.01688">
        <ele>296</ele>
        <time>2018-01-20T14:58:11Z</time>
      </trkpt>
      <trkpt lat="43.70318" lon="7.01697">
        <ele>296</ele>
        <time>2018-01-20T14:58:16Z</time>
      </trkpt>
      <trkpt lat="43.7032" lon="7.01721">
        <ele>297</ele>
        <time>2018-01-20T14:58:24Z</time>
      </trkpt>
      <trkpt lat="43.70322" lon="7.01743">
        <ele>300</ele>
        <time>2018-01-20T14:58:32Z</time>
      </trkpt>
      <trkpt lat="43.70328" lon="7.0175">
        <ele>303</ele>
        <time>2018-01-20T14:58:42Z</time>
      </trkpt>
      <trkpt lat="43.70336" lon="7.01737">
        <ele>307</ele>
        <time>2018-01-20T15:08:13Z</time>
      </trkpt>
    </trkseg>
  </trk>
</gpx>